GEFSMA_prec_meanprecacc_192.txt.gz
Total_Precipitation_Accumulation
1.15 1.02 0.96 1.14 1.13 1.17 1.22 1.24 1.25 1.12 1.02 0.91 0.88 0.81 0.86 0.82 0.78 0.75 0.90 0.98 1.24 1.64 1.86 1.84 1.80 1.59 1.51 1.44 1.48 1.53 1.58 1.55 1.79 2.20 2.61 2.69 2.35 1.83 1.44 1.26 1.25 1.16 1.23
1.04 1.04 0.90 0.97 1.08 1.22 1.42 1.47 1.30 1.20 1.14 1.07 1.07 1.02 1.00 0.93 0.89 0.77 0.85 0.90 0.85 1.03 1.39 1.79 2.02 1.87 1.73 1.60 1.55 1.57 1.57 1.53 1.66 1.91 2.04 2.19 2.20 1.87 1.42 1.23 1.20 1.10 1.24
0.88 0.99 1.00 0.97 1.01 1.23 1.48 1.61 1.48 1.36 1.20 1.18 1.17 1.15 1.05 1.05 1.01 0.91 0.92 1.02 0.85 0.80 1.05 1.50 1.93 2.06 1.95 1.88 1.74 1.67 1.57 1.51 1.55 1.67 1.81 1.81 1.89 1.80 1.48 1.30 1.21 1.18 1.20
0.93 1.05 1.11 1.05 1.05 1.26 1.48 1.66 1.69 1.65 1.52 1.44 1.37 1.29 1.21 1.29 1.16 1.07 1.05 1.10 1.19 1.02 0.98 1.17 1.47 1.79 2.01 2.07 1.86 1.65 1.52 1.43 1.42 1.44 1.57 1.46 1.53 1.58 1.39 1.24 1.24 1.29 1.31
0.94 1.09 1.26 1.28 1.27 1.39 1.47 1.50 1.59 1.58 1.59 1.60 1.44 1.41 1.34 1.43 1.43 1.29 1.33 1.33 1.35 1.28 1.14 1.01 1.10 1.20 1.56 1.93 1.93 1.75 1.62 1.48 1.39 1.34 1.44 1.31 1.28 1.36 1.22 1.20 1.26 1.30 1.28
1.16 1.14 1.27 1.29 1.35 1.52 1.56 1.66 1.84 1.75 1.64 1.74 1.60 1.52 1.47 1.45 1.43 1.48 1.53 1.52 1.49 1.34 1.30 1.14 1.15 1.01 1.13 1.46 1.63 1.70 1.66 1.66 1.61 1.49 1.49 1.35 1.20 1.20 1.20 1.13 1.12 1.16 1.20
1.30 1.32 1.33 1.33 1.38 1.44 1.49 1.66 2.00 2.00 1.82 1.72 1.91 1.89 1.79 1.60 1.54 1.55 1.55 1.65 1.64 1.46 1.42 1.47 1.34 1.12 0.95 0.98 1.10 1.39 1.52 1.73 1.84 1.75 1.68 1.50 1.23 1.21 1.26 1.08 1.10 1.15 1.12
1.28 1.22 1.37 1.46 1.43 1.53 1.61 1.76 2.03 2.20 2.00 1.82 2.14 2.55 2.34 2.07 1.74 1.54 1.53 1.46 1.56 1.57 1.47 1.35 1.28 1.19 1.05 1.03 0.82 0.97 1.25 1.62 2.01 1.97 1.75 1.61 1.37 1.25 1.26 1.12 1.10 1.14 1.16
1.54 1.47 1.54 1.67 1.58 1.61 1.69 1.72 1.81 2.22 2.35 2.14 2.10 2.62 2.50 2.31 2.23 1.76 1.41 1.28 1.48 1.59 1.58 1.45 1.35 1.36 1.29 1.21 1.01 0.81 0.93 1.24 1.81 1.94 1.79 1.71 1.56 1.40 1.27 1.19 1.15 1.16 1.27
1.75 1.64 1.64 1.68 1.69 1.74 1.70 1.58 1.73 2.12 2.54 2.55 2.35 2.17 2.03 2.00 2.19 2.09 1.56 1.30 1.38 1.50 1.65 1.55 1.48 1.47 1.44 1.42 1.32 1.02 0.79 0.87 1.39 1.93 2.06 1.99 1.84 1.66 1.53 1.42 1.32 1.30 1.31
1.76 1.62 1.55 1.61 1.67 1.76 1.76 1.81 1.98 2.26 2.50 2.70 2.64 2.39 2.12 1.92 1.61 1.80 1.81 1.60 1.38 1.31 1.38 1.46 1.56 1.54 1.47 1.41 1.44 1.24 0.87 0.72 0.96 1.56 2.05 2.16 2.01 1.84 1.77 1.71 1.65 1.67 1.60
1.60 1.54 1.52 1.50 1.46 1.53 1.64 1.81 2.05 2.18 2.36 2.57 2.59 2.32 2.15 2.03 1.86 1.75 1.62 1.69 1.67 1.39 1.26 1.23 1.34 1.44 1.44 1.41 1.25 1.30 1.08 0.82 0.76 0.94 1.30 1.72 1.85 1.88 1.87 1.87 1.83 1.82 1.87
1.38 1.39 1.41 1.37 1.27 1.26 1.38 1.56 1.78 1.85 1.98 2.18 2.26 2.15 2.03 1.87 1.83 1.90 1.87 1.78 1.66 1.40 1.26 1.09 1.15 1.27 1.27 1.32 1.37 1.38 1.15 1.00 0.81 0.75 0.81 0.99 1.28 1.60 1.85 2.01 2.06 2.03 2.00
1.21 1.14 1.17 1.17 1.16 1.16 1.18 1.28 1.42 1.48 1.58 1.78 1.85 1.88 1.79 1.75 1.78 1.77 1.81 1.94 1.82 1.60 1.28 0.97 1.00 1.13 1.08 1.13 1.33 1.35 1.00 0.95 0.85 0.77 0.73 0.72 0.79 1.00 1.34 1.58 1.80 2.02 2.08
0.99 0.94 1.00 1.08 1.16 1.10 1.04 1.11 1.21 1.25 1.38 1.54 1.66 1.79 1.74 1.70 1.70 1.74 1.82 1.87 1.89 1.76 1.50 1.11 0.97 0.91 0.93 1.01 1.29 1.14 0.99 0.96 0.87 0.81 0.73 0.64 0.60 0.61 0.75 0.95 1.19 1.39 1.52
0.89 0.89 0.91 0.92 0.95 0.95 0.98 1.08 1.19 1.26 1.30 1.37 1.46 1.60 1.72 1.75 1.77 1.77 1.82 1.83 1.79 1.76 1.67 1.28 1.03 0.86 0.92 0.90 1.10 0.91 1.01 1.17 0.96 0.80 0.71 0.65 0.61 0.59 0.58 0.66 0.73 0.78 0.83
0.70 0.71 0.68 0.73 0.86 0.87 0.86 0.99 1.05 1.05 1.17 1.26 1.28 1.32 1.49 1.61 1.72 1.77 1.78 1.77 1.82 1.77 1.64 1.43 1.13 0.95 1.02 1.02 1.07 0.93 0.94 0.99 0.91 0.87 0.78 0.69 0.61 0.59 0.56 0.59 0.59 0.56 0.58
0.48 0.53 0.56 0.56 0.75 0.92 0.94 0.97 0.98 0.95 1.03 1.09 1.15 1.22 1.30 1.32 1.42 1.56 1.66 1.65 1.73 1.78 1.73 1.63 1.34 1.11 1.08 1.12 1.25 1.26 1.18 1.11 1.08 1.16 1.10 0.91 0.75 0.67 0.64 0.61 0.59 0.53 0.50
0.38 0.41 0.54 0.52 0.58 0.74 0.86 0.86 0.84 0.87 0.90 0.96 1.00 1.05 1.09 1.17 1.28 1.31 1.39 1.48 1.57 1.62 1.71 1.65 1.55 1.42 1.25 1.18 1.22 1.22 1.30 1.45 1.39 1.37 1.40 1.22 0.99 0.84 0.75 0.70 0.66 0.60 0.54
0.42 0.39 0.39 0.40 0.46 0.56 0.69 0.70 0.70 0.72 0.75 0.78 0.88 0.95 1.00 1.04 1.12 1.20 1.22 1.34 1.46 1.56 1.58 1.55 1.49 1.42 1.37 1.33 1.33 1.29 1.35 1.49 1.56 1.46 1.42 1.34 1.24 1.11 0.96 0.84 0.73 0.67 0.64
0.26 0.28 0.24 0.26 0.30 0.39 0.44 0.45 0.52 0.60 0.66 0.71 0.80 0.84 0.87 0.83 0.86 0.93 0.94 1.11 1.27 1.45 1.52 1.55 1.46 1.35 1.30 1.32 1.31 1.32 1.37 1.53 1.58 1.61 1.60 1.46 1.34 1.17 1.04 0.94 0.82 0.75 0.71
0.13 0.18 0.18 0.21 0.25 0.27 0.33 0.32 0.36 0.48 0.58 0.63 0.71 0.74 0.80 0.83 0.78 0.74 0.74 0.81 0.95 1.07 1.25 1.38 1.41 1.34 1.27 1.25 1.33 1.44 1.45 1.53 1.63 1.56 1.48 1.55 1.48 1.36 1.18 0.99 0.97 0.93 0.83
0.11 0.12 0.14 0.20 0.21 0.18 0.21 0.19 0.30 0.50 0.55 0.56 0.54 0.67 0.78 0.84 0.87 0.89 0.78 0.76 0.78 0.82 0.92 1.09 1.22 1.23 1.21 1.23 1.29 1.38 1.45 1.49 1.41 1.47 1.42 1.50 1.48 1.36 1.20 1.13 1.17 1.04 0.94
0.09 0.13 0.15 0.21 0.18 0.12 0.13 0.16 0.24 0.40 0.48 0.47 0.47 0.58 0.73 0.84 0.87 0.89 0.85 0.91 0.89 0.79 0.76 0.84 1.03 1.11 1.11 1.23 1.36 1.47 1.58 1.57 1.52 1.50 1.42 1.43 1.39 1.26 1.16 1.14 1.21 1.08 0.97
0.09 0.12 0.16 0.17 0.13 0.09 0.10 0.14 0.23 0.39 0.47 0.47 0.44 0.52 0.68 0.76 0.86 0.87 0.84 0.95 0.95 0.78 0.71 0.81 0.86 0.92 1.01 1.13 1.31 1.45 1.54 1.55 1.54 1.51 1.36 1.23 1.18 1.23 1.23 1.16 1.13 1.12 1.00
0.10 0.11 0.13 0.14 0.12 0.13 0.11 0.11 0.18 0.28 0.37 0.45 0.45 0.50 0.69 0.75 0.77 0.74 0.76 0.97 1.06 0.93 0.71 0.69 0.76 0.89 0.97 1.10 1.32 1.46 1.68 1.68 1.49 1.46 1.35 1.21 1.20 1.28 1.41 1.31 1.13 1.03 0.96

GEFSMA_prec_meanprecacc_198.txt.gz
Total_Precipitation_Accumulation
1.15 1.03 0.96 1.15 1.15 1.19 1.23 1.25 1.27 1.15 1.04 0.95 0.90 0.83 0.89 0.84 0.80 0.77 0.93 1.03 1.31 1.73 1.95 1.93 1.88 1.65 1.56 1.49 1.54 1.58 1.61 1.58 1.80 2.23 2.81 2.96 2.53 1.91 1.49 1.29 1.28 1.19 1.25
1.05 1.05 0.92 0.99 1.09 1.23 1.43 1.49 1.32 1.23 1.17 1.10 1.11 1.06 1.02 0.95 0.90 0.78 0.86 0.92 0.89 1.08 1.46 1.91 2.11 1.97 1.80 1.66 1.60 1.61 1.61 1.56 1.68 1.94 2.09 2.24 2.25 1.91 1.45 1.26 1.23 1.13 1.26
0.89 1.02 1.02 0.98 1.02 1.24 1.49 1.63 1.50 1.39 1.22 1.22 1.21 1.20 1.09 1.07 1.02 0.92 0.94 1.03 0.87 0.83 1.10 1.58 2.02 2.15 2.02 1.93 1.78 1.72 1.61 1.53 1.57 1.70 1.84 1.84 1.92 1.83 1.51 1.33 1.23 1.20 1.22
0.94 1.06 1.12 1.06 1.06 1.27 1.49 1.68 1.72 1.68 1.55 1.49 1.42 1.33 1.25 1.31 1.18 1.08 1.07 1.13 1.21 1.05 1.03 1.23 1.54 1.85 2.07 2.12 1.91 1.68 1.54 1.45 1.44 1.46 1.59 1.49 1.55 1.61 1.42 1.26 1.26 1.31 1.33
0.94 1.09 1.26 1.29 1.29 1.40 1.49 1.53 1.63 1.61 1.64 1.65 1.47 1.44 1.37 1.44 1.45 1.31 1.35 1.36 1.39 1.34 1.20 1.06 1.16 1.26 1.63 2.00 1.98 1.79 1.65 1.52 1.44 1.38 1.48 1.33 1.31 1.39 1.25 1.22 1.28 1.32 1.31
1.18 1.14 1.27 1.29 1.35 1.53 1.58 1.69 1.87 1.79 1.68 1.78 1.63 1.53 1.49 1.46 1.44 1.50 1.56 1.54 1.52 1.40 1.38 1.19 1.20 1.08 1.19 1.50 1.67 1.74 1.71 1.72 1.68 1.54 1.53 1.39 1.22 1.22 1.22 1.15 1.14 1.17 1.22
1.31 1.33 1.34 1.34 1.38 1.45 1.50 1.67 2.01 2.03 1.86 1.75 1.93 1.90 1.81 1.62 1.54 1.56 1.57 1.66 1.67 1.51 1.50 1.51 1.38 1.17 0.99 1.02 1.14 1.44 1.58 1.80 1.91 1.80 1.72 1.52 1.25 1.22 1.27 1.09 1.12 1.17 1.14
1.29 1.23 1.38 1.47 1.44 1.54 1.62 1.76 2.04 2.22 2.02 1.84 2.16 2.56 2.35 2.08 1.75 1.56 1.54 1.47 1.57 1.58 1.49 1.38 1.30 1.22 1.08 1.06 0.86 1.02 1.30 1.70 2.09 2.02 1.79 1.64 1.39 1.27 1.27 1.13 1.11 1.16 1.17
1.54 1.48 1.55 1.68 1.60 1.62 1.69 1.73 1.81 2.22 2.36 2.15 2.11 2.64 2.51 2.33 2.26 1.79 1.44 1.30 1.49 1.61 1.59 1.46 1.36 1.37 1.30 1.22 1.03 0.83 0.98 1.35 1.89 2.01 1.84 1.77 1.60 1.42 1.29 1.21 1.18 1.18 1.29
1.76 1.64 1.65 1.69 1.69 1.75 1.70 1.59 1.73 2.12 2.56 2.57 2.37 2.18 2.05 2.02 2.21 2.12 1.59 1.33 1.41 1.52 1.67 1.55 1.49 1.49 1.46 1.44 1.34 1.05 0.84 0.94 1.45 1.98 2.11 2.06 1.92 1.70 1.57 1.45 1.36 1.34 1.34
1.77 1.62 1.55 1.61 1.68 1.77 1.76 1.81 1.99 2.26 2.51 2.72 2.66 2.42 2.15 1.93 1.62 1.81 1.82 1.63 1.40 1.32 1.38 1.47 1.57 1.55 1.48 1.43 1.48 1.29 0.92 0.77 1.03 1.60 2.08 2.20 2.06 1.92 1.85 1.78 1.72 1.72 1.63
1.60 1.55 1.53 1.50 1.47 1.54 1.64 1.81 2.06 2.19 2.38 2.59 2.61 2.34 2.18 2.05 1.87 1.76 1.63 1.70 1.68 1.40 1.26 1.24 1.34 1.46 1.46 1.43 1.27 1.34 1.13 0.86 0.81 0.99 1.33 1.74 1.88 1.93 1.93 1.93 1.89 1.88 1.92
1.38 1.40 1.42 1.38 1.29 1.27 1.39 1.57 1.80 1.86 1.99 2.20 2.28 2.16 2.04 1.87 1.84 1.91 1.88 1.79 1.66 1.40 1.26 1.09 1.15 1.29 1.29 1.34 1.38 1.39 1.17 1.04 0.85 0.80 0.86 1.02 1.31 1.64 1.90 2.09 2.15 2.12 2.08
1.21 1.15 1.17 1.18 1.17 1.17 1.20 1.31 1.44 1.50 1.60 1.81 1.88 1.90 1.80 1.75 1.79 1.79 1.82 1.95 1.82 1.60 1.28 0.97 1.00 1.14 1.09 1.13 1.33 1.36 1.02 0.98 0.88 0.80 0.76 0.76 0.82 1.03 1.38 1.63 1.86 2.08 2.13
1.00 0.95 1.01 1.10 1.17 1.11 1.06 1.13 1.24 1.27 1.41 1.56 1.68 1.81 1.75 1.71 1.71 1.76 1.83 1.88 1.89 1.77 1.51 1.11 0.97 0.92 0.93 1.02 1.30 1.15 1.01 1.00 0.89 0.82 0.74 0.66 0.62 0.64 0.78 0.98 1.21 1.42 1.57
0.90 0.90 0.93 0.93 0.96 0.96 1.00 1.10 1.21 1.29 1.32 1.39 1.47 1.61 1.73 1.75 1.78 1.78 1.84 1.84 1.80 1.77 1.67 1.29 1.04 0.87 0.93 0.91 1.13 0.94 1.04 1.20 0.98 0.81 0.72 0.66 0.63 0.61 0.60 0.68 0.75 0.81 0.85
0.71 0.72 0.69 0.74 0.86 0.88 0.87 1.00 1.06 1.07 1.18 1.27 1.29 1.33 1.49 1.62 1.73 1.78 1.79 1.78 1.83 1.78 1.66 1.44 1.13 0.95 1.03 1.04 1.10 0.97 0.96 1.01 0.92 0.88 0.79 0.69 0.62 0.61 0.58 0.61 0.62 0.58 0.59
0.49 0.54 0.57 0.57 0.76 0.92 0.95 0.98 0.99 0.96 1.04 1.10 1.15 1.23 1.30 1.33 1.42 1.56 1.67 1.66 1.75 1.79 1.74 1.63 1.35 1.11 1.09 1.14 1.29 1.30 1.20 1.12 1.09 1.17 1.11 0.93 0.77 0.69 0.65 0.63 0.61 0.57 0.53
0.40 0.42 0.54 0.53 0.59 0.75 0.86 0.87 0.85 0.88 0.91 0.97 1.00 1.05 1.09 1.17 1.28 1.31 1.39 1.48 1.57 1.63 1.72 1.65 1.55 1.42 1.25 1.18 1.24 1.25 1.32 1.45 1.40 1.38 1.42 1.24 1.02 0.86 0.77 0.73 0.69 0.63 0.58
0.44 0.40 0.39 0.41 0.47 0.57 0.70 0.72 0.71 0.73 0.76 0.79 0.90 0.97 1.01 1.04 1.13 1.20 1.22 1.34 1.46 1.56 1.58 1.55 1.49 1.42 1.37 1.34 1.34 1.31 1.37 1.50 1.57 1.46 1.43 1.36 1.27 1.14 0.98 0.87 0.77 0.71 0.67
0.27 0.28 0.25 0.27 0.32 0.40 0.45 0.47 0.55 0.62 0.69 0.73 0.82 0.85 0.88 0.83 0.86 0.93 0.94 1.11 1.27 1.45 1.52 1.55 1.46 1.35 1.30 1.32 1.32 1.33 1.39 1.55 1.59 1.62 1.60 1.48 1.35 1.19 1.06 0.97 0.86 0.79 0.75
0.14 0.18 0.19 0.22 0.26 0.28 0.33 0.33 0.37 0.49 0.60 0.65 0.72 0.75 0.81 0.83 0.78 0.74 0.74 0.81 0.95 1.07 1.25 1.38 1.41 1.34 1.28 1.25 1.34 1.45 1.46 1.54 1.63 1.57 1.48 1.56 1.48 1.37 1.20 1.02 1.02 0.99 0.88
0.11 0.13 0.15 0.20 0.22 0.19 0.21 0.20 0.31 0.51 0.56 0.56 0.55 0.67 0.79 0.84 0.87 0.89 0.78 0.76 0.78 0.82 0.92 1.09 1.22 1.23 1.22 1.24 1.30 1.39 1.46 1.50 1.42 1.47 1.43 1.50 1.49 1.36 1.21 1.14 1.18 1.05 0.96
0.10 0.14 0.15 0.21 0.19 0.13 0.14 0.17 0.24 0.41 0.49 0.47 0.48 0.59 0.74 0.84 0.87 0.89 0.85 0.91 0.89 0.79 0.76 0.84 1.03 1.11 1.11 1.23 1.36 1.47 1.59 1.58 1.52 1.51 1.43 1.44 1.39 1.26 1.16 1.14 1.22 1.08 0.98
0.10 0.13 0.16 0.18 0.14 0.10 0.10 0.15 0.23 0.40 0.48 0.47 0.45 0.52 0.68 0.77 0.86 0.87 0.85 0.95 0.95 0.78 0.71 0.81 0.86 0.93 1.01 1.13 1.31 1.45 1.54 1.55 1.54 1.51 1.36 1.23 1.18 1.23 1.23 1.16 1.14 1.12 1.00
0.11 0.11 0.14 0.14 0.13 0.14 0.12 0.12 0.19 0.29 0.38 0.46 0.46 0.51 0.70 0.75 0.77 0.74 0.76 0.97 1.06 0.93 0.71 0.69 0.76 0.89 0.97 1.10 1.32 1.46 1.68 1.68 1.49 1.46 1.35 1.21 1.20 1.28 1.41 1.31 1.13 1.03 0.96

GEFSMA_prec_meanprecacc_204.txt.gz
Total_Precipitation_Accumulation
1.18 1.05 0.98 1.16 1.16 1.21 1.25 1.32 1.33 1.20 1.09 0.99 0.94 0.87 0.91 0.86 0.82 0.79 0.98 1.10 1.37 1.81 2.03 2.00 1.95 1.72 1.62 1.53 1.57 1.61 1.66 1.63 1.84 2.26 2.93 3.18 2.81 2.12 1.61 1.36 1.31 1.21 1.27
1.08 1.08 0.93 1.00 1.10 1.25 1.45 1.52 1.37 1.28 1.22 1.16 1.16 1.09 1.05 0.97 0.91 0.80 0.90 0.97 0.93 1.14 1.53 1.99 2.21 2.04 1.86 1.71 1.62 1.64 1.65 1.60 1.71 1.97 2.13 2.31 2.35 2.01 1.52 1.31 1.26 1.15 1.28
0.94 1.05 1.04 1.00 1.04 1.25 1.50 1.65 1.53 1.42 1.27 1.26 1.26 1.25 1.13 1.10 1.03 0.93 0.96 1.08 0.93 0.88 1.16 1.67 2.10 2.23 2.11 1.99 1.82 1.75 1.64 1.57 1.60 1.74 1.88 1.88 1.97 1.89 1.58 1.39 1.27 1.23 1.24
0.96 1.08 1.13 1.07 1.07 1.27 1.51 1.70 1.76 1.72 1.60 1.53 1.45 1.37 1.30 1.37 1.22 1.10 1.08 1.16 1.26 1.10 1.07 1.29 1.61 1.91 2.14 2.21 1.98 1.74 1.59 1.49 1.48 1.49 1.61 1.52 1.60 1.66 1.48 1.31 1.29 1.33 1.35
0.99 1.11 1.28 1.30 1.30 1.41 1.51 1.56 1.67 1.67 1.69 1.70 1.51 1.47 1.39 1.47 1.49 1.34 1.39 1.41 1.44 1.40 1.26 1.11 1.21 1.31 1.69 2.06 2.06 1.87 1.72 1.58 1.48 1.42 1.51 1.37 1.34 1.42 1.28 1.25 1.30 1.35 1.33
1.21 1.16 1.29 1.30 1.37 1.55 1.60 1.71 1.91 1.84 1.73 1.82 1.65 1.56 1.51 1.48 1.47 1.54 1.60 1.58 1.55 1.45 1.44 1.26 1.29 1.14 1.23 1.54 1.75 1.84 1.79 1.79 1.74 1.59 1.57 1.41 1.24 1.23 1.23 1.16 1.15 1.19 1.24
1.32 1.34 1.35 1.35 1.40 1.48 1.53 1.69 2.04 2.06 1.88 1.78 1.96 1.93 1.84 1.64 1.56 1.58 1.60 1.69 1.71 1.57 1.56 1.57 1.45 1.24 1.04 1.05 1.18 1.49 1.65 1.89 2.01 1.86 1.75 1.55 1.26 1.24 1.29 1.11 1.13 1.18 1.15
1.30 1.23 1.39 1.48 1.45 1.57 1.64 1.79 2.06 2.25 2.05 1.86 2.19 2.60 2.38 2.11 1.78 1.57 1.56 1.49 1.60 1.61 1.52 1.40 1.32 1.25 1.12 1.09 0.88 1.06 1.35 1.81 2.21 2.09 1.83 1.67 1.43 1.30 1.29 1.16 1.14 1.18 1.19
1.55 1.49 1.57 1.69 1.61 1.65 1.73 1.76 1.84 2.26 2.40 2.17 2.14 2.67 2.54 2.36 2.29 1.81 1.46 1.32 1.50 1.63 1.63 1.49 1.39 1.39 1.32 1.24 1.04 0.87 1.03 1.42 1.96 2.08 1.90 1.84 1.68 1.46 1.33 1.24 1.20 1.20 1.31
1.77 1.66 1.66 1.70 1.71 1.77 1.73 1.61 1.76 2.16 2.60 2.61 2.40 2.21 2.07 2.05 2.24 2.15 1.61 1.34 1.42 1.54 1.69 1.57 1.50 1.50 1.48 1.45 1.36 1.08 0.88 1.01 1.51 2.04 2.19 2.16 1.99 1.74 1.60 1.48 1.40 1.38 1.36
1.78 1.63 1.57 1.63 1.70 1.78 1.77 1.82 2.00 2.29 2.55 2.76 2.71 2.46 2.19 1.96 1.63 1.83 1.84 1.64 1.41 1.33 1.39 1.47 1.57 1.56 1.50 1.45 1.51 1.32 0.96 0.82 1.07 1.64 2.13 2.27 2.13 2.00 1.97 1.90 1.83 1.81 1.68
1.61 1.56 1.54 1.52 1.48 1.55 1.65 1.82 2.07 2.21 2.40 2.62 2.66 2.40 2.22 2.08 1.89 1.77 1.64 1.71 1.69 1.40 1.26 1.24 1.34 1.46 1.46 1.45 1.30 1.37 1.16 0.88 0.84 1.01 1.36 1.78 1.93 2.01 2.07 2.13 2.08 1.99 1.98
1.39 1.40 1.42 1.39 1.30 1.28 1.40 1.59 1.81 1.88 2.00 2.21 2.30 2.19 2.07 1.89 1.86 1.92 1.89 1.80 1.67 1.41 1.27 1.09 1.15 1.29 1.29 1.34 1.39 1.40 1.18 1.05 0.86 0.81 0.88 1.04 1.34 1.69 1.99 2.19 2.25 2.22 2.17
1.23 1.15 1.18 1.19 1.18 1.18 1.21 1.33 1.47 1.51 1.61 1.82 1.90 1.93 1.82 1.76 1.80 1.80 1.84 1.97 1.84 1.61 1.28 0.98 1.00 1.14 1.09 1.13 1.34 1.37 1.03 0.99 0.89 0.81 0.77 0.77 0.84 1.09 1.47 1.71 1.93 2.14 2.19
1.01 0.96 1.02 1.11 1.18 1.12 1.08 1.15 1.26 1.30 1.43 1.58 1.71 1.85 1.76 1.71 1.72 1.77 1.84 1.90 1.91 1.78 1.51 1.11 0.97 0.92 0.94 1.02 1.31 1.16 1.01 1.00 0.90 0.83 0.75 0.67 0.63 0.65 0.81 1.00 1.24 1.46 1.60
0.92 0.91 0.93 0.94 0.97 0.97 1.01 1.13 1.25 1.33 1.35 1.41 1.50 1.63 1.74 1.76 1.79 1.79 1.84 1.85 1.80 1.77 1.68 1.29 1.04 0.87 0.93 0.91 1.14 0.95 1.05 1.21 0.99 0.82 0.72 0.67 0.63 0.62 0.62 0.71 0.78 0.84 0.88
0.72 0.73 0.70 0.74 0.87 0.88 0.88 1.02 1.10 1.11 1.23 1.32 1.31 1.34 1.51 1.63 1.74 1.79 1.80 1.79 1.83 1.78 1.66 1.44 1.13 0.95 1.03 1.05 1.12 0.98 0.97 1.02 0.93 0.88 0.79 0.70 0.63 0.61 0.58 0.61 0.62 0.59 0.60
0.49 0.54 0.58 0.58 0.77 0.93 0.96 0.99 1.00 0.98 1.08 1.15 1.18 1.24 1.31 1.33 1.42 1.57 1.68 1.67 1.75 1.79 1.75 1.64 1.35 1.11 1.09 1.15 1.29 1.30 1.21 1.13 1.10 1.17 1.11 0.93 0.77 0.69 0.66 0.64 0.61 0.57 0.53
0.40 0.42 0.54 0.54 0.60 0.76 0.88 0.88 0.86 0.89 0.93 0.99 1.02 1.07 1.11 1.18 1.29 1.32 1.40 1.49 1.57 1.63 1.72 1.65 1.55 1.42 1.25 1.19 1.25 1.25 1.32 1.47 1.41 1.38 1.42 1.25 1.02 0.86 0.77 0.73 0.69 0.63 0.58
0.44 0.40 0.40 0.42 0.48 0.58 0.71 0.73 0.73 0.75 0.78 0.80 0.92 0.99 1.02 1.05 1.14 1.21 1.22 1.35 1.47 1.56 1.58 1.55 1.49 1.43 1.37 1.34 1.35 1.32 1.38 1.52 1.60 1.49 1.45 1.37 1.27 1.14 0.98 0.87 0.77 0.71 0.67
0.27 0.29 0.26 0.28 0.32 0.40 0.46 0.47 0.55 0.63 0.70 0.73 0.83 0.86 0.89 0.84 0.87 0.94 0.94 1.11 1.27 1.45 1.52 1.56 1.47 1.36 1.31 1.32 1.32 1.33 1.39 1.56 1.60 1.65 1.63 1.50 1.36 1.19 1.07 0.97 0.86 0.80 0.76
0.14 0.18 0.20 0.23 0.26 0.28 0.34 0.33 0.37 0.50 0.60 0.66 0.73 0.76 0.83 0.85 0.80 0.75 0.74 0.82 0.95 1.08 1.26 1.38 1.42 1.34 1.28 1.25 1.34 1.45 1.46 1.54 1.64 1.58 1.50 1.57 1.50 1.38 1.21 1.02 1.03 1.00 0.90
0.11 0.13 0.16 0.21 0.23 0.19 0.21 0.20 0.31 0.51 0.56 0.57 0.56 0.68 0.80 0.86 0.88 0.90 0.79 0.77 0.78 0.82 0.92 1.09 1.22 1.23 1.22 1.24 1.30 1.39 1.47 1.51 1.43 1.48 1.43 1.51 1.50 1.37 1.22 1.15 1.20 1.07 1.00
0.10 0.14 0.16 0.22 0.20 0.13 0.14 0.17 0.25 0.41 0.49 0.47 0.49 0.59 0.75 0.86 0.88 0.91 0.86 0.92 0.90 0.79 0.77 0.84 1.03 1.11 1.11 1.23 1.36 1.47 1.59 1.58 1.52 1.51 1.44 1.46 1.41 1.27 1.16 1.15 1.23 1.09 0.99
0.10 0.13 0.16 0.18 0.14 0.11 0.11 0.15 0.24 0.40 0.48 0.48 0.45 0.53 0.68 0.77 0.87 0.88 0.86 0.96 0.96 0.78 0.71 0.81 0.86 0.93 1.01 1.13 1.31 1.45 1.54 1.56 1.54 1.51 1.36 1.23 1.18 1.23 1.23 1.16 1.14 1.12 1.01
0.11 0.12 0.14 0.14 0.13 0.14 0.13 0.12 0.19 0.29 0.39 0.46 0.47 0.51 0.70 0.75 0.78 0.75 0.78 0.98 1.07 0.94 0.71 0.69 0.76 0.89 0.97 1.10 1.32 1.46 1.68 1.69 1.49 1.46 1.35 1.21 1.20 1.28 1.41 1.32 1.13 1.03 0.96

GEFSMA_prec_meanprecacc_210.txt.gz
Total_Precipitation_Accumulation
1.23 1.11 1.05 1.22 1.20 1.24 1.28 1.35 1.37 1.25 1.14 1.03 0.98 0.90 0.93 0.88 0.84 0.82 1.03 1.14 1.40 1.85 2.07 2.06 2.00 1.78 1.66 1.57 1.61 1.65 1.69 1.65 1.86 2.29 2.96 3.25 2.93 2.30 1.86 1.56 1.41 1.26 1.31
1.12 1.12 0.99 1.04 1.13 1.27 1.47 1.54 1.40 1.33 1.27 1.21 1.20 1.12 1.07 0.99 0.94 0.84 0.97 1.03 0.97 1.17 1.57 2.04 2.27 2.09 1.90 1.75 1.67 1.68 1.68 1.63 1.74 2.00 2.16 2.35 2.43 2.11 1.66 1.44 1.35 1.20 1.32
0.97 1.07 1.08 1.04 1.07 1.28 1.52 1.68 1.57 1.46 1.32 1.31 1.30 1.27 1.16 1.12 1.05 0.96 1.04 1.16 0.99 0.92 1.20 1.72 2.17 2.28 2.15 2.04 1.87 1.79 1.68 1.59 1.63 1.76 1.91 1.90 2.00 1.94 1.65 1.46 1.34 1.28 1.28
0.98 1.10 1.15 1.09 1.09 1.29 1.53 1.75 1.80 1.76 1.66 1.58 1.49 1.40 1.33 1.40 1.24 1.13 1.13 1.22 1.32 1.15 1.11 1.33 1.68 1.99 2.21 2.27 2.03 1.78 1.63 1.53 1.51 1.52 1.64 1.53 1.61 1.69 1.52 1.36 1.36 1.39 1.40
1.02 1.14 1.30 1.32 1.32 1.43 1.53 1.58 1.70 1.71 1.74 1.74 1.55 1.51 1.42 1.49 1.51 1.37 1.42 1.44 1.48 1.45 1.30 1.14 1.25 1.38 1.75 2.14 2.15 1.94 1.78 1.63 1.51 1.44 1.53 1.39 1.36 1.44 1.31 1.28 1.34 1.39 1.38
1.24 1.20 1.31 1.33 1.39 1.57 1.63 1.74 1.95 1.88 1.77 1.86 1.69 1.59 1.53 1.50 1.49 1.57 1.63 1.61 1.58 1.49 1.48 1.30 1.34 1.21 1.30 1.59 1.81 1.90 1.84 1.84 1.78 1.62 1.59 1.44 1.26 1.26 1.27 1.20 1.20 1.25 1.30
1.34 1.35 1.37 1.37 1.42 1.51 1.55 1.72 2.09 2.11 1.92 1.82 2.01 1.98 1.87 1.66 1.58 1.60 1.62 1.71 1.73 1.59 1.58 1.60 1.49 1.30 1.11 1.09 1.22 1.55 1.69 1.94 2.05 1.89 1.78 1.57 1.28 1.26 1.31 1.14 1.17 1.22 1.18
1.31 1.24 1.40 1.49 1.47 1.60 1.67 1.82 2.11 2.32 2.09 1.90 2.25 2.68 2.44 2.16 1.82 1.60 1.59 1.51 1.61 1.63 1.54 1.42 1.35 1.28 1.16 1.13 0.91 1.09 1.38 1.84 2.24 2.12 1.86 1.70 1.46 1.33 1.33 1.20 1.18 1.21 1.20
1.55 1.49 1.58 1.70 1.62 1.68 1.77 1.81 1.89 2.33 2.46 2.22 2.18 2.75 2.63 2.42 2.34 1.85 1.48 1.33 1.51 1.64 1.64 1.50 1.40 1.41 1.34 1.28 1.08 0.90 1.06 1.44 1.99 2.11 1.93 1.87 1.73 1.55 1.38 1.29 1.24 1.23 1.32
1.77 1.66 1.67 1.72 1.72 1.79 1.77 1.64 1.79 2.21 2.66 2.68 2.46 2.26 2.14 2.11 2.30 2.19 1.64 1.36 1.43 1.55 1.70 1.58 1.51 1.52 1.50 1.49 1.40 1.11 0.91 1.03 1.54 2.07 2.23 2.20 2.07 1.87 1.66 1.53 1.43 1.40 1.38
1.78 1.64 1.58 1.65 1.72 1.80 1.79 1.84 2.03 2.32 2.60 2.84 2.78 2.52 2.24 2.01 1.68 1.87 1.86 1.65 1.43 1.35 1.40 1.48 1.58 1.57 1.53 1.48 1.54 1.35 0.98 0.84 1.11 1.67 2.16 2.30 2.21 2.14 2.06 1.95 1.87 1.85 1.71
1.63 1.57 1.54 1.53 1.50 1.57 1.67 1.85 2.10 2.23 2.42 2.65 2.71 2.45 2.27 2.13 1.94 1.81 1.67 1.73 1.70 1.42 1.28 1.24 1.34 1.47 1.48 1.46 1.31 1.38 1.16 0.89 0.85 1.02 1.37 1.80 1.99 2.12 2.18 2.20 2.13 2.03 2.02
1.42 1.42 1.43 1.39 1.31 1.29 1.42 1.62 1.86 1.91 2.02 2.25 2.36 2.25 2.12 1.95 1.91 1.95 1.91 1.82 1.69 1.43 1.28 1.10 1.16 1.29 1.29 1.35 1.40 1.41 1.19 1.05 0.86 0.82 0.88 1.06 1.36 1.73 2.06 2.26 2.31 2.26 2.21
1.24 1.16 1.18 1.20 1.19 1.18 1.22 1.35 1.50 1.54 1.63 1.85 1.92 1.96 1.85 1.79 1.83 1.83 1.87 2.00 1.87 1.63 1.30 0.99 1.01 1.14 1.09 1.14 1.35 1.38 1.03 0.99 0.90 0.82 0.77 0.77 0.85 1.10 1.50 1.75 1.97 2.18 2.22
1.02 0.97 1.02 1.12 1.19 1.13 1.09 1.18 1.30 1.33 1.44 1.60 1.73 1.87 1.79 1.73 1.74 1.80 1.87 1.93 1.94 1.81 1.54 1.12 0.98 0.92 0.94 1.02 1.31 1.16 1.01 1.01 0.90 0.83 0.75 0.67 0.63 0.66 0.82 1.01 1.26 1.48 1.62
0.93 0.92 0.94 0.95 0.97 0.98 1.02 1.16 1.29 1.35 1.37 1.44 1.52 1.64 1.76 1.79 1.82 1.82 1.87 1.88 1.83 1.80 1.69 1.30 1.04 0.87 0.93 0.92 1.14 0.95 1.05 1.21 1.00 0.82 0.73 0.67 0.63 0.62 0.62 0.71 0.79 0.85 0.89
0.73 0.74 0.71 0.74 0.87 0.89 0.89 1.03 1.11 1.12 1.24 1.33 1.33 1.36 1.52 1.65 1.77 1.81 1.81 1.80 1.85 1.79 1.67 1.45 1.14 0.95 1.03 1.05 1.12 0.98 0.97 1.02 0.93 0.89 0.80 0.71 0.63 0.61 0.59 0.62 0.62 0.59 0.60
0.49 0.55 0.58 0.58 0.77 0.94 0.96 1.00 1.01 0.99 1.09 1.18 1.21 1.27 1.33 1.34 1.44 1.58 1.69 1.68 1.76 1.80 1.75 1.64 1.35 1.12 1.09 1.15 1.30 1.31 1.21 1.13 1.10 1.19 1.13 0.94 0.78 0.70 0.66 0.64 0.62 0.57 0.53
0.40 0.43 0.55 0.54 0.60 0.76 0.88 0.89 0.87 0.90 0.94 1.01 1.05 1.11 1.14 1.20 1.30 1.33 1.41 1.50 1.58 1.64 1.73 1.66 1.56 1.43 1.26 1.20 1.27 1.26 1.32 1.47 1.42 1.40 1.44 1.26 1.03 0.87 0.78 0.74 0.69 0.64 0.58
0.44 0.40 0.40 0.42 0.48 0.58 0.71 0.73 0.73 0.76 0.79 0.81 0.93 1.01 1.05 1.08 1.16 1.22 1.23 1.35 1.47 1.57 1.60 1.57 1.51 1.44 1.38 1.35 1.36 1.33 1.39 1.53 1.60 1.51 1.47 1.38 1.29 1.16 1.00 0.89 0.77 0.71 0.67
0.27 0.29 0.26 0.28 0.32 0.40 0.46 0.48 0.56 0.64 0.71 0.75 0.85 0.87 0.90 0.85 0.88 0.95 0.95 1.12 1.28 1.47 1.54 1.57 1.48 1.37 1.32 1.34 1.32 1.34 1.40 1.57 1.60 1.66 1.66 1.53 1.39 1.21 1.09 0.99 0.87 0.80 0.76
0.14 0.19 0.20 0.23 0.26 0.28 0.34 0.34 0.38 0.50 0.61 0.67 0.74 0.77 0.83 0.85 0.80 0.76 0.75 0.82 0.96 1.09 1.27 1.40 1.43 1.35 1.28 1.26 1.34 1.45 1.46 1.55 1.65 1.59 1.51 1.59 1.51 1.40 1.23 1.04 1.04 1.01 0.91
0.12 0.13 0.16 0.22 0.23 0.20 0.22 0.21 0.31 0.52 0.57 0.58 0.56 0.69 0.80 0.86 0.88 0.91 0.80 0.78 0.79 0.83 0.92 1.10 1.23 1.24 1.22 1.24 1.30 1.40 1.47 1.51 1.43 1.48 1.44 1.52 1.53 1.41 1.24 1.18 1.22 1.09 1.01
0.11 0.15 0.17 0.23 0.20 0.14 0.14 0.17 0.25 0.42 0.50 0.48 0.49 0.60 0.75 0.86 0.89 0.91 0.87 0.93 0.91 0.80 0.77 0.84 1.03 1.11 1.11 1.24 1.37 1.48 1.59 1.58 1.52 1.51 1.44 1.46 1.41 1.28 1.18 1.16 1.25 1.12 1.02
0.11 0.14 0.18 0.18 0.15 0.11 0.11 0.15 0.24 0.41 0.48 0.48 0.46 0.54 0.69 0.78 0.87 0.89 0.87 0.98 0.98 0.80 0.72 0.82 0.87 0.93 1.01 1.14 1.33 1.47 1.55 1.56 1.54 1.51 1.36 1.23 1.18 1.23 1.24 1.17 1.14 1.14 1.02
0.12 0.12 0.15 0.15 0.13 0.14 0.14 0.13 0.20 0.30 0.39 0.47 0.48 0.53 0.71 0.76 0.78 0.75 0.79 1.00 1.09 0.95 0.72 0.70 0.77 0.89 0.97 1.11 1.33 1.47 1.69 1.70 1.50 1.46 1.35 1.21 1.20 1.29 1.42 1.32 1.14 1.04 0.97

GEFSMA_prec_meanprecacc_216.txt.gz
Total_Precipitation_Accumulation
1.24 1.12 1.06 1.25 1.23 1.26 1.30 1.37 1.40 1.29 1.18 1.06 1.01 0.93 0.96 0.90 0.86 0.84 1.06 1.20 1.45 1.91 2.13 2.10 2.04 1.81 1.68 1.60 1.66 1.70 1.72 1.69 1.89 2.31 2.98 3.28 2.96 2.33 1.98 1.77 1.59 1.37 1.37
1.13 1.13 1.00 1.07 1.16 1.30 1.50 1.57 1.43 1.36 1.30 1.25 1.23 1.14 1.10 1.03 0.96 0.86 1.00 1.07 1.01 1.21 1.61 2.10 2.34 2.13 1.95 1.80 1.72 1.73 1.72 1.67 1.78 2.03 2.18 2.37 2.44 2.13 1.73 1.67 1.56 1.33 1.40
0.98 1.09 1.09 1.07 1.10 1.30 1.55 1.72 1.60 1.49 1.34 1.33 1.32 1.29 1.18 1.15 1.07 0.97 1.06 1.19 1.02 0.96 1.25 1.79 2.25 2.36 2.22 2.11 1.92 1.85 1.72 1.63 1.66 1.79 1.93 1.91 2.01 1.96 1.67 1.53 1.45 1.37 1.36
0.99 1.11 1.16 1.12 1.12 1.31 1.56 1.78 1.83 1.80 1.70 1.61 1.51 1.42 1.35 1.42 1.26 1.14 1.17 1.26 1.35 1.19 1.16 1.38 1.73 2.08 2.28 2.32 2.07 1.82 1.66 1.55 1.52 1.54 1.66 1.55 1.62 1.70 1.54 1.40 1.40 1.45 1.45
1.03 1.15 1.32 1.34 1.33 1.45 1.55 1.60 1.72 1.74 1.78 1.76 1.57 1.53 1.45 1.53 1.55 1.40 1.46 1.49 1.52 1.48 1.33 1.16 1.28 1.44 1.84 2.18 2.20 1.98 1.81 1.65 1.53 1.46 1.54 1.41 1.38 1.46 1.32 1.31 1.37 1.44 1.44
1.25 1.21 1.33 1.35 1.40 1.59 1.66 1.77 1.98 1.92 1.81 1.90 1.72 1.61 1.57 1.54 1.52 1.60 1.68 1.65 1.62 1.52 1.51 1.32 1.36 1.23 1.42 1.69 1.87 1.95 1.88 1.87 1.81 1.65 1.62 1.45 1.28 1.29 1.30 1.24 1.26 1.34 1.39
1.35 1.36 1.37 1.39 1.43 1.52 1.58 1.77 2.13 2.15 1.96 1.85 2.04 2.00 1.91 1.71 1.62 1.64 1.65 1.74 1.76 1.62 1.61 1.62 1.50 1.32 1.19 1.21 1.29 1.60 1.73 1.97 2.08 1.94 1.81 1.59 1.30 1.29 1.35 1.20 1.23 1.27 1.22
1.32 1.24 1.40 1.50 1.47 1.61 1.69 1.86 2.14 2.35 2.12 1.93 2.27 2.70 2.47 2.20 1.85 1.63 1.61 1.53 1.64 1.65 1.55 1.43 1.35 1.29 1.19 1.19 0.98 1.13 1.41 1.87 2.28 2.16 1.88 1.73 1.52 1.40 1.42 1.29 1.26 1.26 1.24
1.57 1.50 1.59 1.71 1.63 1.69 1.78 1.82 1.91 2.35 2.48 2.23 2.20 2.77 2.65 2.45 2.38 1.87 1.50 1.35 1.54 1.65 1.65 1.51 1.40 1.42 1.35 1.30 1.11 0.93 1.08 1.45 2.02 2.15 1.97 1.93 1.81 1.66 1.49 1.38 1.33 1.31 1.39
1.78 1.67 1.68 1.73 1.73 1.80 1.78 1.66 1.80 2.22 2.67 2.70 2.48 2.30 2.17 2.14 2.33 2.22 1.66 1.38 1.46 1.57 1.72 1.59 1.52 1.53 1.51 1.50 1.42 1.13 0.93 1.05 1.55 2.10 2.27 2.27 2.17 1.96 1.74 1.59 1.47 1.45 1.46
1.80 1.65 1.59 1.67 1.73 1.81 1.80 1.86 2.05 2.33 2.61 2.86 2.81 2.56 2.27 2.04 1.69 1.89 1.88 1.67 1.45 1.36 1.42 1.49 1.60 1.59 1.55 1.50 1.57 1.38 1.01 0.86 1.14 1.69 2.18 2.34 2.28 2.20 2.11 2.00 1.92 1.91 1.78
1.65 1.58 1.55 1.54 1.51 1.58 1.67 1.86 2.12 2.25 2.44 2.67 2.73 2.46 2.28 2.14 1.95 1.82 1.68 1.74 1.72 1.44 1.30 1.27 1.36 1.49 1.49 1.47 1.33 1.40 1.18 0.91 0.87 1.04 1.39 1.83 2.03 2.16 2.21 2.24 2.18 2.08 2.06
1.43 1.44 1.44 1.41 1.31 1.30 1.42 1.63 1.87 1.92 2.04 2.27 2.37 2.27 2.13 1.96 1.92 1.97 1.92 1.83 1.70 1.43 1.30 1.13 1.18 1.31 1.30 1.36 1.40 1.41 1.19 1.06 0.87 0.83 0.89 1.06 1.38 1.76 2.08 2.29 2.35 2.30 2.26
1.25 1.17 1.19 1.22 1.20 1.19 1.23 1.36 1.51 1.56 1.65 1.87 1.94 1.98 1.87 1.81 1.85 1.84 1.88 2.01 1.87 1.64 1.31 1.00 1.03 1.15 1.10 1.14 1.35 1.38 1.03 0.99 0.90 0.82 0.77 0.78 0.85 1.11 1.51 1.77 2.00 2.20 2.25
1.02 0.98 1.03 1.13 1.19 1.13 1.10 1.20 1.33 1.35 1.47 1.63 1.76 1.88 1.81 1.74 1.75 1.81 1.88 1.94 1.96 1.82 1.55 1.13 0.98 0.92 0.94 1.03 1.31 1.16 1.01 1.01 0.90 0.83 0.75 0.67 0.63 0.66 0.82 1.02 1.27 1.50 1.64
0.94 0.94 0.95 0.95 0.98 0.99 1.03 1.17 1.32 1.39 1.41 1.48 1.56 1.67 1.78 1.81 1.84 1.83 1.88 1.89 1.85 1.82 1.71 1.31 1.05 0.88 0.93 0.92 1.14 0.95 1.05 1.21 1.00 0.82 0.74 0.68 0.64 0.62 0.62 0.71 0.79 0.85 0.89
0.74 0.75 0.71 0.75 0.88 0.89 0.89 1.04 1.12 1.14 1.27 1.35 1.35 1.39 1.55 1.68 1.79 1.83 1.82 1.81 1.86 1.81 1.69 1.46 1.14 0.96 1.04 1.06 1.12 0.98 0.97 1.02 0.94 0.90 0.81 0.71 0.63 0.61 0.59 0.62 0.62 0.59 0.60
0.50 0.55 0.59 0.58 0.77 0.94 0.96 1.00 1.01 0.99 1.10 1.19 1.22 1.28 1.35 1.36 1.45 1.59 1.70 1.68 1.77 1.81 1.77 1.66 1.37 1.12 1.10 1.17 1.32 1.32 1.22 1.14 1.10 1.19 1.13 0.94 0.78 0.70 0.66 0.64 0.62 0.57 0.54
0.40 0.44 0.55 0.55 0.61 0.77 0.88 0.89 0.88 0.91 0.96 1.02 1.06 1.12 1.15 1.22 1.33 1.35 1.42 1.51 1.59 1.65 1.74 1.67 1.57 1.43 1.27 1.21 1.28 1.27 1.34 1.47 1.42 1.40 1.44 1.26 1.04 0.88 0.79 0.74 0.69 0.64 0.59
0.44 0.41 0.40 0.43 0.50 0.59 0.72 0.74 0.75 0.78 0.81 0.82 0.94 1.02 1.06 1.09 1.19 1.26 1.27 1.39 1.50 1.59 1.61 1.58 1.52 1.45 1.39 1.36 1.36 1.34 1.39 1.53 1.61 1.51 1.47 1.39 1.30 1.17 1.01 0.89 0.78 0.72 0.67
0.28 0.29 0.26 0.28 0.33 0.41 0.48 0.50 0.57 0.65 0.72 0.76 0.86 0.88 0.91 0.86 0.90 0.97 0.97 1.15 1.31 1.49 1.56 1.59 1.49 1.38 1.33 1.35 1.33 1.34 1.41 1.57 1.61 1.66 1.66 1.53 1.39 1.21 1.10 1.00 0.88 0.81 0.77
0.15 0.19 0.20 0.23 0.27 0.28 0.35 0.35 0.38 0.51 0.62 0.68 0.75 0.77 0.84 0.86 0.81 0.76 0.75 0.83 0.96 1.09 1.28 1.40 1.44 1.36 1.29 1.27 1.35 1.46 1.47 1.56 1.65 1.59 1.51 1.59 1.52 1.41 1.24 1.05 1.05 1.02 0.91
0.12 0.14 0.16 0.22 0.23 0.20 0.23 0.21 0.32 0.52 0.58 0.58 0.57 0.70 0.81 0.87 0.89 0.91 0.80 0.78 0.79 0.83 0.93 1.10 1.24 1.24 1.23 1.25 1.31 1.41 1.48 1.52 1.44 1.48 1.44 1.53 1.53 1.42 1.25 1.19 1.23 1.10 1.01
0.11 0.16 0.17 0.23 0.21 0.14 0.15 0.18 0.26 0.42 0.50 0.49 0.50 0.62 0.76 0.87 0.89 0.92 0.87 0.94 0.91 0.80 0.78 0.85 1.03 1.11 1.12 1.25 1.38 1.49 1.60 1.59 1.53 1.52 1.45 1.47 1.41 1.29 1.19 1.17 1.26 1.13 1.02
0.11 0.14 0.18 0.19 0.15 0.12 0.12 0.16 0.25 0.41 0.49 0.49 0.46 0.54 0.70 0.79 0.88 0.89 0.87 0.98 0.98 0.80 0.73 0.83 0.87 0.94 1.02 1.15 1.34 1.48 1.57 1.59 1.56 1.53 1.38 1.25 1.19 1.24 1.24 1.17 1.15 1.14 1.03
0.12 0.13 0.16 0.16 0.14 0.15 0.14 0.14 0.20 0.31 0.40 0.47 0.48 0.53 0.72 0.78 0.80 0.76 0.79 1.00 1.09 0.95 0.72 0.71 0.78 0.90 0.98 1.12 1.34 1.48 1.71 1.72 1.52 1.48 1.37 1.23 1.21 1.30 1.43 1.33 1.15 1.04 0.98

GEFSMA_prec_meanprecacc_222.txt.gz
Total_Precipitation_Accumulation
1.26 1.13 1.08 1.27 1.25 1.28 1.32 1.40 1.42 1.31 1.20 1.08 1.04 0.96 0.99 0.92 0.88 0.85 1.08 1.23 1.49 1.95 2.18 2.15 2.09 1.85 1.73 1.66 1.70 1.73 1.76 1.75 1.96 2.37 3.03 3.33 3.01 2.38 2.01 1.79 1.61 1.40 1.42
1.15 1.14 1.01 1.08 1.18 1.32 1.52 1.60 1.46 1.40 1.33 1.28 1.26 1.18 1.13 1.04 0.97 0.86 1.01 1.09 1.04 1.25 1.67 2.17 2.42 2.20 2.01 1.86 1.76 1.78 1.78 1.73 1.83 2.08 2.22 2.42 2.50 2.16 1.75 1.69 1.59 1.41 1.54
0.99 1.10 1.10 1.09 1.12 1.32 1.57 1.75 1.63 1.52 1.36 1.36 1.34 1.32 1.21 1.18 1.08 0.98 1.08 1.21 1.04 0.99 1.31 1.86 2.35 2.46 2.30 2.16 1.96 1.90 1.78 1.67 1.69 1.81 1.95 1.95 2.05 1.99 1.69 1.56 1.51 1.44 1.45
0.99 1.12 1.18 1.14 1.13 1.32 1.57 1.80 1.87 1.84 1.73 1.63 1.53 1.44 1.37 1.46 1.30 1.17 1.19 1.28 1.38 1.23 1.22 1.43 1.82 2.19 2.34 2.37 2.11 1.86 1.70 1.58 1.55 1.58 1.69 1.58 1.65 1.73 1.56 1.42 1.48 1.56 1.55
1.03 1.15 1.33 1.36 1.35 1.46 1.57 1.62 1.75 1.76 1.80 1.79 1.60 1.55 1.47 1.57 1.59 1.45 1.50 1.52 1.56 1.53 1.38 1.21 1.33 1.51 1.92 2.24 2.24 2.03 1.86 1.67 1.55 1.48 1.57 1.44 1.41 1.48 1.35 1.33 1.43 1.55 1.55
1.25 1.21 1.35 1.36 1.41 1.60 1.67 1.79 2.00 1.93 1.82 1.91 1.73 1.63 1.59 1.58 1.56 1.66 1.75 1.71 1.66 1.55 1.54 1.35 1.39 1.29 1.51 1.86 2.00 2.02 1.92 1.90 1.84 1.68 1.65 1.49 1.31 1.32 1.33 1.29 1.33 1.42 1.50
1.36 1.37 1.38 1.40 1.44 1.53 1.60 1.79 2.15 2.17 1.98 1.87 2.06 2.04 1.94 1.74 1.65 1.68 1.71 1.81 1.81 1.65 1.63 1.65 1.53 1.36 1.25 1.37 1.47 1.68 1.77 2.02 2.12 1.98 1.85 1.63 1.36 1.34 1.41 1.26 1.31 1.36 1.33
1.33 1.25 1.41 1.51 1.48 1.62 1.70 1.88 2.17 2.38 2.14 1.95 2.29 2.75 2.52 2.22 1.88 1.66 1.64 1.57 1.69 1.70 1.58 1.45 1.38 1.31 1.21 1.23 1.04 1.19 1.46 1.93 2.34 2.22 1.93 1.78 1.57 1.47 1.50 1.36 1.34 1.34 1.31
1.58 1.51 1.59 1.72 1.64 1.69 1.80 1.85 1.94 2.37 2.51 2.26 2.22 2.80 2.69 2.48 2.43 1.91 1.52 1.37 1.55 1.67 1.67 1.53 1.42 1.43 1.37 1.32 1.13 0.96 1.13 1.51 2.09 2.21 2.02 1.98 1.87 1.71 1.57 1.45 1.38 1.36 1.43
1.79 1.67 1.68 1.74 1.74 1.81 1.79 1.67 1.83 2.25 2.71 2.73 2.50 2.31 2.19 2.18 2.37 2.24 1.67 1.40 1.47 1.58 1.73 1.60 1.53 1.55 1.53 1.53 1.45 1.16 0.98 1.11 1.61 2.16 2.33 2.32 2.23 2.01 1.81 1.66 1.52 1.49 1.50
1.80 1.65 1.59 1.67 1.73 1.81 1.81 1.87 2.06 2.35 2.63 2.88 2.84 2.58 2.28 2.05 1.71 1.90 1.89 1.68 1.45 1.37 1.43 1.51 1.61 1.61 1.57 1.54 1.61 1.45 1.09 0.92 1.17 1.72 2.21 2.38 2.32 2.25 2.15 2.08 2.02 2.00 1.85
1.65 1.58 1.55 1.54 1.51 1.58 1.68 1.88 2.14 2.28 2.46 2.69 2.75 2.48 2.29 2.17 1.97 1.82 1.68 1.74 1.72 1.44 1.31 1.28 1.37 1.50 1.50 1.50 1.36 1.44 1.22 0.94 0.90 1.08 1.42 1.86 2.06 2.19 2.25 2.28 2.24 2.16 2.12
1.43 1.44 1.45 1.41 1.32 1.31 1.43 1.64 1.90 1.96 2.07 2.30 2.39 2.28 2.14 1.97 1.93 1.97 1.92 1.83 1.70 1.44 1.31 1.14 1.19 1.32 1.32 1.38 1.43 1.44 1.21 1.07 0.89 0.85 0.90 1.07 1.39 1.77 2.10 2.31 2.38 2.35 2.31
1.25 1.17 1.19 1.22 1.20 1.19 1.23 1.37 1.53 1.57 1.66 1.88 1.94 1.99 1.89 1.83 1.86 1.85 1.88 2.01 1.88 1.64 1.31 1.01 1.03 1.17 1.13 1.17 1.37 1.40 1.05 1.01 0.90 0.82 0.77 0.78 0.85 1.12 1.52 1.78 2.01 2.22 2.27
1.02 0.98 1.03 1.14 1.20 1.14 1.10 1.20 1.34 1.36 1.47 1.64 1.77 1.89 1.82 1.76 1.77 1.81 1.88 1.95 1.96 1.82 1.55 1.14 0.99 0.94 0.97 1.05 1.34 1.18 1.03 1.02 0.91 0.84 0.75 0.67 0.64 0.66 0.82 1.02 1.28 1.51 1.65
0.94 0.94 0.96 0.96 0.99 0.99 1.03 1.17 1.32 1.39 1.42 1.49 1.58 1.69 1.80 1.83 1.85 1.84 1.89 1.90 1.86 1.83 1.71 1.31 1.06 0.90 0.96 0.93 1.15 0.96 1.06 1.23 1.01 0.83 0.74 0.68 0.64 0.63 0.62 0.71 0.79 0.85 0.89
0.74 0.75 0.71 0.75 0.88 0.89 0.89 1.04 1.12 1.14 1.27 1.36 1.37 1.41 1.57 1.70 1.81 1.84 1.83 1.82 1.87 1.82 1.70 1.47 1.15 0.97 1.05 1.07 1.13 0.99 0.98 1.03 0.94 0.90 0.81 0.72 0.64 0.62 0.59 0.62 0.63 0.59 0.61
0.50 0.55 0.59 0.58 0.77 0.94 0.97 1.00 1.01 0.99 1.10 1.20 1.23 1.30 1.36 1.37 1.46 1.60 1.71 1.69 1.78 1.82 1.78 1.67 1.38 1.14 1.12 1.19 1.33 1.33 1.22 1.15 1.11 1.20 1.14 0.95 0.79 0.71 0.67 0.64 0.62 0.58 0.54
0.41 0.44 0.55 0.55 0.61 0.77 0.88 0.89 0.88 0.91 0.97 1.03 1.07 1.13 1.16 1.23 1.34 1.36 1.43 1.52 1.61 1.66 1.75 1.69 1.59 1.46 1.30 1.24 1.30 1.29 1.35 1.49 1.44 1.42 1.45 1.27 1.04 0.89 0.79 0.75 0.70 0.64 0.59
0.45 0.41 0.40 0.43 0.51 0.60 0.72 0.75 0.76 0.79 0.82 0.83 0.94 1.02 1.07 1.10 1.20 1.27 1.28 1.40 1.52 1.61 1.63 1.60 1.54 1.47 1.41 1.39 1.39 1.36 1.42 1.56 1.64 1.53 1.49 1.40 1.31 1.18 1.02 0.90 0.79 0.72 0.68
0.28 0.29 0.26 0.28 0.33 0.42 0.48 0.51 0.59 0.66 0.73 0.76 0.87 0.89 0.92 0.87 0.91 0.98 0.98 1.15 1.31 1.50 1.57 1.60 1.50 1.39 1.34 1.36 1.35 1.36 1.43 1.59 1.62 1.67 1.68 1.54 1.40 1.22 1.10 1.01 0.89 0.82 0.77
0.15 0.19 0.20 0.23 0.27 0.28 0.36 0.36 0.39 0.52 0.63 0.69 0.75 0.78 0.84 0.86 0.81 0.77 0.76 0.84 0.97 1.10 1.28 1.41 1.44 1.37 1.30 1.27 1.36 1.47 1.48 1.57 1.66 1.60 1.52 1.60 1.53 1.41 1.24 1.05 1.05 1.03 0.92
0.13 0.14 0.17 0.22 0.24 0.21 0.23 0.22 0.33 0.54 0.58 0.59 0.58 0.71 0.82 0.87 0.89 0.92 0.80 0.79 0.80 0.84 0.93 1.11 1.24 1.25 1.23 1.25 1.32 1.41 1.49 1.53 1.45 1.49 1.45 1.54 1.54 1.43 1.26 1.19 1.24 1.10 1.02
0.12 0.16 0.18 0.23 0.21 0.15 0.16 0.19 0.27 0.43 0.51 0.49 0.51 0.62 0.77 0.87 0.90 0.92 0.88 0.95 0.92 0.81 0.78 0.85 1.04 1.12 1.12 1.25 1.39 1.50 1.61 1.60 1.54 1.53 1.46 1.48 1.43 1.30 1.19 1.18 1.26 1.13 1.03
0.12 0.15 0.20 0.20 0.17 0.13 0.13 0.18 0.26 0.42 0.49 0.49 0.47 0.55 0.71 0.80 0.89 0.90 0.88 0.99 0.99 0.81 0.73 0.83 0.88 0.94 1.02 1.15 1.34 1.49 1.58 1.60 1.57 1.54 1.39 1.26 1.20 1.25 1.25 1.18 1.16 1.15 1.03
0.13 0.14 0.17 0.17 0.16 0.17 0.16 0.15 0.22 0.32 0.40 0.48 0.48 0.53 0.72 0.79 0.82 0.78 0.81 1.02 1.10 0.96 0.72 0.71 0.78 0.91 0.99 1.12 1.35 1.49 1.72 1.73 1.54 1.49 1.38 1.25 1.23 1.32 1.45 1.34 1.15 1.05 0.98

GEFSMA_prec_meanprecacc_228.txt.gz
Total_Precipitation_Accumulation
1.27 1.15 1.10 1.29 1.28 1.34 1.37 1.43 1.44 1.33 1.22 1.11 1.10 1.04 1.07 0.99 0.92 0.89 1.13 1.28 1.52 1.99 2.22 2.19 2.13 1.90 1.77 1.71 1.75 1.78 1.80 1.79 2.01 2.42 3.06 3.36 3.04 2.41 2.04 1.81 1.63 1.42 1.44
1.16 1.16 1.04 1.10 1.21 1.38 1.57 1.63 1.47 1.41 1.35 1.29 1.29 1.22 1.17 1.07 0.99 0.89 1.05 1.12 1.06 1.27 1.71 2.21 2.47 2.27 2.07 1.92 1.82 1.84 1.84 1.78 1.88 2.11 2.24 2.44 2.52 2.19 1.78 1.72 1.62 1.44 1.56
1.00 1.11 1.12 1.11 1.14 1.37 1.61 1.78 1.65 1.54 1.38 1.37 1.36 1.35 1.24 1.21 1.10 1.00 1.10 1.23 1.07 1.03 1.35 1.91 2.41 2.53 2.37 2.22 2.02 1.96 1.83 1.72 1.73 1.83 1.96 1.96 2.09 2.04 1.73 1.60 1.54 1.47 1.48
1.01 1.13 1.20 1.15 1.15 1.34 1.59 1.83 1.88 1.86 1.75 1.66 1.56 1.46 1.39 1.49 1.33 1.19 1.21 1.30 1.40 1.26 1.26 1.48 1.88 2.26 2.43 2.43 2.17 1.91 1.74 1.60 1.58 1.60 1.71 1.60 1.71 1.82 1.63 1.47 1.51 1.61 1.58
1.04 1.17 1.35 1.38 1.36 1.47 1.58 1.64 1.76 1.78 1.83 1.82 1.63 1.57 1.50 1.60 1.65 1.49 1.54 1.56 1.59 1.57 1.43 1.24 1.36 1.55 2.00 2.31 2.31 2.09 1.90 1.72 1.60 1.52 1.60 1.47 1.45 1.56 1.42 1.38 1.45 1.63 1.63
1.26 1.23 1.37 1.39 1.43 1.62 1.69 1.81 2.02 1.95 1.84 1.93 1.75 1.64 1.61 1.59 1.60 1.72 1.82 1.77 1.69 1.59 1.58 1.38 1.42 1.32 1.58 1.94 2.07 2.09 1.98 1.95 1.88 1.71 1.68 1.52 1.35 1.37 1.38 1.33 1.38 1.49 1.61
1.38 1.40 1.42 1.43 1.45 1.55 1.62 1.80 2.16 2.19 1.99 1.88 2.08 2.06 1.97 1.76 1.68 1.71 1.76 1.89 1.87 1.69 1.67 1.68 1.57 1.40 1.30 1.44 1.56 1.76 1.84 2.07 2.18 2.04 1.89 1.67 1.40 1.38 1.46 1.33 1.37 1.41 1.40
1.35 1.28 1.44 1.53 1.49 1.63 1.71 1.89 2.18 2.39 2.16 1.97 2.32 2.78 2.55 2.25 1.91 1.68 1.66 1.61 1.75 1.75 1.62 1.49 1.41 1.35 1.26 1.30 1.11 1.26 1.51 1.99 2.42 2.29 1.99 1.82 1.61 1.51 1.56 1.40 1.37 1.38 1.35
1.59 1.53 1.61 1.73 1.65 1.71 1.81 1.86 1.96 2.40 2.53 2.28 2.24 2.83 2.72 2.52 2.46 1.93 1.53 1.39 1.58 1.70 1.70 1.56 1.45 1.47 1.42 1.40 1.19 1.02 1.19 1.56 2.16 2.29 2.08 2.03 1.92 1.74 1.60 1.48 1.40 1.39 1.46
1.79 1.68 1.69 1.74 1.75 1.82 1.80 1.68 1.85 2.29 2.74 2.77 2.53 2.33 2.21 2.20 2.40 2.26 1.69 1.41 1.48 1.59 1.74 1.61 1.56 1.57 1.56 1.61 1.51 1.22 1.03 1.16 1.67 2.24 2.41 2.38 2.27 2.03 1.83 1.69 1.55 1.51 1.52
1.80 1.65 1.59 1.68 1.74 1.82 1.81 1.88 2.07 2.37 2.65 2.91 2.87 2.61 2.30 2.07 1.72 1.91 1.90 1.69 1.46 1.38 1.44 1.51 1.62 1.62 1.59 1.58 1.66 1.48 1.12 0.94 1.19 1.75 2.25 2.42 2.36 2.27 2.17 2.10 2.04 2.03 1.88
1.66 1.59 1.55 1.55 1.52 1.59 1.69 1.89 2.15 2.28 2.47 2.71 2.77 2.50 2.31 2.19 1.99 1.84 1.69 1.75 1.73 1.45 1.31 1.28 1.37 1.51 1.52 1.52 1.38 1.46 1.24 0.96 0.93 1.10 1.44 1.87 2.07 2.21 2.27 2.30 2.27 2.20 2.16
1.44 1.44 1.45 1.41 1.33 1.31 1.43 1.65 1.91 1.96 2.08 2.31 2.41 2.30 2.16 1.99 1.96 1.99 1.93 1.83 1.70 1.44 1.31 1.14 1.19 1.32 1.32 1.39 1.44 1.45 1.23 1.10 0.92 0.87 0.92 1.08 1.39 1.78 2.11 2.33 2.40 2.40 2.36
1.25 1.17 1.19 1.22 1.20 1.20 1.23 1.37 1.53 1.58 1.66 1.88 1.95 2.00 1.90 1.84 1.88 1.87 1.90 2.03 1.89 1.65 1.32 1.01 1.04 1.17 1.14 1.18 1.39 1.41 1.07 1.03 0.93 0.84 0.79 0.79 0.86 1.12 1.53 1.78 2.02 2.24 2.31
1.02 0.98 1.03 1.14 1.20 1.14 1.11 1.21 1.34 1.36 1.48 1.64 1.77 1.90 1.83 1.77 1.78 1.82 1.89 1.96 1.98 1.84 1.56 1.14 0.99 0.94 0.97 1.06 1.35 1.19 1.05 1.05 0.95 0.87 0.78 0.70 0.65 0.68 0.83 1.03 1.29 1.52 1.67
0.94 0.94 0.96 0.96 0.99 0.99 1.03 1.18 1.34 1.40 1.42 1.49 1.58 1.70 1.81 1.83 1.86 1.85 1.90 1.91 1.87 1.84 1.72 1.32 1.06 0.90 0.96 0.94 1.16 0.97 1.07 1.24 1.02 0.85 0.76 0.70 0.66 0.64 0.64 0.73 0.81 0.87 0.90
0.74 0.75 0.71 0.75 0.88 0.89 0.89 1.04 1.13 1.15 1.28 1.37 1.37 1.42 1.58 1.71 1.82 1.85 1.84 1.83 1.88 1.83 1.71 1.48 1.16 0.98 1.06 1.07 1.14 1.00 0.99 1.03 0.95 0.91 0.82 0.73 0.65 0.63 0.60 0.63 0.64 0.61 0.62
0.50 0.55 0.59 0.59 0.77 0.94 0.97 1.00 1.01 1.00 1.10 1.20 1.24 1.31 1.36 1.38 1.48 1.62 1.72 1.71 1.79 1.83 1.80 1.69 1.39 1.15 1.12 1.19 1.34 1.34 1.23 1.15 1.12 1.21 1.15 0.97 0.81 0.73 0.69 0.66 0.63 0.59 0.55
0.41 0.44 0.55 0.55 0.61 0.77 0.88 0.89 0.88 0.91 0.97 1.04 1.07 1.13 1.17 1.24 1.35 1.37 1.44 1.53 1.62 1.68 1.77 1.71 1.60 1.47 1.30 1.24 1.31 1.30 1.36 1.50 1.45 1.43 1.47 1.29 1.06 0.91 0.82 0.77 0.72 0.66 0.60
0.45 0.41 0.40 0.43 0.51 0.61 0.72 0.75 0.76 0.79 0.82 0.83 0.95 1.03 1.08 1.11 1.21 1.28 1.29 1.41 1.53 1.62 1.64 1.61 1.55 1.48 1.42 1.39 1.40 1.37 1.43 1.57 1.64 1.54 1.50 1.42 1.33 1.21 1.05 0.93 0.81 0.75 0.71
0.29 0.29 0.27 0.28 0.33 0.42 0.48 0.51 0.59 0.67 0.73 0.77 0.87 0.90 0.92 0.88 0.92 0.99 0.99 1.16 1.33 1.52 1.58 1.61 1.51 1.40 1.35 1.36 1.35 1.37 1.43 1.60 1.63 1.68 1.68 1.55 1.41 1.24 1.13 1.04 0.92 0.84 0.80
0.15 0.19 0.20 0.24 0.27 0.29 0.36 0.36 0.40 0.53 0.63 0.69 0.76 0.78 0.84 0.86 0.82 0.77 0.77 0.84 0.98 1.11 1.30 1.42 1.46 1.38 1.30 1.28 1.36 1.47 1.49 1.57 1.66 1.60 1.53 1.61 1.54 1.43 1.26 1.07 1.08 1.05 0.94
0.14 0.15 0.17 0.22 0.24 0.21 0.23 0.22 0.34 0.55 0.59 0.59 0.58 0.71 0.82 0.87 0.90 0.92 0.81 0.79 0.81 0.84 0.94 1.12 1.26 1.26 1.24 1.26 1.32 1.42 1.49 1.53 1.45 1.49 1.45 1.54 1.54 1.43 1.27 1.21 1.25 1.12 1.03
0.13 0.17 0.18 0.24 0.22 0.15 0.17 0.20 0.28 0.44 0.52 0.49 0.51 0.62 0.77 0.87 0.90 0.93 0.89 0.96 0.93 0.82 0.79 0.86 1.05 1.13 1.13 1.26 1.39 1.50 1.61 1.60 1.54 1.53 1.47 1.49 1.43 1.30 1.20 1.19 1.28 1.14 1.04
0.12 0.16 0.20 0.21 0.17 0.13 0.14 0.19 0.28 0.43 0.50 0.50 0.47 0.55 0.71 0.80 0.90 0.92 0.90 1.00 1.00 0.82 0.74 0.84 0.89 0.95 1.04 1.17 1.36 1.50 1.59 1.60 1.58 1.54 1.39 1.27 1.21 1.25 1.26 1.19 1.17 1.16 1.04
0.14 0.14 0.18 0.18 0.16 0.18 0.17 0.16 0.23 0.33 0.41 0.49 0.49 0.54 0.73 0.79 0.83 0.80 0.83 1.03 1.12 0.97 0.73 0.72 0.79 0.92 1.00 1.13 1.36 1.50 1.73 1.74 1.54 1.50 1.38 1.26 1.24 1.32 1.46 1.35 1.16 1.06 0.99

GEFSMA_prec_meanprecacc_234.txt.gz
Total_Precipitation_Accumulation
1.30 1.19 1.15 1.33 1.32 1.38 1.40 1.46 1.47 1.34 1.24 1.15 1.16 1.10 1.12 1.03 0.97 0.95 1.19 1.32 1.56 2.04 2.30 2.26 2.18 1.96 1.83 1.76 1.81 1.85 1.87 1.84 2.06 2.48 3.10 3.39 3.06 2.42 2.05 1.83 1.66 1.44 1.46
1.19 1.20 1.08 1.15 1.25 1.42 1.62 1.67 1.50 1.42 1.35 1.31 1.32 1.26 1.22 1.12 1.04 0.93 1.09 1.16 1.09 1.32 1.77 2.28 2.53 2.33 2.14 1.99 1.89 1.92 1.91 1.83 1.93 2.15 2.27 2.45 2.53 2.21 1.80 1.75 1.65 1.47 1.58
1.01 1.13 1.16 1.14 1.18 1.41 1.66 1.82 1.67 1.55 1.40 1.39 1.39 1.37 1.27 1.24 1.14 1.03 1.12 1.27 1.11 1.07 1.40 1.97 2.47 2.60 2.45 2.30 2.10 2.04 1.89 1.75 1.75 1.85 1.99 1.98 2.10 2.06 1.75 1.63 1.58 1.51 1.51
1.03 1.14 1.23 1.18 1.19 1.38 1.63 1.85 1.90 1.88 1.78 1.68 1.57 1.48 1.41 1.51 1.36 1.21 1.22 1.32 1.45 1.30 1.29 1.51 1.91 2.31 2.49 2.49 2.24 1.99 1.79 1.64 1.61 1.63 1.74 1.62 1.74 1.85 1.67 1.52 1.57 1.67 1.63
1.07 1.19 1.39 1.40 1.38 1.50 1.61 1.66 1.78 1.80 1.85 1.84 1.64 1.58 1.51 1.62 1.68 1.53 1.58 1.60 1.63 1.61 1.45 1.26 1.37 1.58 2.05 2.37 2.37 2.14 1.95 1.75 1.65 1.55 1.63 1.50 1.49 1.62 1.49 1.45 1.53 1.70 1.69
1.29 1.26 1.41 1.42 1.46 1.65 1.72 1.83 2.03 1.95 1.85 1.94 1.76 1.66 1.62 1.61 1.64 1.76 1.86 1.82 1.75 1.65 1.63 1.41 1.44 1.34 1.62 2.00 2.14 2.16 2.04 2.00 1.92 1.76 1.72 1.56 1.41 1.45 1.47 1.41 1.46 1.55 1.65
1.41 1.43 1.45 1.46 1.50 1.58 1.65 1.83 2.18 2.20 2.00 1.89 2.09 2.09 1.99 1.78 1.70 1.74 1.78 1.92 1.92 1.74 1.72 1.72 1.60 1.44 1.35 1.49 1.63 1.84 1.93 2.15 2.25 2.10 1.95 1.73 1.46 1.45 1.53 1.38 1.41 1.44 1.43
1.37 1.31 1.47 1.56 1.53 1.67 1.76 1.93 2.22 2.42 2.18 1.98 2.34 2.81 2.59 2.29 1.94 1.70 1.68 1.63 1.79 1.80 1.66 1.53 1.46 1.41 1.38 1.40 1.17 1.31 1.57 2.05 2.50 2.36 2.06 1.90 1.67 1.58 1.63 1.45 1.41 1.40 1.38
1.62 1.56 1.65 1.76 1.68 1.73 1.84 1.90 2.01 2.46 2.58 2.31 2.27 2.86 2.76 2.56 2.51 1.97 1.55 1.41 1.60 1.74 1.74 1.60 1.50 1.54 1.56 1.54 1.27 1.06 1.23 1.63 2.28 2.39 2.17 2.11 1.97 1.78 1.64 1.51 1.43 1.41 1.48
1.84 1.72 1.73 1.78 1.78 1.84 1.82 1.69 1.87 2.33 2.80 2.82 2.58 2.37 2.23 2.23 2.43 2.30 1.73 1.42 1.49 1.61 1.76 1.64 1.59 1.63 1.67 1.74 1.61 1.27 1.08 1.24 1.81 2.38 2.52 2.45 2.32 2.06 1.86 1.71 1.57 1.53 1.54
1.85 1.69 1.63 1.72 1.77 1.84 1.83 1.90 2.09 2.39 2.68 2.95 2.92 2.64 2.33 2.09 1.75 1.94 1.93 1.72 1.47 1.38 1.45 1.53 1.64 1.65 1.67 1.68 1.73 1.53 1.16 0.99 1.26 1.85 2.34 2.48 2.40 2.30 2.20 2.12 2.07 2.05 1.90
1.69 1.62 1.58 1.58 1.55 1.61 1.71 1.91 2.16 2.30 2.49 2.74 2.82 2.54 2.35 2.21 2.01 1.87 1.71 1.77 1.75 1.46 1.31 1.29 1.38 1.52 1.55 1.58 1.45 1.52 1.28 0.99 0.95 1.14 1.47 1.90 2.10 2.23 2.28 2.32 2.29 2.23 2.19
1.46 1.45 1.46 1.43 1.34 1.32 1.44 1.66 1.92 1.98 2.09 2.33 2.44 2.34 2.20 2.03 1.98 2.02 1.96 1.86 1.71 1.45 1.31 1.14 1.19 1.33 1.33 1.41 1.47 1.49 1.26 1.13 0.95 0.90 0.93 1.10 1.41 1.79 2.12 2.34 2.42 2.43 2.39
1.25 1.17 1.20 1.23 1.21 1.21 1.24 1.38 1.55 1.60 1.68 1.90 1.97 2.04 1.95 1.88 1.92 1.90 1.92 2.06 1.91 1.67 1.33 1.02 1.04 1.17 1.14 1.19 1.40 1.42 1.08 1.04 0.94 0.85 0.80 0.80 0.87 1.13 1.53 1.79 2.03 2.25 2.33
1.02 0.98 1.04 1.14 1.20 1.15 1.12 1.21 1.35 1.38 1.50 1.66 1.79 1.93 1.86 1.81 1.81 1.85 1.91 1.99 2.02 1.88 1.59 1.15 1.00 0.94 0.97 1.06 1.35 1.19 1.05 1.06 0.95 0.87 0.78 0.71 0.67 0.69 0.85 1.04 1.29 1.52 1.67
0.95 0.95 0.96 0.96 0.99 0.99 1.04 1.20 1.36 1.43 1.44 1.51 1.60 1.72 1.84 1.86 1.87 1.87 1.92 1.94 1.91 1.88 1.75 1.34 1.07 0.90 0.96 0.94 1.16 0.97 1.07 1.24 1.02 0.85 0.77 0.72 0.68 0.66 0.66 0.74 0.81 0.87 0.91
0.74 0.75 0.71 0.75 0.88 0.90 0.90 1.05 1.15 1.17 1.29 1.39 1.38 1.43 1.59 1.72 1.84 1.87 1.86 1.85 1.90 1.85 1.73 1.49 1.16 0.98 1.06 1.07 1.14 1.00 0.99 1.03 0.95 0.91 0.83 0.74 0.67 0.65 0.62 0.64 0.65 0.61 0.63
0.50 0.55 0.59 0.59 0.78 0.94 0.97 1.00 1.01 1.00 1.11 1.21 1.25 1.32 1.38 1.39 1.51 1.64 1.74 1.73 1.80 1.85 1.81 1.70 1.41 1.17 1.14 1.20 1.34 1.34 1.23 1.15 1.12 1.21 1.16 0.97 0.82 0.74 0.70 0.67 0.64 0.59 0.56
0.41 0.44 0.56 0.56 0.62 0.78 0.89 0.90 0.89 0.92 0.97 1.04 1.08 1.14 1.17 1.25 1.37 1.39 1.46 1.56 1.64 1.70 1.79 1.73 1.63 1.50 1.32 1.25 1.31 1.30 1.36 1.50 1.45 1.43 1.47 1.29 1.07 0.91 0.83 0.78 0.72 0.66 0.61
0.46 0.42 0.41 0.44 0.51 0.61 0.73 0.76 0.77 0.80 0.83 0.84 0.95 1.03 1.09 1.12 1.22 1.30 1.31 1.43 1.55 1.64 1.67 1.64 1.57 1.50 1.44 1.40 1.40 1.37 1.43 1.57 1.64 1.54 1.50 1.42 1.33 1.21 1.05 0.93 0.82 0.75 0.71
0.29 0.30 0.27 0.29 0.34 0.42 0.49 0.51 0.60 0.67 0.73 0.77 0.87 0.90 0.93 0.89 0.93 1.00 1.00 1.18 1.35 1.53 1.60 1.63 1.53 1.41 1.36 1.37 1.36 1.37 1.43 1.60 1.63 1.68 1.68 1.55 1.41 1.24 1.13 1.04 0.92 0.85 0.80
0.16 0.19 0.21 0.24 0.27 0.29 0.37 0.37 0.41 0.54 0.64 0.69 0.76 0.78 0.85 0.87 0.82 0.78 0.77 0.86 1.00 1.13 1.31 1.44 1.48 1.39 1.31 1.29 1.37 1.48 1.49 1.57 1.67 1.60 1.53 1.61 1.54 1.43 1.26 1.07 1.08 1.06 0.95
0.14 0.15 0.17 0.22 0.24 0.22 0.25 0.24 0.35 0.56 0.60 0.60 0.59 0.71 0.83 0.88 0.90 0.92 0.81 0.80 0.81 0.85 0.95 1.13 1.27 1.28 1.26 1.27 1.34 1.43 1.49 1.54 1.45 1.49 1.45 1.54 1.54 1.43 1.27 1.21 1.26 1.12 1.04
0.13 0.17 0.18 0.24 0.22 0.16 0.19 0.22 0.30 0.45 0.52 0.50 0.51 0.63 0.78 0.88 0.91 0.94 0.90 0.97 0.93 0.82 0.79 0.86 1.05 1.14 1.15 1.28 1.41 1.52 1.63 1.61 1.55 1.54 1.47 1.49 1.43 1.30 1.20 1.19 1.28 1.15 1.04
0.12 0.16 0.20 0.22 0.19 0.14 0.15 0.21 0.30 0.44 0.51 0.51 0.48 0.56 0.72 0.81 0.92 0.95 0.92 1.02 1.02 0.83 0.75 0.84 0.90 0.96 1.05 1.19 1.38 1.52 1.61 1.62 1.59 1.55 1.40 1.27 1.21 1.25 1.26 1.19 1.17 1.16 1.04
0.14 0.15 0.18 0.19 0.18 0.19 0.18 0.18 0.25 0.34 0.42 0.50 0.50 0.55 0.75 0.82 0.86 0.83 0.85 1.06 1.14 0.99 0.75 0.74 0.81 0.94 1.01 1.15 1.37 1.52 1.74 1.76 1.56 1.51 1.39 1.26 1.24 1.33 1.46 1.35 1.16 1.06 0.99

GEFSMA_prec_meanprecacc_240.txt.gz
Total_Precipitation_Accumulation
1.31 1.21 1.19 1.35 1.33 1.39 1.42 1.47 1.49 1.35 1.24 1.16 1.17 1.13 1.15 1.07 1.01 1.00 1.25 1.39 1.62 2.10 2.37 2.33 2.24 2.01 1.89 1.83 1.87 1.91 1.92 1.89 2.11 2.53 3.13 3.41 3.08 2.44 2.07 1.85 1.68 1.47 1.49
1.20 1.21 1.12 1.19 1.27 1.43 1.63 1.68 1.51 1.42 1.36 1.32 1.33 1.28 1.24 1.15 1.09 0.98 1.14 1.22 1.15 1.37 1.84 2.36 2.59 2.39 2.20 2.05 1.96 1.99 1.97 1.89 1.98 2.19 2.30 2.48 2.55 2.22 1.81 1.77 1.68 1.50 1.62
1.02 1.14 1.19 1.17 1.20 1.43 1.67 1.83 1.68 1.55 1.40 1.40 1.40 1.38 1.28 1.26 1.17 1.06 1.15 1.30 1.15 1.11 1.45 2.02 2.53 2.66 2.52 2.36 2.16 2.11 1.95 1.79 1.79 1.90 2.03 2.02 2.14 2.09 1.78 1.67 1.62 1.55 1.57
1.04 1.16 1.24 1.20 1.21 1.40 1.65 1.87 1.91 1.88 1.78 1.69 1.59 1.50 1.43 1.52 1.37 1.24 1.25 1.35 1.48 1.33 1.31 1.53 1.94 2.36 2.56 2.56 2.30 2.05 1.85 1.69 1.65 1.67 1.78 1.66 1.78 1.90 1.72 1.58 1.63 1.73 1.71
1.08 1.20 1.40 1.43 1.41 1.53 1.64 1.68 1.80 1.81 1.86 1.85 1.65 1.60 1.52 1.63 1.69 1.56 1.60 1.61 1.65 1.63 1.46 1.26 1.39 1.63 2.11 2.44 2.42 2.20 2.01 1.81 1.70 1.60 1.68 1.55 1.55 1.68 1.55 1.52 1.61 1.77 1.76
1.31 1.27 1.42 1.45 1.48 1.68 1.75 1.85 2.05 1.98 1.87 1.95 1.77 1.67 1.63 1.63 1.65 1.77 1.87 1.83 1.77 1.67 1.64 1.42 1.46 1.40 1.68 2.06 2.20 2.23 2.10 2.07 2.00 1.83 1.80 1.63 1.47 1.52 1.53 1.47 1.54 1.64 1.73
1.42 1.44 1.46 1.48 1.51 1.61 1.69 1.87 2.22 2.23 2.02 1.90 2.10 2.10 2.00 1.79 1.71 1.75 1.79 1.94 1.95 1.77 1.74 1.73 1.63 1.52 1.41 1.54 1.69 1.92 2.01 2.24 2.34 2.18 2.02 1.79 1.51 1.50 1.59 1.46 1.51 1.54 1.52
1.38 1.32 1.48 1.58 1.55 1.69 1.77 1.96 2.26 2.48 2.23 2.02 2.36 2.82 2.59 2.30 1.95 1.71 1.68 1.64 1.80 1.81 1.68 1.56 1.50 1.50 1.45 1.44 1.20 1.35 1.63 2.12 2.57 2.44 2.13 1.95 1.73 1.63 1.69 1.52 1.48 1.47 1.44
1.63 1.58 1.66 1.78 1.70 1.75 1.86 1.92 2.03 2.51 2.65 2.39 2.33 2.89 2.77 2.57 2.52 1.98 1.56 1.41 1.61 1.75 1.75 1.64 1.55 1.61 1.61 1.58 1.32 1.09 1.26 1.67 2.35 2.46 2.23 2.16 2.03 1.84 1.69 1.56 1.47 1.45 1.53
1.84 1.72 1.75 1.79 1.80 1.87 1.84 1.71 1.88 2.34 2.82 2.87 2.65 2.44 2.27 2.24 2.44 2.32 1.74 1.42 1.49 1.62 1.78 1.66 1.62 1.70 1.74 1.80 1.71 1.35 1.13 1.29 1.91 2.49 2.61 2.52 2.38 2.12 1.91 1.76 1.61 1.56 1.57
1.86 1.70 1.65 1.74 1.79 1.87 1.86 1.92 2.10 2.40 2.69 2.97 2.95 2.69 2.37 2.13 1.77 1.96 1.94 1.72 1.47 1.38 1.45 1.54 1.65 1.69 1.72 1.72 1.77 1.59 1.22 1.04 1.33 1.97 2.48 2.58 2.46 2.36 2.24 2.16 2.11 2.10 1.95
1.71 1.63 1.60 1.60 1.57 1.65 1.74 1.93 2.17 2.31 2.50 2.75 2.83 2.56 2.38 2.25 2.04 1.89 1.73 1.78 1.75 1.46 1.31 1.29 1.39 1.53 1.57 1.62 1.49 1.56 1.32 1.03 1.00 1.20 1.54 1.96 2.13 2.27 2.32 2.36 2.33 2.28 2.24
1.49 1.47 1.47 1.45 1.36 1.35 1.47 1.67 1.94 1.99 2.10 2.33 2.45 2.35 2.22 2.06 2.01 2.04 1.98 1.87 1.72 1.45 1.32 1.15 1.20 1.33 1.33 1.42 1.51 1.52 1.28 1.15 0.98 0.94 0.99 1.15 1.44 1.81 2.14 2.35 2.44 2.46 2.43
1.27 1.19 1.21 1.25 1.23 1.24 1.27 1.40 1.57 1.61 1.68 1.90 1.98 2.04 1.96 1.90 1.94 1.92 1.95 2.09 1.93 1.68 1.33 1.02 1.04 1.17 1.14 1.20 1.41 1.45 1.10 1.05 0.95 0.87 0.84 0.84 0.90 1.16 1.55 1.80 2.04 2.26 2.35
1.03 0.99 1.05 1.17 1.22 1.18 1.15 1.23 1.36 1.38 1.50 1.67 1.79 1.94 1.87 1.82 1.83 1.86 1.93 2.02 2.05 1.90 1.60 1.17 1.00 0.94 0.97 1.06 1.35 1.20 1.06 1.07 0.96 0.88 0.79 0.72 0.68 0.70 0.86 1.05 1.30 1.53 1.68
0.95 0.95 0.97 0.98 1.01 1.02 1.06 1.21 1.37 1.44 1.45 1.52 1.61 1.73 1.85 1.87 1.89 1.89 1.94 1.96 1.93 1.90 1.77 1.36 1.09 0.91 0.97 0.94 1.16 0.97 1.07 1.25 1.02 0.85 0.77 0.72 0.68 0.66 0.66 0.74 0.82 0.88 0.92
0.75 0.75 0.72 0.77 0.90 0.91 0.91 1.06 1.16 1.18 1.31 1.40 1.40 1.44 1.60 1.73 1.86 1.89 1.88 1.87 1.92 1.87 1.74 1.50 1.18 1.00 1.07 1.08 1.14 1.00 0.99 1.03 0.95 0.91 0.83 0.74 0.67 0.65 0.62 0.65 0.65 0.62 0.63
0.51 0.56 0.60 0.60 0.78 0.95 0.98 1.02 1.02 1.02 1.13 1.23 1.26 1.32 1.38 1.40 1.52 1.66 1.76 1.74 1.82 1.87 1.83 1.72 1.43 1.18 1.16 1.22 1.37 1.35 1.24 1.15 1.12 1.21 1.16 0.97 0.82 0.74 0.71 0.68 0.65 0.60 0.56
0.42 0.46 0.57 0.57 0.63 0.78 0.90 0.91 0.90 0.93 0.98 1.05 1.09 1.15 1.18 1.25 1.38 1.41 1.48 1.57 1.65 1.71 1.81 1.76 1.66 1.53 1.35 1.28 1.33 1.31 1.37 1.50 1.45 1.43 1.47 1.29 1.07 0.92 0.83 0.78 0.73 0.67 0.62
0.47 0.44 0.43 0.46 0.53 0.63 0.75 0.76 0.77 0.80 0.83 0.85 0.97 1.05 1.10 1.14 1.24 1.31 1.32 1.44 1.57 1.66 1.69 1.67 1.60 1.52 1.46 1.42 1.41 1.38 1.43 1.57 1.65 1.54 1.50 1.42 1.33 1.21 1.05 0.94 0.82 0.76 0.72
0.30 0.32 0.29 0.31 0.36 0.45 0.51 0.53 0.60 0.68 0.74 0.78 0.88 0.91 0.94 0.90 0.94 1.01 1.01 1.20 1.37 1.55 1.62 1.65 1.55 1.43 1.37 1.39 1.37 1.37 1.44 1.60 1.63 1.68 1.69 1.56 1.42 1.24 1.13 1.04 0.92 0.85 0.81
0.17 0.20 0.22 0.25 0.30 0.32 0.39 0.39 0.42 0.55 0.65 0.71 0.77 0.79 0.86 0.88 0.84 0.79 0.79 0.87 1.01 1.15 1.34 1.47 1.49 1.41 1.33 1.31 1.40 1.49 1.49 1.58 1.67 1.60 1.53 1.61 1.54 1.43 1.26 1.07 1.08 1.06 0.95
0.14 0.15 0.17 0.23 0.25 0.22 0.26 0.25 0.37 0.57 0.60 0.60 0.59 0.72 0.83 0.89 0.92 0.94 0.83 0.82 0.83 0.86 0.97 1.15 1.29 1.29 1.27 1.28 1.37 1.45 1.50 1.55 1.46 1.50 1.45 1.54 1.54 1.43 1.27 1.21 1.26 1.12 1.04
0.13 0.18 0.19 0.25 0.23 0.16 0.19 0.23 0.31 0.46 0.52 0.50 0.52 0.63 0.79 0.90 0.94 0.96 0.92 0.98 0.95 0.84 0.81 0.88 1.07 1.15 1.16 1.30 1.44 1.57 1.65 1.62 1.56 1.54 1.47 1.49 1.43 1.30 1.20 1.19 1.28 1.15 1.04
0.13 0.17 0.21 0.22 0.19 0.15 0.16 0.22 0.31 0.45 0.52 0.52 0.49 0.57 0.73 0.82 0.93 0.96 0.93 1.03 1.03 0.85 0.77 0.87 0.92 0.98 1.07 1.21 1.40 1.56 1.65 1.64 1.60 1.56 1.40 1.27 1.21 1.26 1.26 1.19 1.17 1.16 1.04
0.15 0.16 0.19 0.19 0.18 0.19 0.19 0.19 0.26 0.34 0.43 0.50 0.51 0.56 0.75 0.83 0.87 0.84 0.86 1.06 1.15 1.01 0.76 0.75 0.83 0.95 1.04 1.16 1.39 1.54 1.78 1.80 1.59 1.52 1.40 1.26 1.24 1.33 1.46 1.36 1.17 1.06 1.00

GEFSMA_prec_meanprecacc_246.txt.gz
Total_Precipitation_Accumulation
1.32 1.22 1.20 1.37 1.34 1.43 1.46 1.50 1.51 1.37 1.26 1.17 1.19 1.16 1.20 1.11 1.06 1.06 1.33 1.52 1.77 2.27 2.52 2.45 2.35 2.11 2.00 1.95 1.99 2.01 1.99 1.93 2.16 2.57 3.17 3.45 3.12 2.47 2.10 1.88 1.71 1.51 1.54
1.21 1.23 1.14 1.21 1.30 1.47 1.68 1.72 1.54 1.45 1.37 1.33 1.35 1.31 1.28 1.21 1.16 1.05 1.22 1.32 1.27 1.51 1.98 2.50 2.72 2.49 2.30 2.16 2.08 2.10 2.05 1.95 2.05 2.25 2.36 2.53 2.60 2.26 1.84 1.79 1.71 1.54 1.67
1.03 1.15 1.21 1.19 1.23 1.47 1.73 1.87 1.71 1.57 1.42 1.42 1.42 1.41 1.32 1.31 1.24 1.14 1.24 1.41 1.27 1.23 1.57 2.14 2.66 2.78 2.63 2.46 2.25 2.18 2.01 1.85 1.84 1.94 2.07 2.06 2.19 2.14 1.82 1.71 1.67 1.60 1.62
1.04 1.16 1.25 1.21 1.22 1.42 1.68 1.90 1.94 1.91 1.82 1.73 1.62 1.54 1.46 1.57 1.43 1.31 1.34 1.45 1.57 1.42 1.40 1.61 2.02 2.47 2.69 2.67 2.40 2.13 1.92 1.76 1.71 1.72 1.81 1.70 1.82 1.96 1.78 1.64 1.70 1.81 1.77
1.08 1.20 1.41 1.44 1.42 1.54 1.66 1.71 1.85 1.87 1.92 1.90 1.68 1.63 1.55 1.66 1.73 1.63 1.69 1.70 1.74 1.69 1.52 1.33 1.46 1.70 2.22 2.56 2.52 2.28 2.09 1.87 1.74 1.64 1.73 1.60 1.61 1.75 1.63 1.58 1.69 1.84 1.83
1.31 1.28 1.43 1.46 1.49 1.68 1.76 1.86 2.08 2.03 1.93 2.02 1.82 1.70 1.66 1.65 1.68 1.84 1.96 1.90 1.83 1.71 1.68 1.48 1.52 1.46 1.77 2.15 2.30 2.30 2.17 2.12 2.05 1.89 1.87 1.71 1.54 1.59 1.60 1.53 1.61 1.72 1.82
1.43 1.45 1.47 1.49 1.52 1.61 1.69 1.88 2.22 2.24 2.06 1.95 2.15 2.14 2.04 1.83 1.74 1.78 1.84 1.97 1.98 1.81 1.79 1.78 1.67 1.55 1.45 1.60 1.76 2.02 2.11 2.32 2.42 2.26 2.09 1.85 1.56 1.55 1.64 1.52 1.58 1.63 1.64
1.39 1.34 1.50 1.59 1.56 1.69 1.78 1.96 2.27 2.49 2.25 2.06 2.41 2.87 2.63 2.33 1.98 1.73 1.71 1.66 1.83 1.84 1.72 1.60 1.55 1.53 1.47 1.46 1.26 1.43 1.74 2.24 2.67 2.51 2.17 2.00 1.77 1.68 1.75 1.60 1.57 1.56 1.54
1.63 1.59 1.68 1.79 1.71 1.76 1.87 1.93 2.03 2.51 2.66 2.40 2.35 2.93 2.81 2.60 2.55 2.01 1.57 1.42 1.62 1.76 1.77 1.66 1.59 1.65 1.65 1.61 1.34 1.12 1.31 1.73 2.40 2.51 2.27 2.21 2.09 1.90 1.76 1.63 1.56 1.54 1.60
1.84 1.73 1.76 1.81 1.81 1.87 1.85 1.72 1.89 2.35 2.83 2.88 2.66 2.45 2.30 2.27 2.46 2.34 1.76 1.43 1.49 1.62 1.78 1.67 1.63 1.73 1.77 1.84 1.76 1.39 1.17 1.32 1.94 2.53 2.65 2.57 2.44 2.20 2.01 1.85 1.70 1.64 1.63
1.86 1.70 1.65 1.76 1.81 1.88 1.88 1.94 2.11 2.41 2.70 2.97 2.95 2.69 2.39 2.17 1.81 1.99 1.97 1.73 1.47 1.39 1.45 1.54 1.66 1.70 1.75 1.74 1.81 1.64 1.27 1.09 1.37 2.01 2.55 2.69 2.58 2.49 2.40 2.27 2.18 2.15 2.00
1.71 1.63 1.60 1.61 1.59 1.66 1.76 1.95 2.19 2.33 2.52 2.75 2.83 2.56 2.38 2.27 2.07 1.92 1.76 1.79 1.75 1.46 1.31 1.29 1.39 1.54 1.59 1.65 1.51 1.59 1.35 1.08 1.06 1.26 1.62 2.12 2.34 2.48 2.49 2.44 2.39 2.32 2.29
1.49 1.48 1.48 1.46 1.38 1.37 1.50 1.71 1.96 2.02 2.12 2.34 2.45 2.36 2.22 2.07 2.02 2.07 2.01 1.89 1.73 1.46 1.32 1.15 1.20 1.33 1.35 1.48 1.56 1.55 1.31 1.18 1.02 0.98 1.04 1.24 1.57 1.94 2.26 2.44 2.49 2.50 2.47
1.29 1.20 1.22 1.26 1.25 1.25 1.30 1.44 1.61 1.64 1.70 1.91 1.98 2.05 1.97 1.91 1.95 1.93 1.97 2.11 1.95 1.69 1.34 1.02 1.04 1.17 1.14 1.21 1.46 1.50 1.15 1.10 0.98 0.92 0.90 0.93 0.99 1.23 1.63 1.87 2.08 2.29 2.37
1.05 1.02 1.07 1.18 1.24 1.20 1.17 1.27 1.41 1.42 1.51 1.67 1.80 1.94 1.88 1.84 1.84 1.87 1.95 2.03 2.07 1.92 1.62 1.18 1.01 0.95 0.97 1.06 1.36 1.24 1.11 1.11 0.99 0.92 0.84 0.78 0.75 0.76 0.91 1.09 1.34 1.56 1.70
0.96 0.98 1.00 1.00 1.03 1.04 1.09 1.25 1.42 1.47 1.46 1.52 1.62 1.73 1.86 1.88 1.90 1.90 1.95 1.97 1.95 1.92 1.79 1.38 1.11 0.93 0.98 0.95 1.17 0.98 1.08 1.26 1.04 0.87 0.79 0.74 0.71 0.69 0.70 0.78 0.84 0.89 0.93
0.75 0.77 0.76 0.80 0.92 0.94 0.94 1.10 1.19 1.20 1.32 1.41 1.41 1.45 1.61 1.74 1.87 1.90 1.90 1.88 1.94 1.90 1.76 1.52 1.20 1.02 1.10 1.10 1.16 1.01 0.99 1.04 0.96 0.92 0.83 0.75 0.68 0.66 0.62 0.66 0.67 0.63 0.64
0.53 0.59 0.65 0.63 0.83 0.99 1.02 1.05 1.05 1.03 1.14 1.24 1.27 1.33 1.39 1.41 1.53 1.67 1.77 1.75 1.84 1.88 1.84 1.74 1.45 1.21 1.19 1.25 1.39 1.38 1.27 1.17 1.13 1.22 1.16 0.98 0.82 0.75 0.71 0.68 0.65 0.61 0.57
0.46 0.53 0.62 0.61 0.68 0.83 0.94 0.94 0.92 0.93 0.99 1.07 1.10 1.16 1.19 1.26 1.39 1.42 1.48 1.58 1.66 1.72 1.83 1.79 1.70 1.56 1.38 1.31 1.37 1.35 1.40 1.53 1.46 1.44 1.48 1.29 1.07 0.92 0.83 0.78 0.73 0.67 0.62
0.49 0.49 0.48 0.51 0.57 0.68 0.79 0.79 0.80 0.82 0.84 0.86 0.98 1.07 1.11 1.15 1.25 1.32 1.33 1.44 1.58 1.67 1.71 1.69 1.65 1.56 1.49 1.45 1.44 1.41 1.47 1.59 1.66 1.55 1.51 1.42 1.33 1.21 1.05 0.94 0.82 0.76 0.72
0.33 0.34 0.32 0.34 0.40 0.50 0.56 0.56 0.62 0.69 0.76 0.79 0.90 0.93 0.96 0.91 0.96 1.02 1.02 1.21 1.38 1.56 1.64 1.68 1.59 1.46 1.40 1.41 1.38 1.39 1.46 1.64 1.67 1.70 1.69 1.56 1.42 1.24 1.13 1.04 0.92 0.85 0.81
0.18 0.22 0.23 0.27 0.31 0.34 0.42 0.42 0.45 0.57 0.67 0.72 0.78 0.81 0.88 0.90 0.86 0.81 0.80 0.89 1.02 1.15 1.35 1.49 1.53 1.45 1.36 1.33 1.42 1.51 1.51 1.60 1.70 1.64 1.56 1.62 1.54 1.43 1.26 1.08 1.08 1.06 0.95
0.16 0.16 0.18 0.24 0.26 0.24 0.28 0.28 0.39 0.58 0.61 0.61 0.60 0.72 0.84 0.91 0.94 0.95 0.84 0.83 0.84 0.87 0.98 1.17 1.32 1.33 1.31 1.32 1.40 1.47 1.52 1.56 1.48 1.52 1.49 1.58 1.57 1.44 1.28 1.21 1.26 1.12 1.04
0.15 0.19 0.20 0.25 0.23 0.17 0.21 0.25 0.33 0.47 0.53 0.51 0.52 0.64 0.79 0.91 0.95 0.98 0.93 0.99 0.95 0.84 0.81 0.89 1.09 1.19 1.21 1.34 1.50 1.60 1.67 1.64 1.57 1.55 1.49 1.51 1.46 1.33 1.22 1.20 1.28 1.15 1.04
0.14 0.18 0.22 0.23 0.20 0.15 0.17 0.23 0.34 0.47 0.53 0.52 0.49 0.57 0.73 0.82 0.94 0.98 0.94 1.03 1.03 0.85 0.77 0.87 0.92 1.02 1.13 1.26 1.45 1.62 1.68 1.66 1.61 1.57 1.41 1.29 1.22 1.27 1.28 1.21 1.18 1.17 1.05
0.16 0.17 0.19 0.20 0.19 0.20 0.20 0.21 0.28 0.35 0.44 0.51 0.52 0.56 0.76 0.83 0.88 0.85 0.86 1.07 1.16 1.01 0.76 0.75 0.83 0.98 1.08 1.22 1.44 1.60 1.84 1.83 1.61 1.54 1.41 1.28 1.26 1.34 1.47 1.36 1.17 1.07 1.00

GEFSMA_prec_meanprecacc_252.txt.gz
Total_Precipitation_Accumulation
1.33 1.23 1.21 1.37 1.37 1.49 1.53 1.60 1.63 1.48 1.33 1.22 1.23 1.21 1.25 1.22 1.14 1.10 1.39 1.60 1.86 2.38 2.63 2.58 2.47 2.29 2.20 2.10 2.12 2.13 2.07 2.00 2.22 2.62 3.20 3.48 3.15 2.50 2.12 1.91 1.76 1.56 1.58
1.21 1.24 1.15 1.22 1.33 1.52 1.74 1.79 1.62 1.52 1.42 1.37 1.38 1.34 1.33 1.25 1.20 1.10 1.28 1.39 1.34 1.59 2.08 2.62 2.85 2.67 2.49 2.37 2.25 2.27 2.20 2.09 2.16 2.34 2.41 2.57 2.63 2.28 1.86 1.83 1.75 1.58 1.71
1.03 1.16 1.22 1.20 1.26 1.51 1.77 1.91 1.74 1.60 1.44 1.44 1.45 1.45 1.37 1.35 1.27 1.19 1.31 1.47 1.34 1.31 1.66 2.25 2.81 2.94 2.80 2.63 2.41 2.35 2.17 1.98 1.94 2.03 2.13 2.11 2.24 2.19 1.85 1.75 1.70 1.65 1.67
1.05 1.17 1.27 1.23 1.26 1.47 1.71 1.92 1.95 1.92 1.83 1.76 1.66 1.58 1.52 1.63 1.48 1.36 1.41 1.53 1.66 1.50 1.48 1.76 2.20 2.63 2.85 2.84 2.55 2.25 2.01 1.83 1.76 1.76 1.86 1.74 1.88 2.01 1.81 1.68 1.75 1.86 1.84
1.09 1.21 1.43 1.47 1.46 1.58 1.68 1.72 1.86 1.88 1.94 1.94 1.73 1.68 1.60 1.72 1.80 1.69 1.74 1.78 1.85 1.81 1.65 1.52 1.64 1.83 2.35 2.70 2.66 2.39 2.16 1.92 1.78 1.67 1.76 1.64 1.65 1.81 1.69 1.65 1.76 1.91 1.92
1.31 1.28 1.46 1.50 1.53 1.72 1.79 1.88 2.09 2.04 1.95 2.04 1.86 1.75 1.71 1.71 1.74 1.92 2.05 2.01 1.95 1.82 1.79 1.62 1.65 1.56 1.87 2.27 2.43 2.41 2.24 2.18 2.11 1.95 1.93 1.77 1.62 1.66 1.67 1.61 1.68 1.79 1.90
1.43 1.46 1.49 1.53 1.56 1.65 1.72 1.89 2.23 2.25 2.07 1.97 2.18 2.17 2.07 1.87 1.78 1.84 1.93 2.09 2.10 1.90 1.89 1.88 1.74 1.61 1.51 1.66 1.86 2.13 2.20 2.40 2.50 2.33 2.16 1.94 1.62 1.59 1.68 1.56 1.64 1.71 1.73
1.40 1.35 1.52 1.62 1.58 1.72 1.79 1.97 2.28 2.50 2.26 2.07 2.43 2.89 2.66 2.38 2.03 1.78 1.76 1.74 1.92 1.90 1.79 1.69 1.61 1.57 1.51 1.50 1.33 1.52 1.86 2.35 2.77 2.60 2.24 2.05 1.81 1.72 1.79 1.65 1.63 1.64 1.63
1.64 1.60 1.68 1.80 1.72 1.77 1.89 1.94 2.05 2.53 2.67 2.42 2.37 2.95 2.84 2.63 2.59 2.04 1.61 1.46 1.67 1.82 1.83 1.71 1.65 1.69 1.68 1.64 1.37 1.16 1.37 1.80 2.48 2.59 2.34 2.26 2.13 1.94 1.80 1.69 1.62 1.64 1.71
1.84 1.73 1.76 1.82 1.82 1.88 1.86 1.73 1.90 2.36 2.85 2.90 2.67 2.46 2.31 2.28 2.48 2.36 1.78 1.45 1.51 1.65 1.81 1.70 1.67 1.75 1.79 1.86 1.77 1.40 1.19 1.35 1.98 2.58 2.72 2.63 2.49 2.24 2.06 1.89 1.76 1.73 1.72
1.86 1.71 1.66 1.77 1.82 1.89 1.89 1.95 2.11 2.42 2.71 2.99 2.97 2.70 2.40 2.17 1.81 2.00 1.99 1.76 1.50 1.40 1.46 1.56 1.68 1.71 1.75 1.75 1.82 1.64 1.28 1.11 1.40 2.05 2.61 2.76 2.65 2.55 2.47 2.37 2.29 2.24 2.09
1.71 1.64 1.61 1.63 1.61 1.68 1.78 1.96 2.19 2.33 2.53 2.76 2.84 2.57 2.39 2.28 2.07 1.93 1.77 1.82 1.78 1.49 1.33 1.30 1.40 1.54 1.60 1.66 1.52 1.59 1.35 1.09 1.07 1.28 1.66 2.16 2.39 2.54 2.62 2.66 2.59 2.44 2.38
1.50 1.48 1.48 1.47 1.39 1.38 1.51 1.71 1.97 2.03 2.14 2.35 2.46 2.36 2.23 2.08 2.03 2.08 2.02 1.91 1.74 1.47 1.33 1.16 1.20 1.33 1.35 1.48 1.57 1.56 1.32 1.19 1.03 1.00 1.06 1.26 1.60 1.99 2.36 2.59 2.68 2.65 2.58
1.29 1.21 1.22 1.27 1.26 1.26 1.31 1.45 1.62 1.66 1.73 1.92 1.99 2.05 1.98 1.92 1.96 1.95 1.98 2.11 1.96 1.70 1.35 1.03 1.05 1.18 1.15 1.21 1.46 1.51 1.16 1.11 1.00 0.95 0.92 0.95 1.04 1.28 1.69 1.95 2.17 2.38 2.47
1.05 1.02 1.07 1.18 1.25 1.21 1.18 1.29 1.44 1.45 1.54 1.69 1.81 1.95 1.89 1.85 1.85 1.89 1.95 2.04 2.08 1.94 1.64 1.19 1.02 0.96 0.98 1.07 1.37 1.24 1.12 1.13 1.02 0.95 0.87 0.81 0.80 0.81 0.97 1.17 1.40 1.63 1.78
0.97 0.99 1.01 1.01 1.04 1.05 1.10 1.26 1.44 1.50 1.48 1.54 1.63 1.74 1.87 1.90 1.91 1.91 1.97 1.99 1.97 1.94 1.81 1.39 1.12 0.94 0.99 0.96 1.18 0.99 1.09 1.27 1.05 0.88 0.81 0.76 0.74 0.73 0.75 0.85 0.92 0.98 1.01
0.76 0.78 0.78 0.82 0.94 0.96 0.96 1.12 1.22 1.24 1.35 1.43 1.42 1.46 1.62 1.76 1.88 1.91 1.91 1.90 1.95 1.91 1.78 1.53 1.21 1.03 1.10 1.11 1.17 1.03 1.01 1.05 0.97 0.93 0.85 0.77 0.71 0.69 0.66 0.69 0.70 0.68 0.68
0.53 0.60 0.66 0.65 0.84 1.01 1.04 1.07 1.07 1.05 1.17 1.26 1.28 1.34 1.40 1.42 1.54 1.69 1.78 1.76 1.84 1.89 1.85 1.75 1.46 1.22 1.20 1.26 1.41 1.40 1.28 1.18 1.14 1.22 1.17 0.99 0.84 0.77 0.73 0.69 0.66 0.62 0.58
0.47 0.54 0.64 0.63 0.69 0.85 0.96 0.97 0.94 0.95 1.01 1.08 1.12 1.18 1.21 1.27 1.40 1.43 1.50 1.59 1.67 1.73 1.84 1.80 1.71 1.57 1.39 1.32 1.38 1.37 1.42 1.54 1.47 1.45 1.48 1.30 1.08 0.92 0.83 0.79 0.73 0.67 0.62
0.51 0.53 0.51 0.55 0.60 0.71 0.82 0.82 0.82 0.83 0.86 0.87 1.00 1.08 1.12 1.16 1.26 1.32 1.33 1.46 1.59 1.68 1.72 1.70 1.66 1.57 1.51 1.46 1.45 1.43 1.49 1.61 1.68 1.57 1.52 1.43 1.34 1.21 1.05 0.94 0.82 0.76 0.72
0.35 0.39 0.36 0.38 0.43 0.53 0.59 0.59 0.65 0.72 0.77 0.81 0.91 0.94 0.97 0.92 0.96 1.03 1.03 1.22 1.39 1.58 1.65 1.69 1.60 1.48 1.42 1.43 1.40 1.40 1.47 1.66 1.69 1.72 1.72 1.58 1.43 1.24 1.13 1.04 0.93 0.85 0.81
0.20 0.26 0.28 0.31 0.35 0.37 0.47 0.47 0.48 0.59 0.69 0.73 0.80 0.82 0.90 0.91 0.86 0.82 0.81 0.89 1.03 1.16 1.36 1.50 1.54 1.46 1.38 1.37 1.44 1.52 1.52 1.61 1.71 1.65 1.58 1.64 1.56 1.45 1.26 1.08 1.09 1.06 0.95
0.17 0.19 0.22 0.29 0.29 0.27 0.32 0.32 0.43 0.61 0.63 0.62 0.60 0.73 0.86 0.92 0.95 0.96 0.84 0.83 0.84 0.88 0.99 1.18 1.33 1.34 1.32 1.34 1.43 1.50 1.53 1.57 1.48 1.53 1.50 1.60 1.59 1.47 1.29 1.22 1.27 1.13 1.05
0.17 0.21 0.22 0.29 0.27 0.20 0.24 0.28 0.37 0.50 0.56 0.52 0.53 0.65 0.80 0.92 0.96 0.99 0.94 0.99 0.96 0.85 0.82 0.89 1.09 1.20 1.22 1.35 1.52 1.63 1.69 1.65 1.57 1.56 1.50 1.53 1.48 1.35 1.25 1.22 1.29 1.16 1.05
0.17 0.21 0.24 0.25 0.22 0.17 0.18 0.25 0.36 0.49 0.55 0.54 0.51 0.59 0.74 0.83 0.95 0.99 0.94 1.04 1.04 0.85 0.77 0.87 0.92 1.02 1.15 1.28 1.47 1.65 1.70 1.68 1.62 1.57 1.42 1.29 1.23 1.28 1.30 1.24 1.21 1.19 1.06
0.18 0.19 0.21 0.21 0.20 0.21 0.21 0.22 0.29 0.37 0.46 0.54 0.53 0.58 0.77 0.84 0.89 0.86 0.87 1.07 1.16 1.02 0.77 0.76 0.84 0.99 1.10 1.24 1.46 1.62 1.85 1.85 1.62 1.55 1.41 1.28 1.26 1.35 1.49 1.38 1.20 1.10 1.02

GEFSMA_prec_meanprecacc_258.txt.gz
Total_Precipitation_Accumulation
1.35 1.25 1.23 1.39 1.40 1.51 1.55 1.63 1.67 1.50 1.35 1.24 1.25 1.22 1.28 1.28 1.20 1.15 1.42 1.63 1.90 2.44 2.70 2.64 2.54 2.38 2.36 2.26 2.20 2.19 2.14 2.06 2.29 2.68 3.26 3.53 3.25 2.63 2.27 2.03 1.85 1.62 1.65
1.22 1.25 1.16 1.23 1.34 1.54 1.77 1.85 1.69 1.58 1.47 1.41 1.42 1.37 1.36 1.32 1.29 1.20 1.33 1.43 1.38 1.64 2.13 2.68 2.93 2.81 2.67 2.51 2.36 2.37 2.31 2.18 2.24 2.42 2.47 2.62 2.69 2.36 1.96 1.92 1.83 1.65 1.78
1.03 1.16 1.23 1.21 1.27 1.53 1.83 2.01 1.89 1.75 1.56 1.52 1.51 1.48 1.40 1.40 1.33 1.30 1.40 1.54 1.39 1.36 1.70 2.31 2.90 3.08 2.94 2.76 2.52 2.47 2.29 2.08 2.02 2.10 2.20 2.17 2.30 2.25 1.96 1.85 1.80 1.72 1.73
1.05 1.17 1.27 1.23 1.27 1.51 1.79 2.02 2.10 2.08 1.96 1.85 1.72 1.61 1.54 1.65 1.51 1.41 1.49 1.62 1.73 1.56 1.57 1.87 2.30 2.73 2.94 2.94 2.65 2.35 2.11 1.93 1.89 1.87 1.96 1.82 1.94 2.07 1.90 1.78 1.85 1.95 1.92
1.09 1.21 1.44 1.49 1.49 1.66 1.75 1.79 1.95 2.00 2.06 2.02 1.79 1.71 1.63 1.74 1.82 1.73 1.80 1.86 1.93 1.87 1.74 1.64 1.76 1.93 2.44 2.81 2.77 2.49 2.25 2.00 1.88 1.78 1.87 1.72 1.71 1.87 1.76 1.73 1.85 2.00 2.01
1.32 1.30 1.47 1.53 1.59 1.81 1.85 1.92 2.15 2.13 2.05 2.13 1.91 1.78 1.74 1.73 1.77 1.97 2.11 2.10 2.05 1.90 1.86 1.70 1.75 1.68 1.99 2.41 2.55 2.50 2.34 2.28 2.21 2.05 2.02 1.85 1.69 1.73 1.76 1.71 1.80 1.91 2.02
1.44 1.48 1.54 1.59 1.63 1.71 1.77 1.92 2.27 2.30 2.13 2.01 2.21 2.19 2.09 1.89 1.81 1.90 2.01 2.17 2.19 2.00 1.95 1.93 1.83 1.74 1.63 1.78 1.97 2.23 2.32 2.52 2.61 2.44 2.25 2.00 1.68 1.68 1.79 1.67 1.76 1.82 1.82
1.40 1.36 1.56 1.69 1.66 1.77 1.84 2.01 2.32 2.53 2.28 2.10 2.46 2.93 2.69 2.40 2.07 1.84 1.84 1.83 2.01 2.01 1.88 1.77 1.69 1.67 1.61 1.61 1.45 1.65 1.98 2.45 2.87 2.68 2.31 2.11 1.87 1.78 1.85 1.72 1.72 1.71 1.69
1.64 1.60 1.70 1.86 1.79 1.83 1.93 1.97 2.08 2.57 2.72 2.46 2.41 2.99 2.88 2.66 2.62 2.08 1.66 1.51 1.73 1.89 1.90 1.79 1.73 1.79 1.77 1.73 1.46 1.24 1.45 1.88 2.56 2.66 2.39 2.31 2.18 1.98 1.84 1.74 1.68 1.71 1.76
1.85 1.73 1.78 1.87 1.88 1.94 1.91 1.75 1.91 2.40 2.90 2.94 2.71 2.50 2.34 2.30 2.49 2.39 1.82 1.49 1.54 1.68 1.85 1.74 1.73 1.82 1.86 1.91 1.81 1.44 1.24 1.40 2.03 2.64 2.78 2.68 2.53 2.29 2.11 1.94 1.81 1.80 1.78
1.87 1.71 1.68 1.81 1.88 1.96 1.94 1.97 2.13 2.44 2.73 3.01 3.00 2.74 2.43 2.20 1.83 2.02 2.03 1.80 1.53 1.42 1.49 1.59 1.71 1.76 1.79 1.78 1.84 1.67 1.31 1.14 1.44 2.11 2.67 2.81 2.69 2.59 2.50 2.40 2.33 2.28 2.14
1.73 1.65 1.62 1.66 1.64 1.74 1.83 1.99 2.22 2.35 2.54 2.79 2.88 2.60 2.42 2.31 2.10 1.95 1.80 1.85 1.81 1.50 1.34 1.32 1.42 1.58 1.64 1.69 1.54 1.61 1.36 1.10 1.09 1.30 1.68 2.19 2.43 2.59 2.67 2.73 2.65 2.48 2.44
1.51 1.49 1.49 1.49 1.41 1.42 1.55 1.74 1.99 2.05 2.17 2.40 2.50 2.39 2.25 2.10 2.05 2.10 2.05 1.93 1.77 1.48 1.34 1.17 1.21 1.34 1.36 1.49 1.58 1.57 1.33 1.20 1.04 1.00 1.07 1.27 1.61 2.01 2.39 2.70 2.79 2.75 2.71
1.30 1.21 1.23 1.28 1.27 1.28 1.34 1.49 1.65 1.69 1.76 1.96 2.02 2.08 2.01 1.94 1.98 1.97 2.00 2.14 2.00 1.73 1.38 1.04 1.05 1.18 1.15 1.22 1.47 1.51 1.17 1.12 1.01 0.95 0.93 0.96 1.04 1.29 1.71 2.03 2.31 2.52 2.62
1.06 1.03 1.08 1.19 1.25 1.22 1.20 1.32 1.48 1.47 1.55 1.71 1.84 1.99 1.92 1.87 1.86 1.90 1.97 2.07 2.12 1.97 1.67 1.22 1.03 0.96 0.98 1.07 1.37 1.25 1.12 1.13 1.03 0.96 0.87 0.82 0.81 0.82 0.98 1.20 1.47 1.70 1.86
0.98 1.00 1.02 1.02 1.04 1.06 1.11 1.29 1.47 1.54 1.51 1.56 1.65 1.77 1.90 1.92 1.92 1.92 1.98 2.01 2.00 1.97 1.83 1.41 1.12 0.94 0.99 0.97 1.19 0.99 1.10 1.28 1.06 0.89 0.82 0.78 0.77 0.76 0.77 0.87 0.96 1.03 1.08
0.77 0.79 0.79 0.83 0.95 0.97 0.97 1.14 1.25 1.27 1.37 1.46 1.44 1.48 1.65 1.77 1.89 1.93 1.93 1.93 1.99 1.95 1.81 1.55 1.21 1.03 1.11 1.11 1.18 1.04 1.02 1.06 0.98 0.94 0.85 0.78 0.73 0.73 0.70 0.72 0.74 0.72 0.73
0.54 0.61 0.67 0.66 0.85 1.03 1.06 1.08 1.09 1.07 1.19 1.28 1.31 1.38 1.43 1.44 1.56 1.71 1.81 1.79 1.87 1.91 1.89 1.77 1.47 1.23 1.21 1.27 1.42 1.41 1.29 1.19 1.16 1.24 1.18 1.00 0.85 0.80 0.77 0.73 0.69 0.63 0.60
0.48 0.55 0.64 0.64 0.70 0.85 0.97 0.97 0.95 0.96 1.03 1.11 1.15 1.21 1.24 1.31 1.45 1.46 1.52 1.60 1.68 1.74 1.86 1.82 1.73 1.59 1.41 1.33 1.39 1.37 1.42 1.55 1.49 1.47 1.50 1.31 1.09 0.94 0.85 0.81 0.75 0.68 0.63
0.52 0.54 0.52 0.55 0.61 0.71 0.83 0.83 0.83 0.85 0.88 0.90 1.02 1.09 1.14 1.19 1.29 1.35 1.35 1.48 1.61 1.70 1.74 1.72 1.67 1.59 1.53 1.47 1.45 1.43 1.49 1.62 1.70 1.58 1.54 1.44 1.34 1.22 1.06 0.94 0.83 0.76 0.72
0.36 0.40 0.37 0.39 0.44 0.54 0.60 0.60 0.68 0.75 0.80 0.85 0.94 0.97 1.00 0.96 0.99 1.06 1.05 1.24 1.41 1.60 1.67 1.71 1.62 1.50 1.45 1.45 1.40 1.41 1.49 1.67 1.70 1.74 1.73 1.58 1.43 1.25 1.13 1.05 0.93 0.85 0.81
0.21 0.28 0.30 0.33 0.36 0.39 0.49 0.50 0.53 0.63 0.72 0.77 0.83 0.86 0.94 0.95 0.90 0.85 0.84 0.91 1.04 1.18 1.39 1.52 1.56 1.49 1.40 1.38 1.45 1.53 1.54 1.63 1.72 1.66 1.58 1.65 1.57 1.46 1.27 1.08 1.09 1.06 0.95
0.19 0.21 0.25 0.31 0.31 0.29 0.35 0.35 0.47 0.64 0.66 0.65 0.64 0.77 0.90 0.94 0.98 0.99 0.88 0.85 0.85 0.89 1.00 1.19 1.34 1.36 1.34 1.35 1.44 1.51 1.57 1.61 1.49 1.54 1.51 1.61 1.60 1.47 1.30 1.24 1.28 1.14 1.05
0.20 0.25 0.27 0.33 0.30 0.23 0.26 0.31 0.40 0.53 0.58 0.54 0.56 0.68 0.83 0.94 0.99 1.02 0.98 1.02 0.97 0.85 0.83 0.90 1.10 1.20 1.22 1.37 1.53 1.65 1.72 1.72 1.62 1.57 1.50 1.54 1.48 1.36 1.25 1.23 1.31 1.18 1.07
0.19 0.24 0.30 0.31 0.27 0.21 0.22 0.29 0.39 0.51 0.58 0.56 0.53 0.61 0.76 0.86 0.99 1.03 0.98 1.07 1.07 0.87 0.78 0.87 0.93 1.02 1.15 1.29 1.49 1.67 1.73 1.73 1.69 1.60 1.42 1.30 1.24 1.29 1.31 1.25 1.22 1.21 1.08
0.20 0.22 0.25 0.25 0.23 0.24 0.26 0.25 0.32 0.39 0.49 0.55 0.55 0.59 0.80 0.88 0.94 0.90 0.90 1.11 1.20 1.04 0.79 0.77 0.85 0.99 1.11 1.26 1.48 1.63 1.88 1.89 1.67 1.59 1.42 1.29 1.27 1.36 1.50 1.39 1.21 1.11 1.04

GEFSMA_prec_meanprecacc_264.txt.gz
Total_Precipitation_Accumulation
1.36 1.26 1.23 1.40 1.41 1.55 1.58 1.66 1.70 1.54 1.37 1.25 1.25 1.23 1.29 1.29 1.22 1.16 1.44 1.68 1.96 2.49 2.76 2.70 2.59 2.45 2.45 2.46 2.36 2.32 2.23 2.12 2.33 2.72 3.30 3.56 3.28 2.76 2.44 2.15 1.92 1.69 1.71
1.22 1.26 1.17 1.24 1.35 1.55 1.79 1.88 1.72 1.60 1.49 1.43 1.43 1.38 1.37 1.34 1.31 1.21 1.33 1.45 1.41 1.67 2.17 2.74 2.99 2.89 2.79 2.72 2.53 2.51 2.39 2.23 2.29 2.46 2.52 2.65 2.72 2.45 2.16 2.10 1.93 1.71 1.84
1.04 1.17 1.23 1.22 1.28 1.55 1.83 2.03 1.91 1.76 1.57 1.54 1.53 1.51 1.43 1.42 1.35 1.31 1.41 1.55 1.41 1.39 1.73 2.35 2.96 3.17 3.03 2.90 2.69 2.60 2.37 2.14 2.06 2.14 2.23 2.20 2.33 2.33 2.15 2.05 1.92 1.81 1.82
1.05 1.18 1.28 1.25 1.28 1.53 1.80 2.03 2.10 2.08 1.96 1.86 1.74 1.63 1.56 1.67 1.53 1.44 1.52 1.66 1.75 1.59 1.61 1.91 2.37 2.83 3.04 3.04 2.74 2.43 2.16 1.98 1.93 1.90 1.99 1.85 1.98 2.14 2.08 1.99 2.01 2.08 2.03
1.10 1.22 1.45 1.50 1.51 1.69 1.77 1.80 1.96 2.01 2.07 2.04 1.80 1.73 1.65 1.76 1.84 1.75 1.83 1.94 1.99 1.91 1.78 1.68 1.83 2.02 2.54 2.91 2.88 2.57 2.31 2.05 1.92 1.84 1.93 1.78 1.76 1.93 1.89 1.87 1.99 2.14 2.14
1.33 1.30 1.48 1.54 1.61 1.85 1.88 1.94 2.17 2.16 2.08 2.15 1.93 1.80 1.75 1.75 1.78 1.99 2.14 2.16 2.14 1.95 1.90 1.75 1.83 1.76 2.08 2.51 2.66 2.59 2.42 2.35 2.28 2.12 2.14 2.01 1.81 1.83 1.86 1.82 1.93 2.02 2.12
1.45 1.49 1.54 1.60 1.65 1.75 1.81 1.94 2.30 2.34 2.18 2.05 2.23 2.22 2.12 1.91 1.83 1.91 2.04 2.25 2.31 2.09 2.01 2.00 1.91 1.82 1.72 1.88 2.07 2.33 2.42 2.62 2.72 2.51 2.34 2.14 1.86 1.87 1.97 1.86 1.96 2.00 1.99
1.40 1.36 1.57 1.71 1.68 1.82 1.88 2.04 2.34 2.58 2.34 2.15 2.49 2.96 2.72 2.43 2.09 1.85 1.87 1.92 2.13 2.10 1.95 1.83 1.76 1.75 1.71 1.69 1.55 1.80 2.14 2.59 2.99 2.76 2.37 2.20 1.98 1.89 1.96 1.83 1.83 1.83 1.81
1.64 1.61 1.71 1.87 1.82 1.88 1.98 2.02 2.12 2.61 2.78 2.53 2.45 3.01 2.89 2.68 2.64 2.09 1.68 1.57 1.82 1.98 1.98 1.85 1.80 1.87 1.86 1.82 1.58 1.43 1.66 2.02 2.68 2.73 2.45 2.39 2.27 2.06 1.92 1.81 1.74 1.77 1.84
1.86 1.74 1.78 1.89 1.92 1.99 1.97 1.80 1.96 2.44 2.95 3.01 2.76 2.52 2.35 2.30 2.50 2.40 1.84 1.52 1.57 1.72 1.90 1.80 1.79 1.89 1.94 2.00 1.90 1.56 1.36 1.50 2.10 2.70 2.83 2.74 2.60 2.34 2.15 1.99 1.87 1.86 1.84
1.90 1.74 1.70 1.84 1.94 2.01 2.00 2.03 2.19 2.49 2.79 3.06 3.03 2.76 2.45 2.22 1.84 2.03 2.04 1.82 1.56 1.45 1.51 1.63 1.76 1.83 1.87 1.85 1.91 1.74 1.37 1.20 1.49 2.14 2.71 2.86 2.76 2.65 2.54 2.45 2.39 2.33 2.18
1.77 1.69 1.67 1.69 1.70 1.80 1.89 2.05 2.28 2.42 2.61 2.83 2.90 2.61 2.44 2.33 2.13 1.96 1.80 1.87 1.83 1.52 1.37 1.35 1.45 1.62 1.68 1.73 1.60 1.67 1.41 1.15 1.12 1.32 1.70 2.22 2.47 2.64 2.72 2.77 2.69 2.53 2.50
1.55 1.54 1.54 1.53 1.46 1.48 1.61 1.79 2.04 2.10 2.22 2.42 2.52 2.40 2.27 2.11 2.06 2.11 2.05 1.94 1.78 1.49 1.36 1.19 1.24 1.37 1.38 1.52 1.62 1.62 1.37 1.23 1.07 1.02 1.08 1.27 1.62 2.02 2.40 2.73 2.84 2.79 2.76
1.33 1.26 1.27 1.32 1.32 1.34 1.40 1.56 1.71 1.73 1.80 1.99 2.04 2.10 2.02 1.95 1.98 1.98 2.00 2.15 2.00 1.74 1.38 1.06 1.07 1.20 1.16 1.23 1.49 1.54 1.19 1.14 1.03 0.97 0.94 0.96 1.04 1.29 1.71 2.05 2.36 2.58 2.66
1.10 1.06 1.10 1.22 1.29 1.28 1.25 1.39 1.53 1.51 1.59 1.75 1.87 2.01 1.93 1.88 1.87 1.91 1.98 2.07 2.12 1.98 1.67 1.22 1.04 0.97 0.99 1.08 1.38 1.25 1.13 1.15 1.04 0.97 0.88 0.83 0.82 0.82 0.98 1.22 1.51 1.78 1.92
1.01 1.03 1.04 1.04 1.07 1.09 1.15 1.33 1.50 1.57 1.54 1.61 1.69 1.79 1.92 1.93 1.93 1.93 1.99 2.02 2.00 1.98 1.84 1.41 1.13 0.95 1.00 0.97 1.20 1.00 1.10 1.29 1.07 0.90 0.82 0.79 0.78 0.77 0.77 0.88 0.99 1.09 1.16
0.80 0.81 0.81 0.84 0.97 0.99 1.00 1.16 1.27 1.29 1.40 1.49 1.47 1.50 1.67 1.79 1.91 1.94 1.94 1.94 1.99 1.95 1.81 1.55 1.22 1.04 1.12 1.13 1.19 1.04 1.02 1.07 0.99 0.95 0.86 0.79 0.74 0.76 0.73 0.74 0.76 0.76 0.80
0.56 0.63 0.69 0.68 0.87 1.04 1.07 1.10 1.10 1.09 1.22 1.31 1.34 1.42 1.46 1.47 1.59 1.73 1.82 1.80 1.88 1.92 1.89 1.77 1.47 1.24 1.22 1.28 1.43 1.42 1.30 1.20 1.16 1.25 1.19 1.01 0.87 0.83 0.82 0.77 0.72 0.67 0.64
0.50 0.57 0.66 0.65 0.71 0.86 0.98 0.99 0.97 0.98 1.04 1.12 1.16 1.23 1.26 1.34 1.48 1.48 1.54 1.62 1.69 1.75 1.87 1.82 1.73 1.60 1.43 1.36 1.41 1.38 1.43 1.56 1.49 1.47 1.50 1.32 1.10 0.97 0.91 0.86 0.78 0.71 0.66
0.53 0.55 0.53 0.57 0.62 0.73 0.84 0.84 0.85 0.87 0.90 0.91 1.03 1.11 1.16 1.21 1.31 1.36 1.36 1.49 1.62 1.71 1.75 1.73 1.68 1.61 1.55 1.50 1.48 1.45 1.50 1.62 1.70 1.59 1.54 1.45 1.36 1.24 1.10 1.00 0.87 0.79 0.74
0.38 0.42 0.39 0.41 0.46 0.55 0.61 0.62 0.69 0.77 0.83 0.87 0.96 0.99 1.02 0.99 1.02 1.08 1.07 1.26 1.43 1.61 1.68 1.71 1.63 1.51 1.46 1.46 1.42 1.42 1.50 1.67 1.71 1.75 1.73 1.59 1.44 1.27 1.17 1.09 0.97 0.89 0.84
0.23 0.29 0.31 0.34 0.37 0.40 0.50 0.51 0.54 0.64 0.73 0.79 0.86 0.90 0.98 0.99 0.93 0.88 0.86 0.93 1.06 1.20 1.40 1.53 1.56 1.49 1.41 1.39 1.47 1.55 1.55 1.64 1.74 1.67 1.59 1.65 1.57 1.47 1.30 1.12 1.12 1.09 0.98
0.22 0.23 0.26 0.32 0.32 0.30 0.36 0.36 0.49 0.66 0.68 0.66 0.66 0.80 0.93 0.98 1.01 1.02 0.91 0.89 0.88 0.90 1.01 1.20 1.35 1.36 1.35 1.37 1.46 1.54 1.59 1.62 1.51 1.55 1.52 1.62 1.60 1.48 1.31 1.26 1.30 1.16 1.07
0.22 0.27 0.29 0.34 0.31 0.24 0.28 0.33 0.42 0.55 0.60 0.57 0.58 0.70 0.85 0.97 1.02 1.05 1.01 1.06 1.01 0.88 0.85 0.92 1.11 1.21 1.24 1.39 1.56 1.70 1.78 1.75 1.65 1.59 1.51 1.55 1.49 1.36 1.26 1.23 1.32 1.19 1.08
0.22 0.27 0.33 0.34 0.29 0.23 0.25 0.32 0.42 0.54 0.61 0.58 0.56 0.63 0.78 0.88 1.01 1.06 1.01 1.10 1.09 0.90 0.82 0.91 0.95 1.03 1.16 1.32 1.51 1.70 1.78 1.75 1.71 1.64 1.45 1.31 1.24 1.29 1.31 1.25 1.23 1.21 1.09
0.23 0.24 0.27 0.28 0.26 0.27 0.29 0.30 0.36 0.42 0.52 0.59 0.57 0.61 0.82 0.90 0.96 0.92 0.92 1.12 1.21 1.06 0.81 0.81 0.87 1.01 1.12 1.28 1.51 1.66 1.91 1.90 1.69 1.62 1.46 1.30 1.28 1.36 1.50 1.39 1.21 1.11 1.04

GEFSMA_prec_meanprecacc_270.txt.gz
Total_Precipitation_Accumulation
1.37 1.29 1.27 1.43 1.43 1.57 1.60 1.67 1.71 1.55 1.38 1.25 1.26 1.23 1.31 1.30 1.22 1.18 1.45 1.72 2.03 2.58 2.84 2.77 2.66 2.51 2.49 2.49 2.40 2.38 2.31 2.20 2.39 2.78 3.36 3.60 3.32 2.80 2.48 2.19 1.97 1.74 1.77
1.24 1.28 1.19 1.26 1.36 1.56 1.80 1.89 1.72 1.61 1.50 1.43 1.44 1.39 1.38 1.34 1.31 1.21 1.34 1.46 1.45 1.74 2.25 2.80 3.06 2.95 2.83 2.76 2.59 2.58 2.51 2.34 2.36 2.52 2.58 2.70 2.76 2.49 2.21 2.14 1.97 1.76 1.90
1.05 1.18 1.24 1.23 1.29 1.55 1.84 2.04 1.92 1.76 1.57 1.54 1.53 1.51 1.43 1.42 1.35 1.31 1.42 1.56 1.43 1.41 1.77 2.39 3.02 3.22 3.06 2.94 2.76 2.69 2.48 2.24 2.15 2.20 2.30 2.26 2.38 2.37 2.19 2.10 1.97 1.86 1.88
1.06 1.18 1.30 1.26 1.29 1.54 1.81 2.04 2.11 2.08 1.97 1.86 1.75 1.64 1.56 1.67 1.53 1.44 1.53 1.67 1.76 1.61 1.63 1.95 2.42 2.88 3.09 3.08 2.80 2.52 2.27 2.07 2.01 1.99 2.06 1.91 2.03 2.20 2.19 2.10 2.09 2.14 2.09
1.10 1.23 1.46 1.51 1.52 1.70 1.78 1.81 1.97 2.02 2.08 2.04 1.81 1.74 1.66 1.76 1.84 1.75 1.84 1.96 2.01 1.93 1.80 1.71 1.86 2.06 2.61 2.96 2.91 2.66 2.43 2.15 2.01 1.92 2.01 1.86 1.83 2.06 2.18 2.06 2.09 2.21 2.22
1.34 1.31 1.49 1.55 1.62 1.86 1.90 1.95 2.18 2.17 2.09 2.16 1.93 1.80 1.76 1.75 1.78 1.99 2.15 2.18 2.16 1.96 1.93 1.77 1.84 1.78 2.11 2.56 2.69 2.63 2.49 2.44 2.36 2.20 2.23 2.12 1.92 2.01 2.14 2.02 2.08 2.15 2.24
1.45 1.49 1.55 1.61 1.65 1.77 1.82 1.95 2.30 2.36 2.19 2.06 2.24 2.22 2.12 1.91 1.83 1.92 2.05 2.27 2.33 2.11 2.02 2.03 1.93 1.83 1.74 1.91 2.10 2.38 2.48 2.70 2.80 2.62 2.46 2.27 2.02 2.09 2.23 2.09 2.12 2.13 2.12
1.41 1.37 1.58 1.72 1.69 1.84 1.90 2.05 2.35 2.60 2.36 2.16 2.50 2.96 2.73 2.44 2.09 1.86 1.89 1.94 2.17 2.14 1.97 1.85 1.78 1.77 1.73 1.71 1.59 1.85 2.21 2.66 3.07 2.88 2.50 2.35 2.14 2.06 2.15 2.00 2.00 2.03 2.03
1.65 1.62 1.72 1.88 1.84 1.90 2.00 2.03 2.13 2.63 2.80 2.55 2.47 3.02 2.89 2.68 2.65 2.11 1.70 1.59 1.85 2.02 2.01 1.88 1.83 1.91 1.91 1.87 1.66 1.54 1.77 2.14 2.78 2.84 2.57 2.55 2.45 2.24 2.06 1.93 1.86 1.98 2.10
1.88 1.77 1.81 1.91 1.95 2.02 1.99 1.82 1.97 2.45 2.96 3.03 2.79 2.54 2.36 2.31 2.51 2.42 1.86 1.54 1.60 1.78 1.98 1.86 1.85 1.96 2.02 2.09 1.98 1.67 1.49 1.65 2.22 2.79 2.94 2.86 2.72 2.47 2.28 2.11 1.98 1.97 2.00
1.92 1.77 1.73 1.87 1.98 2.03 2.03 2.06 2.22 2.51 2.80 3.07 3.04 2.78 2.47 2.22 1.84 2.04 2.06 1.84 1.58 1.49 1.58 1.70 1.84 1.89 1.96 1.95 1.99 1.82 1.47 1.32 1.62 2.27 2.84 3.00 2.88 2.74 2.62 2.54 2.51 2.42 2.27
1.79 1.72 1.70 1.74 1.74 1.83 1.92 2.09 2.32 2.45 2.63 2.85 2.91 2.63 2.45 2.35 2.14 1.97 1.81 1.88 1.85 1.55 1.41 1.40 1.52 1.69 1.77 1.82 1.69 1.75 1.49 1.24 1.23 1.44 1.84 2.37 2.62 2.74 2.81 2.85 2.77 2.61 2.56
1.57 1.56 1.58 1.58 1.50 1.52 1.64 1.82 2.08 2.14 2.25 2.45 2.54 2.43 2.29 2.13 2.08 2.13 2.07 1.95 1.79 1.51 1.39 1.24 1.30 1.43 1.45 1.61 1.73 1.71 1.43 1.30 1.15 1.11 1.17 1.40 1.79 2.14 2.49 2.81 2.91 2.85 2.82
1.36 1.29 1.31 1.36 1.36 1.38 1.43 1.59 1.75 1.77 1.83 2.02 2.07 2.12 2.04 1.97 2.00 2.00 2.02 2.16 2.01 1.76 1.41 1.10 1.13 1.27 1.23 1.32 1.60 1.63 1.27 1.20 1.08 1.03 1.00 1.03 1.14 1.39 1.78 2.10 2.42 2.61 2.69
1.12 1.09 1.13 1.25 1.33 1.31 1.29 1.43 1.58 1.55 1.63 1.77 1.90 2.03 1.96 1.90 1.89 1.94 2.00 2.09 2.13 1.99 1.69 1.25 1.08 1.03 1.05 1.14 1.46 1.33 1.20 1.19 1.08 1.01 0.91 0.86 0.86 0.87 1.03 1.27 1.56 1.80 1.95
1.04 1.05 1.06 1.06 1.09 1.12 1.17 1.35 1.53 1.60 1.57 1.63 1.71 1.82 1.95 1.96 1.95 1.95 2.00 2.03 2.01 1.99 1.85 1.43 1.16 1.00 1.05 1.02 1.24 1.03 1.13 1.31 1.09 0.93 0.85 0.80 0.80 0.79 0.80 0.91 1.02 1.11 1.19
0.82 0.83 0.82 0.86 0.99 1.01 1.02 1.18 1.29 1.31 1.42 1.52 1.50 1.53 1.70 1.82 1.94 1.96 1.95 1.94 1.99 1.96 1.82 1.57 1.24 1.06 1.14 1.15 1.22 1.06 1.04 1.08 1.00 0.96 0.87 0.80 0.75 0.77 0.74 0.75 0.78 0.79 0.84
0.58 0.64 0.70 0.70 0.89 1.07 1.09 1.12 1.12 1.11 1.24 1.33 1.36 1.44 1.49 1.50 1.61 1.74 1.83 1.80 1.88 1.92 1.90 1.78 1.48 1.25 1.23 1.30 1.45 1.44 1.31 1.20 1.17 1.25 1.19 1.01 0.87 0.84 0.84 0.78 0.73 0.69 0.66
0.51 0.58 0.68 0.67 0.73 0.89 1.00 1.00 0.99 1.00 1.06 1.13 1.17 1.25 1.28 1.35 1.49 1.49 1.55 1.63 1.70 1.76 1.88 1.83 1.74 1.61 1.44 1.36 1.42 1.39 1.44 1.57 1.50 1.47 1.50 1.32 1.11 0.98 0.93 0.89 0.82 0.74 0.68
0.55 0.56 0.54 0.58 0.64 0.75 0.86 0.86 0.87 0.89 0.92 0.93 1.04 1.12 1.17 1.22 1.32 1.37 1.37 1.49 1.63 1.72 1.75 1.73 1.68 1.61 1.55 1.50 1.49 1.46 1.51 1.64 1.71 1.59 1.55 1.45 1.36 1.25 1.12 1.03 0.93 0.87 0.80
0.40 0.43 0.41 0.42 0.47 0.57 0.62 0.63 0.70 0.78 0.84 0.88 0.97 1.00 1.03 1.01 1.03 1.09 1.08 1.27 1.43 1.61 1.68 1.72 1.63 1.51 1.47 1.47 1.43 1.44 1.52 1.70 1.73 1.76 1.74 1.59 1.45 1.28 1.19 1.12 1.02 0.98 0.94
0.26 0.31 0.33 0.37 0.39 0.41 0.51 0.52 0.55 0.65 0.74 0.80 0.87 0.90 0.98 1.01 0.95 0.90 0.88 0.94 1.07 1.20 1.40 1.53 1.57 1.50 1.42 1.40 1.48 1.57 1.57 1.66 1.77 1.69 1.59 1.66 1.58 1.48 1.32 1.16 1.16 1.16 1.06
0.24 0.25 0.29 0.36 0.34 0.32 0.37 0.37 0.50 0.67 0.68 0.67 0.67 0.81 0.94 0.99 1.02 1.03 0.92 0.90 0.89 0.91 1.02 1.21 1.35 1.37 1.36 1.38 1.47 1.56 1.63 1.67 1.53 1.56 1.52 1.63 1.61 1.48 1.33 1.29 1.34 1.21 1.14
0.25 0.30 0.32 0.37 0.33 0.25 0.29 0.34 0.44 0.56 0.61 0.57 0.59 0.70 0.86 0.98 1.04 1.07 1.02 1.07 1.02 0.90 0.87 0.93 1.11 1.21 1.24 1.40 1.58 1.71 1.82 1.80 1.67 1.60 1.52 1.56 1.50 1.37 1.27 1.25 1.35 1.23 1.12
0.24 0.29 0.37 0.37 0.31 0.24 0.26 0.33 0.44 0.55 0.62 0.59 0.57 0.65 0.80 0.89 1.03 1.08 1.03 1.12 1.10 0.91 0.84 0.92 0.96 1.04 1.17 1.33 1.52 1.72 1.81 1.79 1.74 1.65 1.46 1.32 1.25 1.30 1.32 1.26 1.23 1.22 1.10
0.25 0.28 0.32 0.32 0.28 0.29 0.31 0.32 0.39 0.44 0.54 0.60 0.59 0.63 0.84 0.91 0.97 0.94 0.93 1.13 1.22 1.06 0.82 0.81 0.88 1.02 1.13 1.28 1.52 1.67 1.92 1.92 1.71 1.63 1.47 1.31 1.28 1.37 1.50 1.39 1.21 1.11 1.04

GEFSMA_prec_meanprecacc_276.txt.gz
Total_Precipitation_Accumulation
1.44 1.34 1.31 1.47 1.46 1.59 1.62 1.70 1.75 1.59 1.40 1.26 1.27 1.24 1.32 1.31 1.24 1.20 1.48 1.76 2.07 2.66 2.95 2.88 2.75 2.57 2.54 2.53 2.44 2.42 2.36 2.24 2.44 2.83 3.41 3.66 3.38 2.87 2.54 2.24 2.00 1.77 1.80
1.28 1.32 1.23 1.30 1.39 1.59 1.84 1.93 1.75 1.63 1.51 1.44 1.44 1.39 1.39 1.35 1.31 1.22 1.36 1.49 1.47 1.78 2.32 2.88 3.14 3.02 2.87 2.79 2.62 2.61 2.54 2.37 2.40 2.57 2.63 2.75 2.82 2.54 2.26 2.19 2.02 1.79 1.93
1.08 1.21 1.28 1.27 1.32 1.58 1.88 2.08 1.94 1.78 1.58 1.55 1.54 1.52 1.43 1.42 1.36 1.32 1.43 1.57 1.44 1.43 1.81 2.44 3.07 3.30 3.11 2.98 2.79 2.71 2.50 2.26 2.17 2.24 2.33 2.29 2.43 2.42 2.24 2.16 2.03 1.91 1.92
1.09 1.21 1.33 1.28 1.31 1.56 1.84 2.07 2.13 2.10 1.98 1.87 1.76 1.64 1.56 1.67 1.53 1.44 1.53 1.67 1.77 1.61 1.64 1.98 2.46 2.94 3.13 3.11 2.82 2.54 2.30 2.09 2.04 2.01 2.08 1.93 2.07 2.26 2.24 2.15 2.14 2.19 2.14
1.12 1.26 1.49 1.53 1.54 1.72 1.81 1.83 1.99 2.04 2.09 2.06 1.82 1.75 1.66 1.76 1.84 1.75 1.84 1.96 2.02 1.94 1.81 1.74 1.88 2.09 2.65 2.99 2.92 2.68 2.48 2.20 2.05 1.94 2.03 1.89 1.87 2.13 2.24 2.11 2.15 2.26 2.27
1.36 1.34 1.52 1.58 1.64 1.88 1.92 1.96 2.19 2.19 2.11 2.17 1.94 1.81 1.76 1.75 1.78 1.99 2.15 2.18 2.16 1.97 1.94 1.79 1.86 1.79 2.13 2.58 2.70 2.65 2.57 2.56 2.45 2.24 2.26 2.16 1.98 2.09 2.23 2.10 2.15 2.20 2.29
1.47 1.51 1.58 1.64 1.68 1.80 1.85 1.97 2.32 2.37 2.21 2.07 2.25 2.23 2.13 1.92 1.83 1.92 2.05 2.27 2.34 2.11 2.03 2.03 1.94 1.84 1.75 1.92 2.12 2.41 2.53 2.82 2.93 2.71 2.52 2.33 2.12 2.24 2.36 2.21 2.24 2.21 2.18
1.41 1.37 1.60 1.74 1.72 1.87 1.93 2.08 2.37 2.61 2.37 2.17 2.51 2.98 2.75 2.45 2.10 1.87 1.89 1.95 2.18 2.15 1.98 1.86 1.79 1.79 1.74 1.73 1.61 1.89 2.25 2.73 3.16 2.98 2.59 2.45 2.30 2.22 2.32 2.23 2.22 2.16 2.12
1.66 1.62 1.73 1.90 1.86 1.92 2.03 2.07 2.15 2.64 2.81 2.57 2.48 3.05 2.92 2.70 2.66 2.12 1.70 1.60 1.85 2.03 2.02 1.89 1.84 1.92 1.93 1.91 1.69 1.58 1.82 2.20 2.85 2.92 2.65 2.63 2.56 2.35 2.18 2.08 2.06 2.15 2.23
1.89 1.78 1.82 1.92 1.97 2.04 2.01 1.84 1.99 2.47 2.98 3.05 2.80 2.55 2.38 2.32 2.53 2.45 1.88 1.55 1.61 1.78 1.99 1.87 1.87 1.98 2.04 2.12 2.02 1.71 1.56 1.74 2.29 2.85 3.00 2.92 2.80 2.56 2.36 2.20 2.12 2.13 2.13
1.93 1.78 1.74 1.89 2.00 2.07 2.05 2.10 2.24 2.53 2.82 3.10 3.07 2.80 2.48 2.24 1.86 2.06 2.09 1.86 1.59 1.49 1.59 1.71 1.86 1.92 1.99 2.00 2.05 1.87 1.54 1.40 1.68 2.32 2.88 3.04 2.94 2.80 2.69 2.63 2.64 2.57 2.40
1.79 1.72 1.71 1.75 1.77 1.85 1.94 2.11 2.34 2.48 2.67 2.88 2.94 2.65 2.48 2.37 2.16 2.00 1.84 1.91 1.87 1.56 1.42 1.42 1.55 1.73 1.80 1.88 1.77 1.80 1.55 1.32 1.31 1.48 1.88 2.42 2.67 2.78 2.85 2.93 2.89 2.76 2.69
1.59 1.57 1.59 1.60 1.53 1.54 1.66 1.84 2.10 2.16 2.28 2.48 2.57 2.46 2.32 2.15 2.10 2.15 2.09 1.97 1.81 1.53 1.40 1.25 1.33 1.47 1.48 1.64 1.78 1.76 1.51 1.38 1.22 1.17 1.22 1.43 1.84 2.19 2.53 2.87 3.00 2.97 2.93
1.40 1.33 1.35 1.41 1.41 1.41 1.45 1.61 1.77 1.79 1.86 2.05 2.10 2.17 2.08 2.00 2.03 2.03 2.05 2.18 2.03 1.78 1.42 1.11 1.16 1.32 1.27 1.36 1.64 1.68 1.34 1.27 1.14 1.08 1.06 1.07 1.21 1.48 1.85 2.17 2.49 2.68 2.77
1.15 1.11 1.16 1.28 1.36 1.34 1.32 1.46 1.60 1.58 1.66 1.80 1.92 2.07 2.00 1.94 1.93 1.96 2.02 2.11 2.16 2.02 1.71 1.26 1.11 1.09 1.11 1.18 1.50 1.37 1.26 1.25 1.13 1.06 0.97 0.91 0.92 0.99 1.15 1.37 1.62 1.84 1.98
1.07 1.07 1.09 1.10 1.12 1.14 1.20 1.38 1.56 1.62 1.60 1.66 1.74 1.85 1.99 1.99 1.99 1.98 2.03 2.05 2.04 2.01 1.87 1.46 1.20 1.05 1.12 1.06 1.27 1.06 1.17 1.36 1.14 0.98 0.90 0.85 0.84 0.86 0.89 1.01 1.07 1.14 1.20
0.84 0.85 0.85 0.89 1.02 1.03 1.05 1.21 1.31 1.34 1.45 1.54 1.52 1.55 1.73 1.85 1.97 1.98 1.98 1.97 2.01 1.97 1.83 1.59 1.26 1.10 1.20 1.21 1.25 1.09 1.06 1.11 1.04 0.99 0.91 0.83 0.78 0.80 0.79 0.82 0.83 0.82 0.85
0.61 0.66 0.73 0.72 0.92 1.09 1.11 1.14 1.14 1.13 1.26 1.35 1.38 1.46 1.51 1.52 1.63 1.76 1.86 1.82 1.89 1.93 1.90 1.79 1.50 1.27 1.27 1.34 1.48 1.46 1.33 1.23 1.19 1.27 1.21 1.03 0.89 0.86 0.86 0.82 0.77 0.72 0.69
0.53 0.60 0.69 0.69 0.76 0.91 1.02 1.02 1.00 1.01 1.07 1.14 1.18 1.26 1.29 1.36 1.51 1.50 1.56 1.64 1.71 1.77 1.88 1.84 1.75 1.62 1.46 1.39 1.45 1.42 1.47 1.59 1.52 1.49 1.51 1.33 1.12 1.00 0.95 0.92 0.84 0.76 0.70
0.56 0.58 0.56 0.60 0.66 0.77 0.88 0.88 0.89 0.90 0.92 0.93 1.05 1.13 1.18 1.23 1.33 1.37 1.38 1.50 1.64 1.73 1.76 1.74 1.69 1.62 1.56 1.52 1.51 1.49 1.54 1.66 1.73 1.61 1.55 1.46 1.38 1.27 1.14 1.05 0.95 0.89 0.81
0.41 0.44 0.42 0.43 0.48 0.58 0.64 0.64 0.71 0.79 0.85 0.88 0.98 1.01 1.04 1.01 1.04 1.10 1.09 1.27 1.44 1.62 1.69 1.73 1.64 1.52 1.47 1.49 1.46 1.47 1.54 1.72 1.75 1.77 1.74 1.60 1.47 1.31 1.22 1.15 1.05 1.01 0.97
0.26 0.31 0.34 0.38 0.40 0.42 0.53 0.54 0.56 0.66 0.75 0.80 0.88 0.92 0.99 1.01 0.95 0.91 0.89 0.95 1.07 1.21 1.40 1.54 1.58 1.50 1.43 1.41 1.51 1.61 1.60 1.70 1.80 1.70 1.60 1.67 1.60 1.51 1.35 1.20 1.21 1.19 1.10
0.25 0.27 0.31 0.38 0.35 0.33 0.39 0.38 0.51 0.68 0.69 0.69 0.69 0.84 0.96 1.00 1.03 1.04 0.93 0.92 0.90 0.92 1.02 1.21 1.36 1.37 1.36 1.39 1.49 1.59 1.65 1.70 1.57 1.57 1.53 1.64 1.63 1.51 1.35 1.32 1.38 1.24 1.18
0.27 0.32 0.34 0.39 0.34 0.26 0.30 0.35 0.45 0.57 0.62 0.58 0.60 0.72 0.88 0.99 1.05 1.08 1.03 1.08 1.03 0.90 0.87 0.93 1.11 1.21 1.24 1.41 1.60 1.74 1.83 1.83 1.70 1.62 1.53 1.57 1.51 1.39 1.28 1.27 1.38 1.26 1.15
0.25 0.30 0.38 0.39 0.32 0.25 0.28 0.35 0.46 0.57 0.64 0.61 0.59 0.66 0.81 0.90 1.04 1.10 1.04 1.13 1.11 0.91 0.84 0.92 0.96 1.05 1.18 1.33 1.54 1.74 1.82 1.82 1.77 1.67 1.46 1.33 1.25 1.30 1.32 1.27 1.25 1.24 1.12
0.25 0.29 0.33 0.33 0.29 0.30 0.32 0.33 0.40 0.45 0.55 0.61 0.61 0.64 0.85 0.91 0.99 0.95 0.94 1.14 1.23 1.07 0.82 0.82 0.89 1.03 1.14 1.29 1.53 1.69 1.93 1.94 1.74 1.65 1.47 1.32 1.29 1.37 1.51 1.39 1.21 1.12 1.05

GEFSMA_prec_meanprecacc_282.txt.gz
Total_Precipitation_Accumulation
1.49 1.39 1.35 1.50 1.50 1.62 1.67 1.76 1.80 1.64 1.43 1.28 1.28 1.26 1.34 1.34 1.26 1.22 1.50 1.78 2.10 2.71 3.01 2.95 2.80 2.64 2.60 2.59 2.50 2.46 2.40 2.28 2.48 2.87 3.46 3.71 3.43 2.91 2.58 2.29 2.05 1.80 1.84
1.33 1.35 1.25 1.32 1.41 1.61 1.86 1.96 1.79 1.68 1.55 1.46 1.46 1.41 1.41 1.36 1.33 1.24 1.37 1.51 1.49 1.81 2.35 2.92 3.17 3.07 2.93 2.86 2.67 2.62 2.56 2.40 2.43 2.60 2.67 2.80 2.86 2.58 2.30 2.24 2.06 1.84 1.97
1.12 1.23 1.29 1.28 1.33 1.59 1.89 2.10 1.96 1.81 1.62 1.59 1.56 1.52 1.44 1.43 1.37 1.33 1.44 1.59 1.45 1.43 1.82 2.46 3.10 3.35 3.16 3.02 2.82 2.73 2.52 2.27 2.19 2.26 2.36 2.32 2.46 2.45 2.28 2.20 2.07 1.96 1.97
1.11 1.23 1.34 1.29 1.32 1.56 1.85 2.10 2.15 2.12 2.00 1.90 1.78 1.65 1.57 1.68 1.54 1.45 1.54 1.69 1.78 1.62 1.65 1.99 2.48 2.98 3.16 3.14 2.85 2.56 2.31 2.10 2.05 2.02 2.09 1.95 2.09 2.28 2.28 2.19 2.19 2.25 2.20
1.15 1.29 1.51 1.54 1.55 1.73 1.83 1.86 2.02 2.07 2.12 2.08 1.83 1.76 1.67 1.77 1.85 1.76 1.85 1.96 2.02 1.94 1.82 1.74 1.90 2.12 2.67 3.01 2.94 2.70 2.50 2.22 2.06 1.95 2.05 1.90 1.89 2.16 2.28 2.15 2.19 2.31 2.32
1.38 1.36 1.54 1.60 1.66 1.91 1.96 2.00 2.23 2.22 2.14 2.19 1.95 1.81 1.77 1.76 1.79 2.00 2.15 2.18 2.16 1.98 1.95 1.80 1.87 1.81 2.15 2.59 2.72 2.68 2.60 2.58 2.47 2.26 2.29 2.18 2.00 2.12 2.27 2.14 2.19 2.24 2.33
1.49 1.53 1.60 1.66 1.70 1.83 1.89 2.00 2.36 2.41 2.24 2.10 2.27 2.26 2.15 1.93 1.84 1.92 2.05 2.27 2.34 2.12 2.04 2.04 1.95 1.86 1.76 1.92 2.13 2.42 2.55 2.84 2.95 2.73 2.55 2.35 2.15 2.27 2.40 2.26 2.29 2.26 2.23
1.42 1.39 1.61 1.77 1.75 1.91 1.97 2.12 2.42 2.67 2.41 2.21 2.55 3.02 2.78 2.48 2.12 1.87 1.90 1.96 2.19 2.15 1.98 1.87 1.80 1.80 1.76 1.74 1.62 1.90 2.27 2.77 3.18 3.01 2.62 2.48 2.32 2.25 2.37 2.30 2.28 2.22 2.19
1.67 1.63 1.74 1.91 1.88 1.96 2.07 2.11 2.20 2.71 2.88 2.61 2.53 3.10 2.97 2.74 2.70 2.14 1.72 1.61 1.87 2.04 2.03 1.90 1.85 1.93 1.94 1.93 1.71 1.60 1.84 2.25 2.89 2.96 2.69 2.69 2.61 2.39 2.23 2.14 2.12 2.22 2.31
1.91 1.79 1.83 1.93 1.99 2.07 2.04 1.87 2.03 2.53 3.06 3.11 2.85 2.60 2.42 2.35 2.57 2.49 1.92 1.57 1.62 1.80 1.99 1.88 1.88 1.99 2.05 2.13 2.04 1.73 1.57 1.77 2.34 2.90 3.07 2.99 2.88 2.64 2.42 2.24 2.17 2.19 2.20
1.95 1.79 1.75 1.90 2.02 2.09 2.07 2.11 2.26 2.56 2.88 3.18 3.13 2.85 2.53 2.27 1.89 2.09 2.14 1.91 1.61 1.51 1.59 1.72 1.87 1.93 2.00 2.02 2.08 1.89 1.55 1.42 1.73 2.39 2.97 3.13 3.02 2.89 2.76 2.68 2.70 2.62 2.46
1.82 1.75 1.73 1.78 1.80 1.88 1.98 2.14 2.37 2.50 2.69 2.94 3.01 2.70 2.54 2.42 2.20 2.03 1.88 1.97 1.91 1.59 1.43 1.43 1.55 1.73 1.81 1.90 1.80 1.84 1.57 1.35 1.37 1.56 1.98 2.51 2.73 2.86 2.92 2.98 2.95 2.82 2.75
1.61 1.60 1.62 1.64 1.59 1.61 1.74 1.90 2.14 2.18 2.29 2.51 2.62 2.52 2.38 2.19 2.13 2.18 2.12 2.00 1.85 1.56 1.42 1.27 1.34 1.48 1.49 1.67 1.82 1.81 1.54 1.42 1.27 1.21 1.28 1.51 1.91 2.26 2.60 2.92 3.05 3.02 2.99
1.40 1.34 1.37 1.44 1.45 1.46 1.51 1.67 1.82 1.82 1.88 2.08 2.14 2.21 2.13 2.03 2.05 2.05 2.07 2.20 2.06 1.82 1.46 1.13 1.18 1.33 1.28 1.37 1.68 1.73 1.38 1.31 1.17 1.12 1.12 1.16 1.29 1.56 1.92 2.23 2.54 2.74 2.83
1.16 1.12 1.18 1.30 1.38 1.38 1.36 1.51 1.65 1.62 1.69 1.83 1.96 2.11 2.03 1.96 1.95 1.98 2.04 2.14 2.19 2.06 1.76 1.29 1.13 1.10 1.12 1.20 1.53 1.41 1.29 1.29 1.16 1.10 1.02 0.99 1.00 1.05 1.22 1.43 1.68 1.89 2.02
1.08 1.09 1.11 1.12 1.14 1.16 1.22 1.40 1.59 1.66 1.65 1.72 1.78 1.90 2.02 2.01 2.01 1.99 2.05 2.08 2.06 2.05 1.91 1.49 1.22 1.09 1.16 1.09 1.30 1.08 1.19 1.39 1.17 1.01 0.95 0.92 0.91 0.93 0.96 1.06 1.11 1.17 1.23
0.85 0.87 0.86 0.92 1.04 1.05 1.06 1.23 1.34 1.37 1.50 1.59 1.56 1.60 1.76 1.87 1.99 2.00 2.00 2.00 2.03 2.00 1.87 1.62 1.28 1.13 1.26 1.27 1.29 1.11 1.08 1.13 1.06 1.02 0.95 0.87 0.84 0.88 0.85 0.85 0.85 0.84 0.88
0.62 0.67 0.74 0.74 0.93 1.09 1.12 1.15 1.16 1.15 1.30 1.40 1.42 1.50 1.53 1.53 1.65 1.77 1.88 1.85 1.91 1.94 1.92 1.81 1.52 1.29 1.30 1.39 1.55 1.49 1.35 1.24 1.21 1.30 1.23 1.06 0.94 0.93 0.92 0.86 0.80 0.75 0.71
0.55 0.61 0.71 0.71 0.76 0.91 1.03 1.03 1.02 1.03 1.09 1.16 1.20 1.28 1.30 1.38 1.52 1.52 1.58 1.66 1.72 1.77 1.89 1.85 1.77 1.64 1.48 1.41 1.50 1.47 1.49 1.61 1.54 1.51 1.54 1.36 1.17 1.06 1.02 0.98 0.92 0.82 0.73
0.58 0.60 0.58 0.61 0.67 0.78 0.89 0.90 0.91 0.92 0.93 0.94 1.06 1.14 1.19 1.24 1.34 1.39 1.39 1.52 1.65 1.73 1.77 1.75 1.70 1.63 1.58 1.54 1.54 1.53 1.58 1.70 1.77 1.64 1.58 1.48 1.42 1.32 1.19 1.11 1.02 0.95 0.86
0.42 0.46 0.43 0.44 0.49 0.59 0.65 0.66 0.73 0.81 0.86 0.89 0.99 1.02 1.05 1.04 1.07 1.12 1.11 1.30 1.45 1.63 1.70 1.74 1.65 1.53 1.48 1.50 1.49 1.51 1.59 1.77 1.80 1.81 1.76 1.63 1.50 1.33 1.25 1.19 1.10 1.05 1.01
0.28 0.33 0.35 0.39 0.41 0.44 0.55 0.56 0.58 0.68 0.77 0.82 0.89 0.93 1.02 1.04 0.99 0.93 0.91 0.97 1.09 1.21 1.41 1.55 1.59 1.52 1.44 1.42 1.53 1.65 1.64 1.75 1.86 1.75 1.62 1.70 1.62 1.53 1.37 1.22 1.23 1.21 1.13
0.28 0.30 0.34 0.40 0.37 0.35 0.42 0.41 0.53 0.70 0.72 0.72 0.72 0.86 0.98 1.02 1.05 1.05 0.95 0.93 0.91 0.93 1.03 1.21 1.36 1.38 1.37 1.40 1.51 1.62 1.69 1.74 1.62 1.63 1.56 1.67 1.65 1.53 1.36 1.34 1.40 1.26 1.20
0.30 0.35 0.36 0.41 0.36 0.29 0.34 0.37 0.47 0.59 0.64 0.61 0.63 0.74 0.90 1.02 1.06 1.09 1.04 1.09 1.03 0.91 0.88 0.93 1.12 1.22 1.25 1.42 1.61 1.78 1.89 1.87 1.74 1.65 1.55 1.60 1.53 1.40 1.30 1.28 1.40 1.27 1.17
0.27 0.33 0.42 0.41 0.34 0.27 0.31 0.37 0.47 0.58 0.66 0.64 0.62 0.68 0.85 0.94 1.08 1.12 1.06 1.15 1.13 0.92 0.84 0.93 0.96 1.05 1.18 1.34 1.56 1.79 1.87 1.86 1.81 1.69 1.48 1.35 1.27 1.32 1.34 1.28 1.27 1.26 1.14
0.27 0.31 0.36 0.35 0.31 0.31 0.34 0.35 0.42 0.47 0.58 0.65 0.65 0.68 0.91 0.97 1.04 1.00 0.97 1.17 1.26 1.09 0.83 0.82 0.89 1.03 1.14 1.30 1.54 1.73 1.97 1.97 1.76 1.66 1.48 1.33 1.30 1.38 1.52 1.41 1.23 1.13 1.06

GEFSMA_prec_meanprecacc_288.txt.gz
Total_Precipitation_Accumulation
1.50 1.39 1.35 1.51 1.50 1.63 1.68 1.77 1.82 1.67 1.47 1.31 1.31 1.28 1.36 1.36 1.28 1.24 1.53 1.81 2.14 2.75 3.07 3.02 2.87 2.69 2.66 2.63 2.53 2.48 2.42 2.31 2.50 2.89 3.48 3.74 3.46 2.94 2.61 2.33 2.08 1.83 1.87
1.33 1.36 1.25 1.32 1.42 1.63 1.88 1.98 1.80 1.70 1.58 1.50 1.50 1.43 1.43 1.39 1.35 1.25 1.39 1.53 1.52 1.84 2.41 2.98 3.21 3.10 2.97 2.90 2.71 2.65 2.58 2.42 2.45 2.63 2.69 2.83 2.89 2.61 2.33 2.28 2.10 1.87 2.01
1.14 1.24 1.30 1.29 1.34 1.61 1.91 2.12 1.99 1.85 1.66 1.62 1.59 1.54 1.45 1.45 1.39 1.34 1.45 1.60 1.46 1.45 1.85 2.50 3.14 3.37 3.18 3.05 2.86 2.75 2.53 2.28 2.20 2.28 2.38 2.35 2.49 2.48 2.31 2.22 2.11 1.99 2.00
1.16 1.25 1.35 1.31 1.33 1.58 1.86 2.11 2.17 2.15 2.04 1.94 1.81 1.70 1.61 1.70 1.56 1.46 1.55 1.69 1.79 1.62 1.66 2.01 2.51 3.00 3.17 3.16 2.86 2.58 2.32 2.11 2.07 2.04 2.11 1.97 2.11 2.31 2.32 2.23 2.22 2.29 2.24
1.20 1.31 1.52 1.55 1.56 1.74 1.84 1.87 2.04 2.09 2.14 2.10 1.85 1.79 1.71 1.80 1.87 1.77 1.86 1.98 2.03 1.95 1.82 1.75 1.92 2.13 2.68 3.02 2.96 2.72 2.52 2.24 2.08 1.97 2.07 1.92 1.92 2.19 2.31 2.17 2.22 2.35 2.36
1.42 1.38 1.55 1.61 1.66 1.92 1.97 2.01 2.24 2.23 2.15 2.21 1.97 1.84 1.79 1.79 1.81 2.01 2.16 2.19 2.17 1.99 1.95 1.80 1.88 1.82 2.17 2.60 2.73 2.69 2.61 2.60 2.49 2.29 2.32 2.20 2.02 2.15 2.29 2.16 2.22 2.28 2.38
1.51 1.54 1.61 1.67 1.71 1.84 1.90 2.01 2.37 2.42 2.26 2.12 2.29 2.28 2.16 1.95 1.85 1.93 2.06 2.28 2.36 2.14 2.05 2.05 1.95 1.86 1.77 1.93 2.14 2.43 2.56 2.84 2.96 2.75 2.57 2.38 2.17 2.29 2.42 2.28 2.31 2.30 2.29
1.44 1.40 1.63 1.78 1.76 1.93 1.98 2.13 2.43 2.69 2.43 2.23 2.58 3.06 2.80 2.49 2.12 1.88 1.91 1.97 2.20 2.18 2.01 1.88 1.81 1.80 1.76 1.74 1.63 1.91 2.27 2.77 3.19 3.02 2.63 2.49 2.34 2.26 2.38 2.32 2.31 2.26 2.25
1.69 1.65 1.76 1.93 1.90 1.98 2.09 2.13 2.22 2.74 2.90 2.64 2.56 3.15 3.02 2.76 2.70 2.15 1.73 1.62 1.89 2.08 2.06 1.92 1.87 1.95 1.95 1.93 1.72 1.60 1.84 2.26 2.90 2.97 2.70 2.70 2.62 2.41 2.25 2.16 2.15 2.26 2.35
1.95 1.82 1.87 1.97 2.02 2.10 2.07 1.89 2.05 2.55 3.08 3.13 2.88 2.65 2.48 2.40 2.58 2.50 1.93 1.58 1.63 1.82 2.02 1.91 1.90 2.01 2.07 2.14 2.04 1.73 1.57 1.77 2.34 2.91 3.08 3.01 2.89 2.66 2.44 2.27 2.20 2.23 2.22
1.99 1.84 1.80 1.96 2.07 2.14 2.12 2.15 2.29 2.59 2.91 3.20 3.15 2.89 2.60 2.33 1.91 2.10 2.15 1.92 1.62 1.52 1.61 1.74 1.89 1.95 2.02 2.03 2.08 1.90 1.55 1.42 1.73 2.39 2.99 3.15 3.04 2.91 2.79 2.71 2.73 2.66 2.49
1.85 1.80 1.79 1.85 1.86 1.94 2.03 2.19 2.42 2.55 2.72 2.95 3.02 2.71 2.57 2.47 2.23 2.04 1.89 1.97 1.92 1.60 1.45 1.45 1.57 1.76 1.83 1.93 1.82 1.85 1.58 1.36 1.38 1.57 1.99 2.53 2.76 2.89 2.96 3.01 2.99 2.85 2.79
1.63 1.63 1.67 1.70 1.65 1.67 1.80 1.96 2.18 2.21 2.32 2.52 2.63 2.53 2.39 2.22 2.15 2.19 2.12 2.01 1.86 1.58 1.44 1.29 1.36 1.51 1.51 1.69 1.86 1.83 1.56 1.44 1.30 1.25 1.32 1.56 1.97 2.32 2.65 2.97 3.10 3.07 3.04
1.42 1.36 1.39 1.46 1.48 1.50 1.57 1.73 1.87 1.86 1.92 2.10 2.15 2.23 2.16 2.07 2.07 2.05 2.07 2.21 2.07 1.84 1.48 1.14 1.19 1.35 1.32 1.41 1.71 1.77 1.40 1.32 1.19 1.14 1.16 1.22 1.37 1.65 2.01 2.33 2.62 2.82 2.89
1.16 1.13 1.18 1.30 1.39 1.40 1.42 1.57 1.69 1.64 1.71 1.84 1.98 2.14 2.08 2.01 1.98 2.00 2.05 2.15 2.20 2.07 1.78 1.31 1.14 1.11 1.15 1.24 1.57 1.44 1.31 1.30 1.17 1.11 1.05 1.04 1.08 1.17 1.36 1.62 1.83 2.00 2.09
1.08 1.09 1.11 1.12 1.16 1.20 1.26 1.45 1.62 1.68 1.67 1.73 1.81 1.93 2.06 2.05 2.04 2.01 2.07 2.09 2.07 2.06 1.92 1.50 1.22 1.10 1.19 1.14 1.34 1.10 1.21 1.40 1.18 1.03 0.98 0.96 0.97 1.02 1.07 1.23 1.30 1.28 1.28
0.85 0.87 0.87 0.93 1.06 1.07 1.09 1.27 1.37 1.39 1.51 1.61 1.58 1.62 1.78 1.90 2.01 2.02 2.02 2.02 2.05 2.01 1.88 1.63 1.29 1.13 1.27 1.30 1.34 1.14 1.10 1.15 1.08 1.04 0.97 0.91 0.88 0.94 0.93 0.96 1.00 0.95 0.92
0.62 0.68 0.75 0.76 0.94 1.10 1.13 1.18 1.19 1.18 1.32 1.41 1.43 1.51 1.55 1.56 1.67 1.79 1.91 1.88 1.92 1.96 1.93 1.82 1.53 1.30 1.30 1.40 1.57 1.52 1.38 1.26 1.24 1.32 1.25 1.09 0.99 0.98 0.99 0.95 0.91 0.84 0.76
0.55 0.62 0.72 0.73 0.78 0.92 1.04 1.05 1.05 1.07 1.12 1.17 1.21 1.28 1.31 1.39 1.53 1.54 1.61 1.68 1.74 1.79 1.91 1.86 1.78 1.65 1.49 1.43 1.51 1.50 1.52 1.63 1.56 1.53 1.55 1.37 1.20 1.11 1.07 1.06 1.01 0.90 0.79
0.59 0.61 0.58 0.62 0.68 0.79 0.91 0.93 0.95 0.95 0.95 0.96 1.07 1.14 1.20 1.25 1.35 1.41 1.42 1.55 1.68 1.75 1.79 1.76 1.71 1.64 1.58 1.54 1.55 1.54 1.61 1.73 1.79 1.65 1.59 1.50 1.44 1.35 1.23 1.17 1.09 1.02 0.94
0.43 0.47 0.44 0.45 0.50 0.60 0.67 0.69 0.76 0.84 0.88 0.91 1.00 1.02 1.06 1.04 1.09 1.15 1.15 1.33 1.48 1.65 1.72 1.75 1.65 1.54 1.49 1.51 1.50 1.52 1.60 1.80 1.83 1.83 1.78 1.64 1.52 1.35 1.28 1.23 1.16 1.12 1.07
0.30 0.35 0.37 0.41 0.43 0.45 0.57 0.59 0.59 0.69 0.79 0.84 0.91 0.94 1.02 1.05 1.01 0.96 0.93 0.99 1.11 1.23 1.43 1.56 1.60 1.53 1.45 1.43 1.54 1.66 1.65 1.77 1.88 1.78 1.65 1.72 1.64 1.55 1.39 1.24 1.27 1.27 1.19
0.32 0.34 0.37 0.42 0.38 0.37 0.45 0.42 0.54 0.71 0.73 0.73 0.74 0.88 0.99 1.02 1.07 1.06 0.96 0.94 0.92 0.94 1.04 1.23 1.37 1.38 1.38 1.41 1.51 1.63 1.71 1.76 1.64 1.67 1.60 1.69 1.67 1.55 1.38 1.35 1.42 1.30 1.25
0.33 0.38 0.39 0.43 0.37 0.30 0.36 0.39 0.48 0.59 0.64 0.62 0.65 0.77 0.92 1.04 1.08 1.10 1.06 1.10 1.05 0.92 0.88 0.94 1.12 1.22 1.25 1.42 1.61 1.79 1.90 1.89 1.77 1.69 1.59 1.62 1.55 1.42 1.31 1.29 1.41 1.30 1.21
0.30 0.36 0.44 0.43 0.36 0.29 0.33 0.39 0.49 0.59 0.67 0.66 0.66 0.72 0.88 0.96 1.11 1.15 1.08 1.17 1.15 0.94 0.85 0.93 0.97 1.06 1.19 1.34 1.56 1.79 1.87 1.88 1.85 1.74 1.52 1.37 1.28 1.33 1.35 1.29 1.28 1.27 1.17
0.30 0.34 0.38 0.37 0.32 0.33 0.36 0.38 0.44 0.48 0.59 0.67 0.71 0.73 0.95 1.01 1.09 1.05 1.00 1.20 1.29 1.12 0.85 0.84 0.91 1.05 1.15 1.31 1.55 1.73 1.98 1.98 1.79 1.70 1.52 1.35 1.31 1.39 1.53 1.41 1.23 1.14 1.08

GEFSMA_prec_meanprecacc_294.txt.gz
Total_Precipitation_Accumulation
1.50 1.39 1.35 1.51 1.50 1.63 1.68 1.77 1.82 1.67 1.48 1.32 1.32 1.30 1.39 1.38 1.29 1.24 1.54 1.85 2.22 2.85 3.16 3.09 2.95 2.77 2.72 2.68 2.56 2.51 2.44 2.33 2.52 2.91 3.50 3.76 3.49 2.98 2.65 2.36 2.11 1.87 1.92
1.34 1.36 1.25 1.32 1.43 1.63 1.88 1.98 1.81 1.71 1.59 1.51 1.53 1.47 1.47 1.41 1.36 1.26 1.40 1.55 1.56 1.90 2.46 3.04 3.28 3.16 3.02 2.96 2.77 2.70 2.60 2.43 2.47 2.65 2.72 2.86 2.92 2.64 2.36 2.30 2.13 1.92 2.06
1.14 1.24 1.30 1.29 1.35 1.61 1.91 2.12 1.99 1.86 1.67 1.64 1.64 1.59 1.50 1.48 1.40 1.36 1.46 1.61 1.48 1.48 1.89 2.56 3.20 3.42 3.22 3.10 2.90 2.78 2.56 2.30 2.22 2.30 2.41 2.38 2.53 2.52 2.34 2.25 2.14 2.04 2.05
1.16 1.25 1.36 1.31 1.34 1.58 1.87 2.12 2.18 2.17 2.07 1.98 1.87 1.74 1.65 1.75 1.59 1.48 1.56 1.69 1.79 1.63 1.68 2.04 2.56 3.05 3.21 3.19 2.89 2.59 2.34 2.14 2.09 2.06 2.14 2.01 2.15 2.35 2.35 2.26 2.26 2.33 2.28
1.20 1.31 1.52 1.55 1.56 1.74 1.85 1.88 2.04 2.10 2.18 2.13 1.88 1.83 1.74 1.84 1.91 1.81 1.88 1.98 2.03 1.95 1.83 1.76 1.95 2.18 2.72 3.04 2.97 2.73 2.54 2.27 2.12 2.00 2.10 1.95 1.95 2.22 2.34 2.21 2.26 2.39 2.40
1.42 1.38 1.56 1.61 1.67 1.92 1.98 2.01 2.25 2.24 2.18 2.24 2.00 1.87 1.83 1.83 1.84 2.04 2.19 2.21 2.18 2.00 1.96 1.81 1.89 1.85 2.21 2.62 2.74 2.70 2.63 2.62 2.51 2.31 2.35 2.23 2.05 2.17 2.31 2.18 2.24 2.31 2.41
1.51 1.55 1.61 1.67 1.72 1.85 1.91 2.02 2.38 2.43 2.27 2.13 2.31 2.30 2.19 1.98 1.89 1.96 2.08 2.30 2.37 2.15 2.06 2.05 1.96 1.87 1.79 1.95 2.15 2.44 2.57 2.86 2.98 2.78 2.59 2.40 2.19 2.31 2.43 2.30 2.33 2.32 2.33
1.45 1.40 1.63 1.79 1.78 1.93 1.99 2.13 2.44 2.70 2.44 2.24 2.60 3.08 2.82 2.51 2.15 1.90 1.93 1.99 2.22 2.19 2.02 1.88 1.81 1.81 1.77 1.75 1.63 1.92 2.28 2.79 3.22 3.04 2.65 2.51 2.35 2.28 2.39 2.34 2.33 2.28 2.28
1.71 1.66 1.77 1.95 1.93 2.00 2.10 2.14 2.23 2.75 2.92 2.65 2.57 3.17 3.04 2.78 2.72 2.16 1.74 1.63 1.90 2.09 2.08 1.93 1.88 1.96 1.96 1.94 1.73 1.61 1.85 2.27 2.92 2.99 2.72 2.71 2.63 2.42 2.25 2.17 2.16 2.27 2.38
1.96 1.83 1.88 1.99 2.04 2.13 2.09 1.92 2.08 2.58 3.10 3.15 2.90 2.66 2.50 2.42 2.60 2.50 1.93 1.58 1.64 1.83 2.03 1.92 1.92 2.03 2.09 2.15 2.05 1.74 1.58 1.78 2.35 2.92 3.10 3.02 2.90 2.67 2.45 2.27 2.21 2.24 2.25
2.00 1.85 1.82 1.98 2.10 2.17 2.15 2.17 2.31 2.61 2.94 3.23 3.18 2.91 2.62 2.37 1.94 2.11 2.15 1.92 1.63 1.52 1.61 1.74 1.90 1.96 2.03 2.05 2.10 1.90 1.56 1.43 1.74 2.40 3.00 3.15 3.04 2.92 2.80 2.72 2.74 2.67 2.51
1.86 1.81 1.81 1.87 1.89 1.97 2.06 2.22 2.45 2.58 2.76 2.99 3.05 2.74 2.59 2.49 2.26 2.06 1.89 1.98 1.93 1.61 1.46 1.46 1.58 1.76 1.84 1.94 1.83 1.87 1.59 1.36 1.38 1.58 2.00 2.54 2.77 2.90 2.97 3.03 3.00 2.87 2.81
1.63 1.64 1.69 1.72 1.68 1.70 1.84 2.01 2.22 2.24 2.35 2.57 2.67 2.55 2.41 2.23 2.17 2.21 2.14 2.02 1.87 1.58 1.45 1.31 1.38 1.51 1.52 1.71 1.88 1.86 1.57 1.45 1.31 1.25 1.33 1.57 1.97 2.33 2.66 2.99 3.12 3.09 3.05
1.42 1.37 1.41 1.48 1.50 1.53 1.60 1.78 1.92 1.90 1.95 2.15 2.20 2.26 2.18 2.09 2.08 2.06 2.09 2.22 2.08 1.84 1.49 1.16 1.21 1.37 1.33 1.42 1.74 1.80 1.41 1.34 1.20 1.15 1.17 1.23 1.38 1.66 2.02 2.35 2.64 2.84 2.91
1.17 1.14 1.20 1.32 1.41 1.42 1.43 1.59 1.72 1.67 1.73 1.87 2.00 2.16 2.09 2.02 1.99 2.00 2.06 2.16 2.21 2.08 1.80 1.32 1.16 1.13 1.16 1.25 1.59 1.47 1.34 1.32 1.18 1.12 1.06 1.05 1.11 1.23 1.40 1.65 1.86 2.03 2.12
1.09 1.09 1.12 1.13 1.17 1.21 1.27 1.45 1.63 1.69 1.68 1.74 1.81 1.93 2.06 2.05 2.04 2.02 2.07 2.10 2.08 2.07 1.93 1.51 1.24 1.11 1.19 1.14 1.35 1.13 1.24 1.43 1.20 1.04 0.98 0.96 0.99 1.08 1.18 1.35 1.39 1.35 1.33
0.87 0.87 0.87 0.93 1.06 1.08 1.10 1.27 1.38 1.40 1.52 1.62 1.59 1.63 1.79 1.90 2.02 2.02 2.02 2.02 2.06 2.03 1.89 1.64 1.30 1.14 1.28 1.30 1.35 1.16 1.12 1.17 1.10 1.06 0.98 0.92 0.90 0.96 0.98 1.10 1.22 1.12 1.02
0.64 0.69 0.76 0.76 0.94 1.11 1.14 1.19 1.20 1.19 1.34 1.43 1.45 1.52 1.56 1.57 1.67 1.79 1.91 1.88 1.94 1.98 1.95 1.83 1.54 1.31 1.31 1.40 1.58 1.54 1.39 1.27 1.25 1.34 1.27 1.10 1.01 1.01 1.03 1.06 1.16 1.11 0.92
0.57 0.63 0.73 0.74 0.78 0.92 1.04 1.06 1.06 1.08 1.13 1.19 1.23 1.30 1.32 1.40 1.54 1.55 1.62 1.70 1.76 1.81 1.93 1.88 1.79 1.66 1.50 1.43 1.52 1.51 1.54 1.65 1.57 1.54 1.56 1.38 1.22 1.13 1.10 1.12 1.15 1.14 1.00
0.60 0.62 0.59 0.63 0.69 0.79 0.91 0.94 0.96 0.96 0.97 0.97 1.08 1.15 1.21 1.26 1.36 1.42 1.43 1.57 1.69 1.77 1.80 1.78 1.72 1.64 1.59 1.55 1.55 1.55 1.63 1.76 1.83 1.68 1.60 1.50 1.45 1.36 1.25 1.19 1.15 1.14 1.10
0.44 0.48 0.46 0.47 0.52 0.61 0.68 0.71 0.77 0.85 0.89 0.92 1.01 1.04 1.07 1.06 1.10 1.16 1.16 1.35 1.50 1.67 1.74 1.76 1.66 1.55 1.50 1.51 1.51 1.53 1.61 1.83 1.87 1.88 1.81 1.65 1.52 1.35 1.29 1.25 1.19 1.17 1.15
0.31 0.36 0.38 0.43 0.44 0.46 0.59 0.60 0.61 0.70 0.80 0.85 0.92 0.96 1.04 1.07 1.02 0.97 0.95 1.01 1.14 1.26 1.45 1.58 1.61 1.53 1.46 1.44 1.55 1.67 1.67 1.79 1.92 1.83 1.70 1.74 1.65 1.55 1.39 1.25 1.29 1.30 1.22
0.33 0.35 0.38 0.44 0.40 0.39 0.47 0.44 0.56 0.72 0.74 0.74 0.75 0.89 0.99 1.03 1.08 1.07 0.97 0.96 0.94 0.97 1.07 1.25 1.38 1.39 1.39 1.42 1.53 1.65 1.72 1.77 1.68 1.72 1.66 1.76 1.69 1.56 1.39 1.36 1.44 1.32 1.27
0.34 0.39 0.41 0.45 0.40 0.32 0.38 0.41 0.50 0.60 0.65 0.63 0.66 0.78 0.93 1.05 1.10 1.12 1.07 1.12 1.06 0.93 0.91 0.97 1.14 1.24 1.27 1.44 1.63 1.80 1.92 1.91 1.79 1.73 1.66 1.72 1.61 1.44 1.32 1.30 1.43 1.32 1.23
0.32 0.37 0.45 0.45 0.38 0.31 0.35 0.42 0.51 0.61 0.68 0.67 0.67 0.73 0.90 0.97 1.13 1.16 1.09 1.17 1.16 0.95 0.87 0.95 0.99 1.08 1.22 1.38 1.59 1.82 1.89 1.89 1.86 1.75 1.56 1.44 1.35 1.36 1.37 1.30 1.29 1.29 1.20
0.31 0.35 0.39 0.38 0.34 0.35 0.39 0.40 0.47 0.50 0.61 0.69 0.72 0.74 0.96 1.02 1.11 1.06 1.02 1.21 1.30 1.12 0.86 0.85 0.93 1.07 1.18 1.34 1.59 1.76 2.00 2.00 1.81 1.72 1.54 1.39 1.36 1.43 1.57 1.44 1.25 1.16 1.10

GEFSMA_prec_meanprecacc_300.txt.gz
Total_Precipitation_Accumulation
1.50 1.39 1.35 1.51 1.51 1.63 1.68 1.78 1.83 1.68 1.49 1.33 1.33 1.32 1.41 1.41 1.34 1.29 1.59 1.91 2.30 2.94 3.26 3.22 3.06 2.88 2.83 2.79 2.63 2.56 2.49 2.36 2.53 2.92 3.52 3.78 3.52 3.00 2.67 2.39 2.14 1.90 1.96
1.34 1.36 1.25 1.33 1.43 1.63 1.88 1.98 1.81 1.71 1.59 1.53 1.54 1.48 1.49 1.45 1.40 1.28 1.43 1.58 1.60 1.95 2.53 3.11 3.35 3.23 3.13 3.07 2.83 2.75 2.64 2.47 2.50 2.68 2.74 2.88 2.94 2.66 2.38 2.32 2.15 1.94 2.09
1.15 1.25 1.31 1.30 1.35 1.62 1.92 2.12 2.00 1.87 1.68 1.65 1.65 1.60 1.53 1.52 1.44 1.39 1.48 1.63 1.51 1.51 1.93 2.62 3.28 3.50 3.31 3.19 2.95 2.81 2.58 2.34 2.25 2.34 2.44 2.40 2.56 2.55 2.37 2.28 2.17 2.07 2.07
1.16 1.25 1.36 1.31 1.34 1.59 1.87 2.13 2.19 2.18 2.08 1.98 1.88 1.76 1.67 1.79 1.63 1.52 1.58 1.71 1.81 1.65 1.71 2.09 2.62 3.12 3.28 3.28 2.95 2.63 2.37 2.16 2.11 2.08 2.16 2.03 2.18 2.38 2.37 2.29 2.29 2.36 2.31
1.20 1.31 1.53 1.55 1.56 1.74 1.85 1.89 2.06 2.11 2.19 2.15 1.90 1.85 1.77 1.88 1.97 1.85 1.92 2.01 2.05 1.97 1.85 1.79 1.99 2.23 2.78 3.10 3.01 2.77 2.56 2.29 2.13 2.02 2.12 1.97 1.97 2.24 2.36 2.23 2.29 2.42 2.42
1.42 1.38 1.56 1.61 1.67 1.93 1.98 2.02 2.25 2.26 2.19 2.25 2.01 1.88 1.86 1.86 1.89 2.09 2.23 2.25 2.21 2.01 1.98 1.83 1.93 1.88 2.26 2.68 2.77 2.72 2.65 2.65 2.53 2.33 2.37 2.25 2.07 2.19 2.34 2.21 2.27 2.34 2.44
1.51 1.55 1.61 1.68 1.72 1.85 1.91 2.02 2.38 2.44 2.28 2.14 2.33 2.32 2.22 2.01 1.92 1.99 2.12 2.35 2.41 2.18 2.09 2.08 1.99 1.90 1.83 2.01 2.18 2.46 2.58 2.88 3.00 2.80 2.62 2.42 2.21 2.33 2.45 2.32 2.35 2.34 2.35
1.45 1.40 1.63 1.80 1.78 1.94 1.99 2.14 2.44 2.70 2.45 2.25 2.62 3.10 2.85 2.54 2.17 1.93 1.96 2.02 2.26 2.23 2.05 1.92 1.84 1.85 1.81 1.80 1.67 1.93 2.29 2.80 3.23 3.06 2.66 2.52 2.37 2.30 2.41 2.35 2.34 2.29 2.30
1.71 1.66 1.78 1.95 1.93 2.01 2.11 2.15 2.24 2.76 2.93 2.66 2.58 3.18 3.06 2.80 2.74 2.18 1.76 1.65 1.93 2.12 2.11 1.96 1.90 1.98 1.99 1.99 1.77 1.63 1.86 2.28 2.94 3.00 2.73 2.73 2.65 2.43 2.26 2.18 2.17 2.28 2.39
1.96 1.83 1.89 1.99 2.05 2.13 2.10 1.93 2.08 2.59 3.11 3.16 2.91 2.68 2.52 2.43 2.61 2.52 1.95 1.60 1.66 1.84 2.05 1.93 1.93 2.04 2.10 2.18 2.09 1.76 1.59 1.80 2.36 2.93 3.11 3.03 2.92 2.69 2.46 2.28 2.22 2.25 2.25
2.00 1.85 1.82 1.98 2.10 2.17 2.16 2.18 2.32 2.62 2.95 3.24 3.20 2.92 2.64 2.38 1.96 2.13 2.17 1.94 1.64 1.54 1.62 1.75 1.90 1.97 2.03 2.06 2.11 1.92 1.56 1.44 1.74 2.41 3.02 3.17 3.06 2.94 2.81 2.73 2.75 2.69 2.51
1.86 1.81 1.81 1.87 1.90 1.98 2.08 2.23 2.46 2.60 2.79 3.02 3.08 2.77 2.62 2.52 2.28 2.08 1.91 1.99 1.94 1.61 1.46 1.46 1.58 1.77 1.84 1.95 1.84 1.88 1.60 1.37 1.39 1.58 2.01 2.55 2.78 2.91 2.98 3.04 3.02 2.88 2.82
1.64 1.64 1.69 1.73 1.68 1.71 1.85 2.02 2.23 2.26 2.38 2.60 2.71 2.60 2.44 2.26 2.19 2.23 2.15 2.02 1.87 1.59 1.46 1.31 1.38 1.52 1.53 1.71 1.88 1.86 1.58 1.46 1.31 1.26 1.33 1.58 1.98 2.33 2.66 3.00 3.14 3.10 3.07
1.43 1.37 1.41 1.49 1.51 1.53 1.61 1.78 1.93 1.91 1.97 2.16 2.22 2.29 2.20 2.11 2.10 2.08 2.10 2.23 2.09 1.85 1.50 1.17 1.21 1.37 1.34 1.43 1.75 1.81 1.42 1.34 1.21 1.16 1.17 1.24 1.39 1.66 2.02 2.35 2.65 2.86 2.93
1.17 1.14 1.20 1.32 1.42 1.43 1.44 1.60 1.73 1.68 1.74 1.87 2.02 2.18 2.11 2.04 2.01 2.02 2.07 2.17 2.22 2.09 1.80 1.33 1.17 1.13 1.16 1.26 1.60 1.49 1.35 1.33 1.19 1.13 1.07 1.06 1.12 1.24 1.41 1.66 1.87 2.05 2.15
1.09 1.10 1.12 1.14 1.17 1.21 1.27 1.46 1.64 1.70 1.68 1.74 1.82 1.94 2.07 2.06 2.05 2.03 2.08 2.11 2.09 2.08 1.94 1.52 1.24 1.12 1.20 1.15 1.37 1.14 1.25 1.43 1.20 1.04 0.99 0.97 1.00 1.08 1.19 1.36 1.40 1.37 1.36
0.87 0.88 0.87 0.93 1.07 1.08 1.10 1.28 1.38 1.40 1.53 1.63 1.60 1.63 1.79 1.91 2.02 2.03 2.03 2.03 2.07 2.04 1.90 1.65 1.30 1.15 1.29 1.31 1.36 1.16 1.13 1.17 1.11 1.07 0.99 0.93 0.91 0.97 0.98 1.10 1.22 1.13 1.04
0.64 0.69 0.76 0.76 0.95 1.11 1.14 1.19 1.20 1.20 1.34 1.44 1.46 1.53 1.56 1.57 1.68 1.80 1.92 1.89 1.95 1.99 1.96 1.84 1.55 1.32 1.32 1.42 1.59 1.54 1.39 1.28 1.26 1.35 1.29 1.13 1.02 1.02 1.04 1.06 1.16 1.12 0.93
0.57 0.63 0.74 0.74 0.78 0.93 1.04 1.06 1.06 1.08 1.14 1.19 1.23 1.30 1.33 1.41 1.55 1.56 1.63 1.70 1.77 1.82 1.94 1.89 1.80 1.67 1.51 1.45 1.54 1.52 1.55 1.66 1.58 1.55 1.58 1.41 1.24 1.14 1.10 1.12 1.16 1.16 1.04
0.60 0.62 0.60 0.64 0.69 0.79 0.91 0.94 0.96 0.96 0.97 0.98 1.09 1.16 1.22 1.27 1.37 1.43 1.45 1.59 1.71 1.79 1.82 1.79 1.74 1.66 1.61 1.56 1.57 1.57 1.64 1.77 1.84 1.69 1.62 1.52 1.48 1.38 1.25 1.20 1.16 1.17 1.18
0.44 0.48 0.46 0.48 0.53 0.62 0.69 0.71 0.78 0.86 0.91 0.93 1.03 1.05 1.08 1.08 1.12 1.18 1.18 1.37 1.52 1.69 1.76 1.79 1.69 1.58 1.52 1.53 1.52 1.55 1.63 1.84 1.89 1.90 1.84 1.68 1.54 1.37 1.30 1.25 1.19 1.20 1.22
0.31 0.36 0.39 0.43 0.45 0.47 0.59 0.61 0.62 0.71 0.81 0.86 0.93 0.96 1.04 1.08 1.04 0.99 0.96 1.03 1.16 1.28 1.47 1.60 1.64 1.56 1.48 1.45 1.57 1.69 1.68 1.81 1.93 1.84 1.73 1.79 1.68 1.57 1.40 1.26 1.29 1.31 1.25
0.34 0.36 0.38 0.44 0.40 0.39 0.47 0.45 0.57 0.73 0.75 0.75 0.76 0.89 1.00 1.04 1.08 1.07 0.97 0.97 0.96 0.98 1.09 1.27 1.40 1.42 1.41 1.44 1.55 1.66 1.74 1.80 1.70 1.74 1.69 1.81 1.73 1.58 1.40 1.37 1.44 1.32 1.28
0.35 0.40 0.41 0.45 0.40 0.33 0.39 0.42 0.51 0.61 0.66 0.64 0.67 0.79 0.94 1.05 1.11 1.12 1.07 1.12 1.06 0.94 0.92 0.98 1.16 1.26 1.30 1.47 1.66 1.84 1.95 1.95 1.83 1.76 1.71 1.77 1.67 1.49 1.35 1.33 1.44 1.32 1.23
0.32 0.38 0.45 0.45 0.38 0.32 0.36 0.43 0.53 0.62 0.69 0.68 0.68 0.74 0.90 0.98 1.13 1.17 1.10 1.18 1.17 0.96 0.89 0.97 1.01 1.10 1.25 1.41 1.63 1.85 1.93 1.94 1.91 1.79 1.60 1.49 1.42 1.44 1.42 1.34 1.31 1.31 1.21
0.33 0.36 0.39 0.38 0.34 0.35 0.39 0.41 0.49 0.52 0.62 0.70 0.73 0.75 0.97 1.03 1.12 1.08 1.03 1.22 1.31 1.14 0.88 0.87 0.95 1.09 1.20 1.36 1.61 1.78 2.02 2.03 1.84 1.76 1.57 1.42 1.40 1.50 1.64 1.48 1.28 1.18 1.11